﻿<?xml version="1.0" encoding="UTF-8" standalone="no" ?>
<gpx xmlns="http://www.topografix.com/GPX/1/1" creator="CompeGPS" version="1.1" xmlns:xsi="http://www.w3.org/2001/XMLSchema-instance" xsi:schemaLocation="http://www.topografix.com/GPX/1/1 http://www.topografix.com/GPX/1/1/gpx.xsd http://www.garmin.com/xmlschemas/GpxExtensions/v3 http://www.garmin.com/xmlschemas/GpxExtensionsv3.xsd http://www.garmin.com/xmlschemas/TrackPointExtension/v1 http://www.garmin.com/xmlschemas/TrackPointExtensionv1.xsd" xmlns:gpxtpx="http://www.garmin.com/xmlschemas/TrackPointExtension/v1">
  <metadata>
    <link href="http://www.compegps.com">
      <text>CompeGPS TEAM, SL</text>
    </link>
    <time>2019-08-11T15:32:55Z</time>
    <bounds maxlat="42.713622" maxlon="-0.033467" minlat="42.658102" minlon="-0.087962"/>
  </metadata>
  <trk>
    <name>trois-vires</name>
    <userMyTwoNav></userMyTwoNav>
    <serialNumber></serialNumber>
    <trkseg>
      <trkpt lat="42.713622" lon="-0.051012">
        <ele>2203.4</ele>
        <time>2019-08-10T04:36:15Z</time>
      </trkpt>
      <trkpt lat="42.713496" lon="-0.051008">
        <ele>2204.0</ele>
        <time>2019-08-10T04:36:57Z</time>
      </trkpt>
      <trkpt lat="42.713409" lon="-0.051027">
        <ele>2202.8</ele>
        <time>2019-08-10T04:37:13Z</time>
      </trkpt>
      <trkpt lat="42.713321" lon="-0.051070">
        <ele>2202.1</ele>
        <time>2019-08-10T04:37:39Z</time>
      </trkpt>
      <trkpt lat="42.713309" lon="-0.051075">
        <ele>2203.2</ele>
        <time>2019-08-10T04:38:11Z</time>
      </trkpt>
      <trkpt lat="42.713235" lon="-0.051136">
        <ele>2203.4</ele>
        <time>2019-08-10T04:38:27Z</time>
      </trkpt>
      <trkpt lat="42.713178" lon="-0.051233">
        <ele>2203.4</ele>
        <time>2019-08-10T04:39:16Z</time>
      </trkpt>
      <trkpt lat="42.713118" lon="-0.051347">
        <ele>2203.7</ele>
        <time>2019-08-10T04:39:25Z</time>
      </trkpt>
      <trkpt lat="42.713090" lon="-0.051479">
        <ele>2203.4</ele>
        <time>2019-08-10T04:39:35Z</time>
      </trkpt>
      <trkpt lat="42.713040" lon="-0.051600">
        <ele>2204.7</ele>
        <time>2019-08-10T04:39:43Z</time>
      </trkpt>
      <trkpt lat="42.712989" lon="-0.051721">
        <ele>2205.0</ele>
        <time>2019-08-10T04:39:51Z</time>
      </trkpt>
      <trkpt lat="42.712948" lon="-0.051848">
        <ele>2204.8</ele>
        <time>2019-08-10T04:39:59Z</time>
      </trkpt>
      <trkpt lat="42.712913" lon="-0.051970">
        <ele>2204.8</ele>
        <time>2019-08-10T04:40:07Z</time>
      </trkpt>
      <trkpt lat="42.712885" lon="-0.052089">
        <ele>2204.4</ele>
        <time>2019-08-10T04:40:15Z</time>
      </trkpt>
      <trkpt lat="42.712857" lon="-0.052210">
        <ele>2204.2</ele>
        <time>2019-08-10T04:40:23Z</time>
      </trkpt>
      <trkpt lat="42.712829" lon="-0.052340">
        <ele>2204.5</ele>
        <time>2019-08-10T04:40:31Z</time>
      </trkpt>
      <trkpt lat="42.712802" lon="-0.052463">
        <ele>2204.1</ele>
        <time>2019-08-10T04:40:39Z</time>
      </trkpt>
      <trkpt lat="42.712781" lon="-0.052587">
        <ele>2204.1</ele>
        <time>2019-08-10T04:40:47Z</time>
      </trkpt>
      <trkpt lat="42.712759" lon="-0.052716">
        <ele>2203.9</ele>
        <time>2019-08-10T04:40:55Z</time>
      </trkpt>
      <trkpt lat="42.712746" lon="-0.052847">
        <ele>2203.7</ele>
        <time>2019-08-10T04:41:02Z</time>
      </trkpt>
      <trkpt lat="42.712727" lon="-0.052981">
        <ele>2204.3</ele>
        <time>2019-08-10T04:41:10Z</time>
      </trkpt>
      <trkpt lat="42.712707" lon="-0.053113">
        <ele>2204.8</ele>
        <time>2019-08-10T04:41:18Z</time>
      </trkpt>
      <trkpt lat="42.712678" lon="-0.053237">
        <ele>2204.4</ele>
        <time>2019-08-10T04:41:26Z</time>
      </trkpt>
      <trkpt lat="42.712645" lon="-0.053362">
        <ele>2201.9</ele>
        <time>2019-08-10T04:41:34Z</time>
      </trkpt>
      <trkpt lat="42.712599" lon="-0.053484">
        <ele>2202.8</ele>
        <time>2019-08-10T04:41:42Z</time>
      </trkpt>
      <trkpt lat="42.712554" lon="-0.053593">
        <ele>2203.8</ele>
        <time>2019-08-10T04:41:50Z</time>
      </trkpt>
      <trkpt lat="42.712517" lon="-0.053705">
        <ele>2203.7</ele>
        <time>2019-08-10T04:41:58Z</time>
      </trkpt>
      <trkpt lat="42.712481" lon="-0.053831">
        <ele>2203.8</ele>
        <time>2019-08-10T04:42:06Z</time>
      </trkpt>
      <trkpt lat="42.712445" lon="-0.053952">
        <ele>2203.6</ele>
        <time>2019-08-10T04:42:14Z</time>
      </trkpt>
      <trkpt lat="42.712409" lon="-0.054082">
        <ele>2203.7</ele>
        <time>2019-08-10T04:42:22Z</time>
      </trkpt>
      <trkpt lat="42.712374" lon="-0.054210">
        <ele>2203.9</ele>
        <time>2019-08-10T04:42:30Z</time>
      </trkpt>
      <trkpt lat="42.712350" lon="-0.054336">
        <ele>2204.5</ele>
        <time>2019-08-10T04:42:38Z</time>
      </trkpt>
      <trkpt lat="42.712316" lon="-0.054463">
        <ele>2204.3</ele>
        <time>2019-08-10T04:42:46Z</time>
      </trkpt>
      <trkpt lat="42.712299" lon="-0.054592">
        <ele>2204.2</ele>
        <time>2019-08-10T04:42:54Z</time>
      </trkpt>
      <trkpt lat="42.712284" lon="-0.054728">
        <ele>2204.5</ele>
        <time>2019-08-10T04:43:02Z</time>
      </trkpt>
      <trkpt lat="42.712262" lon="-0.054862">
        <ele>2204.8</ele>
        <time>2019-08-10T04:43:10Z</time>
      </trkpt>
      <trkpt lat="42.712243" lon="-0.054985">
        <ele>2204.6</ele>
        <time>2019-08-10T04:43:17Z</time>
      </trkpt>
      <trkpt lat="42.712212" lon="-0.055100">
        <ele>2204.6</ele>
        <time>2019-08-10T04:43:24Z</time>
      </trkpt>
      <trkpt lat="42.712184" lon="-0.055219">
        <ele>2204.2</ele>
        <time>2019-08-10T04:43:32Z</time>
      </trkpt>
      <trkpt lat="42.712150" lon="-0.055347">
        <ele>2204.0</ele>
        <time>2019-08-10T04:43:40Z</time>
      </trkpt>
      <trkpt lat="42.712121" lon="-0.055458">
        <ele>2203.9</ele>
        <time>2019-08-10T04:43:47Z</time>
      </trkpt>
      <trkpt lat="42.712096" lon="-0.055571">
        <ele>2203.8</ele>
        <time>2019-08-10T04:43:54Z</time>
      </trkpt>
      <trkpt lat="42.712053" lon="-0.055694">
        <ele>2203.5</ele>
        <time>2019-08-10T04:44:02Z</time>
      </trkpt>
      <trkpt lat="42.712000" lon="-0.055804">
        <ele>2203.2</ele>
        <time>2019-08-10T04:44:09Z</time>
      </trkpt>
      <trkpt lat="42.711949" lon="-0.055904">
        <ele>2203.0</ele>
        <time>2019-08-10T04:44:17Z</time>
      </trkpt>
      <trkpt lat="42.711889" lon="-0.055996">
        <ele>2202.8</ele>
        <time>2019-08-10T04:44:24Z</time>
      </trkpt>
      <trkpt lat="42.711830" lon="-0.056100">
        <ele>2202.6</ele>
        <time>2019-08-10T04:44:32Z</time>
      </trkpt>
      <trkpt lat="42.711767" lon="-0.056200">
        <ele>2202.3</ele>
        <time>2019-08-10T04:44:40Z</time>
      </trkpt>
      <trkpt lat="42.711701" lon="-0.056294">
        <ele>2202.4</ele>
        <time>2019-08-10T04:44:48Z</time>
      </trkpt>
      <trkpt lat="42.711625" lon="-0.056371">
        <ele>2202.6</ele>
        <time>2019-08-10T04:44:56Z</time>
      </trkpt>
      <trkpt lat="42.711550" lon="-0.056463">
        <ele>2203.0</ele>
        <time>2019-08-10T04:45:04Z</time>
      </trkpt>
      <trkpt lat="42.711466" lon="-0.056533">
        <ele>2203.0</ele>
        <time>2019-08-10T04:45:12Z</time>
      </trkpt>
      <trkpt lat="42.711384" lon="-0.056606">
        <ele>2203.6</ele>
        <time>2019-08-10T04:45:20Z</time>
      </trkpt>
      <trkpt lat="42.711304" lon="-0.056647">
        <ele>2203.8</ele>
        <time>2019-08-10T04:45:27Z</time>
      </trkpt>
      <trkpt lat="42.711223" lon="-0.056684">
        <ele>2204.5</ele>
        <time>2019-08-10T04:45:34Z</time>
      </trkpt>
      <trkpt lat="42.711134" lon="-0.056747">
        <ele>2203.9</ele>
        <time>2019-08-10T04:45:42Z</time>
      </trkpt>
      <trkpt lat="42.711057" lon="-0.056833">
        <ele>2203.8</ele>
        <time>2019-08-10T04:45:50Z</time>
      </trkpt>
      <trkpt lat="42.710981" lon="-0.056929">
        <ele>2203.7</ele>
        <time>2019-08-10T04:45:58Z</time>
      </trkpt>
      <trkpt lat="42.710903" lon="-0.057018">
        <ele>2203.9</ele>
        <time>2019-08-10T04:46:06Z</time>
      </trkpt>
      <trkpt lat="42.710832" lon="-0.057087">
        <ele>2204.6</ele>
        <time>2019-08-10T04:46:13Z</time>
      </trkpt>
      <trkpt lat="42.710755" lon="-0.057165">
        <ele>2204.6</ele>
        <time>2019-08-10T04:46:21Z</time>
      </trkpt>
      <trkpt lat="42.710699" lon="-0.057223">
        <ele>2204.5</ele>
        <time>2019-08-10T04:46:43Z</time>
      </trkpt>
      <trkpt lat="42.710638" lon="-0.057326">
        <ele>2204.6</ele>
        <time>2019-08-10T04:46:51Z</time>
      </trkpt>
      <trkpt lat="42.710572" lon="-0.057419">
        <ele>2205.1</ele>
        <time>2019-08-10T04:46:59Z</time>
      </trkpt>
      <trkpt lat="42.710509" lon="-0.057519">
        <ele>2205.1</ele>
        <time>2019-08-10T04:47:07Z</time>
      </trkpt>
      <trkpt lat="42.710458" lon="-0.057616">
        <ele>2205.4</ele>
        <time>2019-08-10T04:47:14Z</time>
      </trkpt>
      <trkpt lat="42.710388" lon="-0.057716">
        <ele>2204.8</ele>
        <time>2019-08-10T04:47:21Z</time>
      </trkpt>
      <trkpt lat="42.710323" lon="-0.057830">
        <ele>2204.7</ele>
        <time>2019-08-10T04:47:28Z</time>
      </trkpt>
      <trkpt lat="42.710272" lon="-0.057937">
        <ele>2204.6</ele>
        <time>2019-08-10T04:47:34Z</time>
      </trkpt>
      <trkpt lat="42.710221" lon="-0.058039">
        <ele>2204.8</ele>
        <time>2019-08-10T04:47:40Z</time>
      </trkpt>
      <trkpt lat="42.710163" lon="-0.058128">
        <ele>2205.2</ele>
        <time>2019-08-10T04:47:46Z</time>
      </trkpt>
      <trkpt lat="42.710097" lon="-0.058246">
        <ele>2205.2</ele>
        <time>2019-08-10T04:47:53Z</time>
      </trkpt>
      <trkpt lat="42.710038" lon="-0.058352">
        <ele>2205.0</ele>
        <time>2019-08-10T04:48:00Z</time>
      </trkpt>
      <trkpt lat="42.709986" lon="-0.058445">
        <ele>2205.3</ele>
        <time>2019-08-10T04:48:06Z</time>
      </trkpt>
      <trkpt lat="42.709927" lon="-0.058550">
        <ele>2205.5</ele>
        <time>2019-08-10T04:48:13Z</time>
      </trkpt>
      <trkpt lat="42.709853" lon="-0.058626">
        <ele>2205.9</ele>
        <time>2019-08-10T04:48:20Z</time>
      </trkpt>
      <trkpt lat="42.709770" lon="-0.058705">
        <ele>2206.5</ele>
        <time>2019-08-10T04:48:27Z</time>
      </trkpt>
      <trkpt lat="42.709686" lon="-0.058788">
        <ele>2206.9</ele>
        <time>2019-08-10T04:48:34Z</time>
      </trkpt>
      <trkpt lat="42.709601" lon="-0.058858">
        <ele>2206.2</ele>
        <time>2019-08-10T04:48:41Z</time>
      </trkpt>
      <trkpt lat="42.709518" lon="-0.058927">
        <ele>2205.7</ele>
        <time>2019-08-10T04:48:48Z</time>
      </trkpt>
      <trkpt lat="42.709442" lon="-0.059001">
        <ele>2205.1</ele>
        <time>2019-08-10T04:48:55Z</time>
      </trkpt>
      <trkpt lat="42.709364" lon="-0.059093">
        <ele>2204.6</ele>
        <time>2019-08-10T04:49:03Z</time>
      </trkpt>
      <trkpt lat="42.709289" lon="-0.059159">
        <ele>2204.6</ele>
        <time>2019-08-10T04:49:10Z</time>
      </trkpt>
      <trkpt lat="42.709198" lon="-0.059219">
        <ele>2205.3</ele>
        <time>2019-08-10T04:49:18Z</time>
      </trkpt>
      <trkpt lat="42.709106" lon="-0.059271">
        <ele>2206.1</ele>
        <time>2019-08-10T04:49:27Z</time>
      </trkpt>
      <trkpt lat="42.709015" lon="-0.059298">
        <ele>2206.8</ele>
        <time>2019-08-10T04:49:38Z</time>
      </trkpt>
      <trkpt lat="42.708944" lon="-0.059395">
        <ele>2206.1</ele>
        <time>2019-08-10T04:49:46Z</time>
      </trkpt>
      <trkpt lat="42.708869" lon="-0.059478">
        <ele>2207.0</ele>
        <time>2019-08-10T04:49:54Z</time>
      </trkpt>
      <trkpt lat="42.708810" lon="-0.059575">
        <ele>2208.0</ele>
        <time>2019-08-10T04:50:02Z</time>
      </trkpt>
      <trkpt lat="42.708737" lon="-0.059667">
        <ele>2209.2</ele>
        <time>2019-08-10T04:50:10Z</time>
      </trkpt>
      <trkpt lat="42.708650" lon="-0.059759">
        <ele>2210.0</ele>
        <time>2019-08-10T04:50:18Z</time>
      </trkpt>
      <trkpt lat="42.708573" lon="-0.059834">
        <ele>2211.0</ele>
        <time>2019-08-10T04:50:26Z</time>
      </trkpt>
      <trkpt lat="42.708488" lon="-0.059906">
        <ele>2212.1</ele>
        <time>2019-08-10T04:50:34Z</time>
      </trkpt>
      <trkpt lat="42.708407" lon="-0.059966">
        <ele>2212.9</ele>
        <time>2019-08-10T04:50:42Z</time>
      </trkpt>
      <trkpt lat="42.708331" lon="-0.060039">
        <ele>2214.2</ele>
        <time>2019-08-10T04:50:51Z</time>
      </trkpt>
      <trkpt lat="42.708252" lon="-0.060105">
        <ele>2215.3</ele>
        <time>2019-08-10T04:51:00Z</time>
      </trkpt>
      <trkpt lat="42.708167" lon="-0.060162">
        <ele>2215.8</ele>
        <time>2019-08-10T04:51:08Z</time>
      </trkpt>
      <trkpt lat="42.708095" lon="-0.060246">
        <ele>2215.8</ele>
        <time>2019-08-10T04:51:17Z</time>
      </trkpt>
      <trkpt lat="42.708029" lon="-0.060327">
        <ele>2215.9</ele>
        <time>2019-08-10T04:51:25Z</time>
      </trkpt>
      <trkpt lat="42.707958" lon="-0.060424">
        <ele>2216.0</ele>
        <time>2019-08-10T04:51:34Z</time>
      </trkpt>
      <trkpt lat="42.707889" lon="-0.060527">
        <ele>2216.9</ele>
        <time>2019-08-10T04:51:43Z</time>
      </trkpt>
      <trkpt lat="42.707829" lon="-0.060617">
        <ele>2218.2</ele>
        <time>2019-08-10T04:51:51Z</time>
      </trkpt>
      <trkpt lat="42.707750" lon="-0.060696">
        <ele>2220.8</ele>
        <time>2019-08-10T04:52:00Z</time>
      </trkpt>
      <trkpt lat="42.707673" lon="-0.060773">
        <ele>2222.7</ele>
        <time>2019-08-10T04:52:09Z</time>
      </trkpt>
      <trkpt lat="42.707591" lon="-0.060843">
        <ele>2223.5</ele>
        <time>2019-08-10T04:52:18Z</time>
      </trkpt>
      <trkpt lat="42.707522" lon="-0.060908">
        <ele>2223.9</ele>
        <time>2019-08-10T04:52:26Z</time>
      </trkpt>
      <trkpt lat="42.707465" lon="-0.061011">
        <ele>2224.2</ele>
        <time>2019-08-10T04:52:35Z</time>
      </trkpt>
      <trkpt lat="42.707394" lon="-0.061099">
        <ele>2224.5</ele>
        <time>2019-08-10T04:52:44Z</time>
      </trkpt>
      <trkpt lat="42.707330" lon="-0.061203">
        <ele>2227.5</ele>
        <time>2019-08-10T04:52:53Z</time>
      </trkpt>
      <trkpt lat="42.707276" lon="-0.061308">
        <ele>2228.7</ele>
        <time>2019-08-10T04:53:02Z</time>
      </trkpt>
      <trkpt lat="42.707230" lon="-0.061429">
        <ele>2229.8</ele>
        <time>2019-08-10T04:53:11Z</time>
      </trkpt>
      <trkpt lat="42.707203" lon="-0.061572">
        <ele>2230.9</ele>
        <time>2019-08-10T04:53:20Z</time>
      </trkpt>
      <trkpt lat="42.707174" lon="-0.061683">
        <ele>2232.2</ele>
        <time>2019-08-10T04:53:29Z</time>
      </trkpt>
      <trkpt lat="42.707132" lon="-0.061811">
        <ele>2232.9</ele>
        <time>2019-08-10T04:53:38Z</time>
      </trkpt>
      <trkpt lat="42.707082" lon="-0.061913">
        <ele>2234.3</ele>
        <time>2019-08-10T04:53:47Z</time>
      </trkpt>
      <trkpt lat="42.707000" lon="-0.061952">
        <ele>2236.0</ele>
        <time>2019-08-10T04:53:55Z</time>
      </trkpt>
      <trkpt lat="42.706953" lon="-0.062045">
        <ele>2236.5</ele>
        <time>2019-08-10T04:54:03Z</time>
      </trkpt>
      <trkpt lat="42.706879" lon="-0.062116">
        <ele>2238.1</ele>
        <time>2019-08-10T04:54:11Z</time>
      </trkpt>
      <trkpt lat="42.706790" lon="-0.062185">
        <ele>2237.4</ele>
        <time>2019-08-10T04:54:19Z</time>
      </trkpt>
      <trkpt lat="42.706703" lon="-0.062242">
        <ele>2237.5</ele>
        <time>2019-08-10T04:54:28Z</time>
      </trkpt>
      <trkpt lat="42.706622" lon="-0.062312">
        <ele>2238.9</ele>
        <time>2019-08-10T04:54:36Z</time>
      </trkpt>
      <trkpt lat="42.706538" lon="-0.062395">
        <ele>2240.1</ele>
        <time>2019-08-10T04:54:42Z</time>
      </trkpt>
      <trkpt lat="42.706458" lon="-0.062461">
        <ele>2241.8</ele>
        <time>2019-08-10T04:54:48Z</time>
      </trkpt>
      <trkpt lat="42.706386" lon="-0.062546">
        <ele>2242.6</ele>
        <time>2019-08-10T04:54:57Z</time>
      </trkpt>
      <trkpt lat="42.706301" lon="-0.062632">
        <ele>2244.4</ele>
        <time>2019-08-10T04:55:08Z</time>
      </trkpt>
      <trkpt lat="42.706222" lon="-0.062656">
        <ele>2244.5</ele>
        <time>2019-08-10T04:55:18Z</time>
      </trkpt>
      <trkpt lat="42.706124" lon="-0.062706">
        <ele>2245.2</ele>
        <time>2019-08-10T04:55:29Z</time>
      </trkpt>
      <trkpt lat="42.706033" lon="-0.062773">
        <ele>2244.9</ele>
        <time>2019-08-10T04:55:39Z</time>
      </trkpt>
      <trkpt lat="42.705941" lon="-0.062840">
        <ele>2246.0</ele>
        <time>2019-08-10T04:55:49Z</time>
      </trkpt>
      <trkpt lat="42.705868" lon="-0.062896">
        <ele>2247.3</ele>
        <time>2019-08-10T04:56:00Z</time>
      </trkpt>
      <trkpt lat="42.705776" lon="-0.062925">
        <ele>2248.1</ele>
        <time>2019-08-10T04:56:10Z</time>
      </trkpt>
      <trkpt lat="42.705689" lon="-0.062965">
        <ele>2249.7</ele>
        <time>2019-08-10T04:56:19Z</time>
      </trkpt>
      <trkpt lat="42.705601" lon="-0.063032">
        <ele>2250.9</ele>
        <time>2019-08-10T04:56:28Z</time>
      </trkpt>
      <trkpt lat="42.705515" lon="-0.063075">
        <ele>2252.6</ele>
        <time>2019-08-10T04:56:38Z</time>
      </trkpt>
      <trkpt lat="42.705423" lon="-0.063089">
        <ele>2252.7</ele>
        <time>2019-08-10T04:56:47Z</time>
      </trkpt>
      <trkpt lat="42.705330" lon="-0.063141">
        <ele>2254.1</ele>
        <time>2019-08-10T04:56:57Z</time>
      </trkpt>
      <trkpt lat="42.705247" lon="-0.063172">
        <ele>2255.6</ele>
        <time>2019-08-10T04:57:06Z</time>
      </trkpt>
      <trkpt lat="42.705157" lon="-0.063212">
        <ele>2256.6</ele>
        <time>2019-08-10T04:57:15Z</time>
      </trkpt>
      <trkpt lat="42.705062" lon="-0.063251">
        <ele>2257.8</ele>
        <time>2019-08-10T04:57:25Z</time>
      </trkpt>
      <trkpt lat="42.704978" lon="-0.063285">
        <ele>2257.8</ele>
        <time>2019-08-10T04:57:35Z</time>
      </trkpt>
      <trkpt lat="42.704885" lon="-0.063336">
        <ele>2259.3</ele>
        <time>2019-08-10T04:57:45Z</time>
      </trkpt>
      <trkpt lat="42.704790" lon="-0.063385">
        <ele>2259.4</ele>
        <time>2019-08-10T04:57:55Z</time>
      </trkpt>
      <trkpt lat="42.704699" lon="-0.063425">
        <ele>2260.8</ele>
        <time>2019-08-10T04:58:05Z</time>
      </trkpt>
      <trkpt lat="42.704595" lon="-0.063448">
        <ele>2261.6</ele>
        <time>2019-08-10T04:58:14Z</time>
      </trkpt>
      <trkpt lat="42.704498" lon="-0.063493">
        <ele>2262.1</ele>
        <time>2019-08-10T04:58:23Z</time>
      </trkpt>
      <trkpt lat="42.704405" lon="-0.063512">
        <ele>2262.6</ele>
        <time>2019-08-10T04:58:31Z</time>
      </trkpt>
      <trkpt lat="42.704321" lon="-0.063528">
        <ele>2263.6</ele>
        <time>2019-08-10T04:58:39Z</time>
      </trkpt>
      <trkpt lat="42.704225" lon="-0.063542">
        <ele>2264.1</ele>
        <time>2019-08-10T04:58:47Z</time>
      </trkpt>
      <trkpt lat="42.704142" lon="-0.063583">
        <ele>2265.1</ele>
        <time>2019-08-10T04:58:55Z</time>
      </trkpt>
      <trkpt lat="42.704067" lon="-0.063634">
        <ele>2266.4</ele>
        <time>2019-08-10T04:59:03Z</time>
      </trkpt>
      <trkpt lat="42.704018" lon="-0.063741">
        <ele>2268.4</ele>
        <time>2019-08-10T04:59:13Z</time>
      </trkpt>
      <trkpt lat="42.703978" lon="-0.063856">
        <ele>2269.3</ele>
        <time>2019-08-10T04:59:22Z</time>
      </trkpt>
      <trkpt lat="42.703961" lon="-0.063984">
        <ele>2268.5</ele>
        <time>2019-08-10T04:59:32Z</time>
      </trkpt>
      <trkpt lat="42.703938" lon="-0.064118">
        <ele>2269.9</ele>
        <time>2019-08-10T04:59:42Z</time>
      </trkpt>
      <trkpt lat="42.703917" lon="-0.064252">
        <ele>2271.2</ele>
        <time>2019-08-10T04:59:54Z</time>
      </trkpt>
      <trkpt lat="42.703893" lon="-0.064312">
        <ele>2271.6</ele>
        <time>2019-08-10T05:00:28Z</time>
      </trkpt>
      <trkpt lat="42.703847" lon="-0.064408">
        <ele>2270.1</ele>
        <time>2019-08-10T05:00:39Z</time>
      </trkpt>
      <trkpt lat="42.703813" lon="-0.064522">
        <ele>2267.7</ele>
        <time>2019-08-10T05:00:52Z</time>
      </trkpt>
      <trkpt lat="42.703747" lon="-0.064517">
        <ele>2270.7</ele>
        <time>2019-08-10T05:01:06Z</time>
      </trkpt>
      <trkpt lat="42.703640" lon="-0.064562">
        <ele>2269.6</ele>
        <time>2019-08-10T05:01:22Z</time>
      </trkpt>
      <trkpt lat="42.703560" lon="-0.064616">
        <ele>2272.6</ele>
        <time>2019-08-10T05:01:32Z</time>
      </trkpt>
      <trkpt lat="42.703507" lon="-0.064682">
        <ele>2272.7</ele>
        <time>2019-08-10T05:01:42Z</time>
      </trkpt>
      <trkpt lat="42.703460" lon="-0.064808">
        <ele>2269.6</ele>
        <time>2019-08-10T05:01:54Z</time>
      </trkpt>
      <trkpt lat="42.703395" lon="-0.064888">
        <ele>2269.7</ele>
        <time>2019-08-10T05:02:04Z</time>
      </trkpt>
      <trkpt lat="42.703318" lon="-0.064962">
        <ele>2269.5</ele>
        <time>2019-08-10T05:02:13Z</time>
      </trkpt>
      <trkpt lat="42.703251" lon="-0.065073">
        <ele>2268.0</ele>
        <time>2019-08-10T05:02:23Z</time>
      </trkpt>
      <trkpt lat="42.703155" lon="-0.065128">
        <ele>2265.1</ele>
        <time>2019-08-10T05:02:33Z</time>
      </trkpt>
      <trkpt lat="42.703111" lon="-0.065253">
        <ele>2262.5</ele>
        <time>2019-08-10T05:02:44Z</time>
      </trkpt>
      <trkpt lat="42.703092" lon="-0.065387">
        <ele>2260.1</ele>
        <time>2019-08-10T05:02:58Z</time>
      </trkpt>
      <trkpt lat="42.703049" lon="-0.065489">
        <ele>2258.6</ele>
        <time>2019-08-10T05:03:09Z</time>
      </trkpt>
      <trkpt lat="42.703024" lon="-0.065612">
        <ele>2257.1</ele>
        <time>2019-08-10T05:03:37Z</time>
      </trkpt>
      <trkpt lat="42.703019" lon="-0.065743">
        <ele>2256.1</ele>
        <time>2019-08-10T05:03:48Z</time>
      </trkpt>
      <trkpt lat="42.702973" lon="-0.065859">
        <ele>2255.9</ele>
        <time>2019-08-10T05:03:58Z</time>
      </trkpt>
      <trkpt lat="42.702961" lon="-0.065985">
        <ele>2256.6</ele>
        <time>2019-08-10T05:04:19Z</time>
      </trkpt>
      <trkpt lat="42.702978" lon="-0.066060">
        <ele>2252.8</ele>
        <time>2019-08-10T05:04:43Z</time>
      </trkpt>
      <trkpt lat="42.702999" lon="-0.066122">
        <ele>2243.1</ele>
        <time>2019-08-10T05:05:47Z</time>
      </trkpt>
      <trkpt lat="42.702980" lon="-0.066204">
        <ele>2242.0</ele>
        <time>2019-08-10T05:06:48Z</time>
      </trkpt>
      <trkpt lat="42.702908" lon="-0.066292">
        <ele>2245.4</ele>
        <time>2019-08-10T05:07:05Z</time>
      </trkpt>
      <trkpt lat="42.702823" lon="-0.066357">
        <ele>2249.6</ele>
        <time>2019-08-10T05:07:24Z</time>
      </trkpt>
      <trkpt lat="42.702770" lon="-0.066460">
        <ele>2251.3</ele>
        <time>2019-08-10T05:07:38Z</time>
      </trkpt>
      <trkpt lat="42.702764" lon="-0.066555">
        <ele>2250.3</ele>
        <time>2019-08-10T05:07:55Z</time>
      </trkpt>
      <trkpt lat="42.702678" lon="-0.066604">
        <ele>2254.2</ele>
        <time>2019-08-10T05:08:19Z</time>
      </trkpt>
      <trkpt lat="42.702634" lon="-0.066709">
        <ele>2253.7</ele>
        <time>2019-08-10T05:08:39Z</time>
      </trkpt>
      <trkpt lat="42.702577" lon="-0.066773">
        <ele>2256.6</ele>
        <time>2019-08-10T05:09:02Z</time>
      </trkpt>
      <trkpt lat="42.702523" lon="-0.066828">
        <ele>2260.8</ele>
        <time>2019-08-10T05:09:25Z</time>
      </trkpt>
      <trkpt lat="42.702457" lon="-0.066913">
        <ele>2263.4</ele>
        <time>2019-08-10T05:09:43Z</time>
      </trkpt>
      <trkpt lat="42.702411" lon="-0.067026">
        <ele>2266.6</ele>
        <time>2019-08-10T05:10:00Z</time>
      </trkpt>
      <trkpt lat="42.702377" lon="-0.067110">
        <ele>2273.4</ele>
        <time>2019-08-10T05:10:19Z</time>
      </trkpt>
      <trkpt lat="42.702327" lon="-0.067213">
        <ele>2275.3</ele>
        <time>2019-08-10T05:10:41Z</time>
      </trkpt>
      <trkpt lat="42.702284" lon="-0.067338">
        <ele>2274.5</ele>
        <time>2019-08-10T05:10:54Z</time>
      </trkpt>
      <trkpt lat="42.702229" lon="-0.067428">
        <ele>2275.1</ele>
        <time>2019-08-10T05:11:06Z</time>
      </trkpt>
      <trkpt lat="42.702160" lon="-0.067522">
        <ele>2276.1</ele>
        <time>2019-08-10T05:11:19Z</time>
      </trkpt>
      <trkpt lat="42.702091" lon="-0.067602">
        <ele>2275.6</ele>
        <time>2019-08-10T05:11:32Z</time>
      </trkpt>
      <trkpt lat="42.702032" lon="-0.067704">
        <ele>2274.3</ele>
        <time>2019-08-10T05:11:44Z</time>
      </trkpt>
      <trkpt lat="42.701981" lon="-0.067808">
        <ele>2273.9</ele>
        <time>2019-08-10T05:11:54Z</time>
      </trkpt>
      <trkpt lat="42.701941" lon="-0.067933">
        <ele>2273.6</ele>
        <time>2019-08-10T05:12:04Z</time>
      </trkpt>
      <trkpt lat="42.701896" lon="-0.068055">
        <ele>2273.4</ele>
        <time>2019-08-10T05:12:14Z</time>
      </trkpt>
      <trkpt lat="42.701823" lon="-0.068144">
        <ele>2274.1</ele>
        <time>2019-08-10T05:12:25Z</time>
      </trkpt>
      <trkpt lat="42.701766" lon="-0.068251">
        <ele>2272.5</ele>
        <time>2019-08-10T05:12:35Z</time>
      </trkpt>
      <trkpt lat="42.701708" lon="-0.068356">
        <ele>2272.9</ele>
        <time>2019-08-10T05:12:46Z</time>
      </trkpt>
      <trkpt lat="42.701633" lon="-0.068440">
        <ele>2274.3</ele>
        <time>2019-08-10T05:12:58Z</time>
      </trkpt>
      <trkpt lat="42.701574" lon="-0.068536">
        <ele>2274.3</ele>
        <time>2019-08-10T05:13:08Z</time>
      </trkpt>
      <trkpt lat="42.701496" lon="-0.068606">
        <ele>2274.7</ele>
        <time>2019-08-10T05:13:18Z</time>
      </trkpt>
      <trkpt lat="42.701389" lon="-0.068626">
        <ele>2275.2</ele>
        <time>2019-08-10T05:13:29Z</time>
      </trkpt>
      <trkpt lat="42.701291" lon="-0.068703">
        <ele>2274.5</ele>
        <time>2019-08-10T05:13:42Z</time>
      </trkpt>
      <trkpt lat="42.701205" lon="-0.068769">
        <ele>2275.9</ele>
        <time>2019-08-10T05:13:55Z</time>
      </trkpt>
      <trkpt lat="42.701137" lon="-0.068848">
        <ele>2276.5</ele>
        <time>2019-08-10T05:14:05Z</time>
      </trkpt>
      <trkpt lat="42.701077" lon="-0.068959">
        <ele>2275.8</ele>
        <time>2019-08-10T05:14:17Z</time>
      </trkpt>
      <trkpt lat="42.701008" lon="-0.069028">
        <ele>2278.1</ele>
        <time>2019-08-10T05:14:29Z</time>
      </trkpt>
      <trkpt lat="42.700922" lon="-0.069101">
        <ele>2280.3</ele>
        <time>2019-08-10T05:14:42Z</time>
      </trkpt>
      <trkpt lat="42.700840" lon="-0.069174">
        <ele>2281.4</ele>
        <time>2019-08-10T05:14:54Z</time>
      </trkpt>
      <trkpt lat="42.700744" lon="-0.069223">
        <ele>2282.5</ele>
        <time>2019-08-10T05:15:06Z</time>
      </trkpt>
      <trkpt lat="42.700658" lon="-0.069282">
        <ele>2284.2</ele>
        <time>2019-08-10T05:15:17Z</time>
      </trkpt>
      <trkpt lat="42.700564" lon="-0.069315">
        <ele>2284.8</ele>
        <time>2019-08-10T05:15:29Z</time>
      </trkpt>
      <trkpt lat="42.700460" lon="-0.069342">
        <ele>2286.7</ele>
        <time>2019-08-10T05:15:41Z</time>
      </trkpt>
      <trkpt lat="42.700370" lon="-0.069381">
        <ele>2286.2</ele>
        <time>2019-08-10T05:15:51Z</time>
      </trkpt>
      <trkpt lat="42.700291" lon="-0.069441">
        <ele>2290.1</ele>
        <time>2019-08-10T05:16:09Z</time>
      </trkpt>
      <trkpt lat="42.700245" lon="-0.069553">
        <ele>2291.9</ele>
        <time>2019-08-10T05:16:36Z</time>
      </trkpt>
      <trkpt lat="42.700179" lon="-0.069650">
        <ele>2293.7</ele>
        <time>2019-08-10T05:16:49Z</time>
      </trkpt>
      <trkpt lat="42.700140" lon="-0.069772">
        <ele>2295.1</ele>
        <time>2019-08-10T05:17:01Z</time>
      </trkpt>
      <trkpt lat="42.700098" lon="-0.069881">
        <ele>2297.0</ele>
        <time>2019-08-10T05:17:13Z</time>
      </trkpt>
      <trkpt lat="42.700044" lon="-0.069977">
        <ele>2298.6</ele>
        <time>2019-08-10T05:17:23Z</time>
      </trkpt>
      <trkpt lat="42.699988" lon="-0.070069">
        <ele>2298.7</ele>
        <time>2019-08-10T05:17:35Z</time>
      </trkpt>
      <trkpt lat="42.699904" lon="-0.070118">
        <ele>2301.1</ele>
        <time>2019-08-10T05:17:49Z</time>
      </trkpt>
      <trkpt lat="42.699822" lon="-0.070204">
        <ele>2303.2</ele>
        <time>2019-08-10T05:18:03Z</time>
      </trkpt>
      <trkpt lat="42.699755" lon="-0.070302">
        <ele>2305.2</ele>
        <time>2019-08-10T05:18:15Z</time>
      </trkpt>
      <trkpt lat="42.699685" lon="-0.070396">
        <ele>2306.9</ele>
        <time>2019-08-10T05:18:26Z</time>
      </trkpt>
      <trkpt lat="42.699620" lon="-0.070484">
        <ele>2308.4</ele>
        <time>2019-08-10T05:18:37Z</time>
      </trkpt>
      <trkpt lat="42.699536" lon="-0.070540">
        <ele>2310.4</ele>
        <time>2019-08-10T05:18:52Z</time>
      </trkpt>
      <trkpt lat="42.699454" lon="-0.070616">
        <ele>2312.0</ele>
        <time>2019-08-10T05:19:05Z</time>
      </trkpt>
      <trkpt lat="42.699395" lon="-0.070703">
        <ele>2313.1</ele>
        <time>2019-08-10T05:19:17Z</time>
      </trkpt>
      <trkpt lat="42.699321" lon="-0.070784">
        <ele>2312.6</ele>
        <time>2019-08-10T05:19:28Z</time>
      </trkpt>
      <trkpt lat="42.699238" lon="-0.070840">
        <ele>2312.8</ele>
        <time>2019-08-10T05:19:38Z</time>
      </trkpt>
      <trkpt lat="42.699175" lon="-0.070940">
        <ele>2313.3</ele>
        <time>2019-08-10T05:19:48Z</time>
      </trkpt>
      <trkpt lat="42.699107" lon="-0.071032">
        <ele>2314.9</ele>
        <time>2019-08-10T05:19:58Z</time>
      </trkpt>
      <trkpt lat="42.699031" lon="-0.071102">
        <ele>2316.3</ele>
        <time>2019-08-10T05:20:08Z</time>
      </trkpt>
      <trkpt lat="42.698946" lon="-0.071157">
        <ele>2316.9</ele>
        <time>2019-08-10T05:20:18Z</time>
      </trkpt>
      <trkpt lat="42.698865" lon="-0.071229">
        <ele>2315.9</ele>
        <time>2019-08-10T05:20:29Z</time>
      </trkpt>
      <trkpt lat="42.698801" lon="-0.071329">
        <ele>2315.2</ele>
        <time>2019-08-10T05:20:39Z</time>
      </trkpt>
      <trkpt lat="42.698752" lon="-0.071446">
        <ele>2315.5</ele>
        <time>2019-08-10T05:20:49Z</time>
      </trkpt>
      <trkpt lat="42.698697" lon="-0.071545">
        <ele>2318.2</ele>
        <time>2019-08-10T05:20:59Z</time>
      </trkpt>
      <trkpt lat="42.698609" lon="-0.071602">
        <ele>2319.9</ele>
        <time>2019-08-10T05:21:12Z</time>
      </trkpt>
      <trkpt lat="42.698535" lon="-0.071657">
        <ele>2321.6</ele>
        <time>2019-08-10T05:21:24Z</time>
      </trkpt>
      <trkpt lat="42.698470" lon="-0.071754">
        <ele>2323.4</ele>
        <time>2019-08-10T05:21:35Z</time>
      </trkpt>
      <trkpt lat="42.698395" lon="-0.071817">
        <ele>2323.0</ele>
        <time>2019-08-10T05:21:45Z</time>
      </trkpt>
      <trkpt lat="42.698335" lon="-0.071933">
        <ele>2323.6</ele>
        <time>2019-08-10T05:21:55Z</time>
      </trkpt>
      <trkpt lat="42.698264" lon="-0.072011">
        <ele>2324.7</ele>
        <time>2019-08-10T05:22:04Z</time>
      </trkpt>
      <trkpt lat="42.698208" lon="-0.072113">
        <ele>2324.1</ele>
        <time>2019-08-10T05:22:14Z</time>
      </trkpt>
      <trkpt lat="42.698147" lon="-0.072192">
        <ele>2320.4</ele>
        <time>2019-08-10T05:22:28Z</time>
      </trkpt>
      <trkpt lat="42.698167" lon="-0.072225">
        <ele>2322.5</ele>
        <time>2019-08-10T05:26:34Z</time>
      </trkpt>
      <trkpt lat="42.698110" lon="-0.072246">
        <ele>2322.9</ele>
        <time>2019-08-10T05:27:58Z</time>
      </trkpt>
      <trkpt lat="42.698073" lon="-0.072347">
        <ele>2323.4</ele>
        <time>2019-08-10T05:28:08Z</time>
      </trkpt>
      <trkpt lat="42.698027" lon="-0.072454">
        <ele>2324.6</ele>
        <time>2019-08-10T05:28:18Z</time>
      </trkpt>
      <trkpt lat="42.697973" lon="-0.072563">
        <ele>2325.6</ele>
        <time>2019-08-10T05:28:29Z</time>
      </trkpt>
      <trkpt lat="42.697910" lon="-0.072648">
        <ele>2326.9</ele>
        <time>2019-08-10T05:28:41Z</time>
      </trkpt>
      <trkpt lat="42.697828" lon="-0.072713">
        <ele>2328.6</ele>
        <time>2019-08-10T05:28:53Z</time>
      </trkpt>
      <trkpt lat="42.697792" lon="-0.072843">
        <ele>2327.3</ele>
        <time>2019-08-10T05:29:03Z</time>
      </trkpt>
      <trkpt lat="42.697733" lon="-0.072920">
        <ele>2328.5</ele>
        <time>2019-08-10T05:29:15Z</time>
      </trkpt>
      <trkpt lat="42.697715" lon="-0.073037">
        <ele>2330.8</ele>
        <time>2019-08-10T05:29:28Z</time>
      </trkpt>
      <trkpt lat="42.697652" lon="-0.073140">
        <ele>2333.3</ele>
        <time>2019-08-10T05:29:43Z</time>
      </trkpt>
      <trkpt lat="42.697577" lon="-0.073231">
        <ele>2336.2</ele>
        <time>2019-08-10T05:29:55Z</time>
      </trkpt>
      <trkpt lat="42.697541" lon="-0.073355">
        <ele>2338.7</ele>
        <time>2019-08-10T05:30:06Z</time>
      </trkpt>
      <trkpt lat="42.697480" lon="-0.073458">
        <ele>2339.3</ele>
        <time>2019-08-10T05:30:16Z</time>
      </trkpt>
      <trkpt lat="42.697400" lon="-0.073516">
        <ele>2340.2</ele>
        <time>2019-08-10T05:30:26Z</time>
      </trkpt>
      <trkpt lat="42.697343" lon="-0.073617">
        <ele>2340.6</ele>
        <time>2019-08-10T05:30:38Z</time>
      </trkpt>
      <trkpt lat="42.697272" lon="-0.073696">
        <ele>2342.6</ele>
        <time>2019-08-10T05:30:49Z</time>
      </trkpt>
      <trkpt lat="42.697186" lon="-0.073770">
        <ele>2344.1</ele>
        <time>2019-08-10T05:31:02Z</time>
      </trkpt>
      <trkpt lat="42.697122" lon="-0.073866">
        <ele>2349.5</ele>
        <time>2019-08-10T05:31:14Z</time>
      </trkpt>
      <trkpt lat="42.697082" lon="-0.073982">
        <ele>2350.8</ele>
        <time>2019-08-10T05:31:26Z</time>
      </trkpt>
      <trkpt lat="42.697049" lon="-0.074095">
        <ele>2349.9</ele>
        <time>2019-08-10T05:31:39Z</time>
      </trkpt>
      <trkpt lat="42.697012" lon="-0.074223">
        <ele>2351.2</ele>
        <time>2019-08-10T05:31:50Z</time>
      </trkpt>
      <trkpt lat="42.696946" lon="-0.074303">
        <ele>2353.3</ele>
        <time>2019-08-10T05:32:06Z</time>
      </trkpt>
      <trkpt lat="42.696904" lon="-0.074434">
        <ele>2355.8</ele>
        <time>2019-08-10T05:32:24Z</time>
      </trkpt>
      <trkpt lat="42.696889" lon="-0.074562">
        <ele>2357.1</ele>
        <time>2019-08-10T05:32:37Z</time>
      </trkpt>
      <trkpt lat="42.696825" lon="-0.074638">
        <ele>2360.9</ele>
        <time>2019-08-10T05:32:58Z</time>
      </trkpt>
      <trkpt lat="42.696769" lon="-0.074736">
        <ele>2363.2</ele>
        <time>2019-08-10T05:33:11Z</time>
      </trkpt>
      <trkpt lat="42.696734" lon="-0.074830">
        <ele>2362.4</ele>
        <time>2019-08-10T05:33:36Z</time>
      </trkpt>
      <trkpt lat="42.696660" lon="-0.074921">
        <ele>2366.0</ele>
        <time>2019-08-10T05:33:49Z</time>
      </trkpt>
      <trkpt lat="42.696588" lon="-0.074997">
        <ele>2365.7</ele>
        <time>2019-08-10T05:34:00Z</time>
      </trkpt>
      <trkpt lat="42.696532" lon="-0.075099">
        <ele>2368.6</ele>
        <time>2019-08-10T05:34:12Z</time>
      </trkpt>
      <trkpt lat="42.696459" lon="-0.075140">
        <ele>2365.5</ele>
        <time>2019-08-10T05:34:26Z</time>
      </trkpt>
      <trkpt lat="42.696435" lon="-0.075255">
        <ele>2367.4</ele>
        <time>2019-08-10T05:34:37Z</time>
      </trkpt>
      <trkpt lat="42.696381" lon="-0.075341">
        <ele>2367.2</ele>
        <time>2019-08-10T05:34:46Z</time>
      </trkpt>
      <trkpt lat="42.696316" lon="-0.075423">
        <ele>2367.3</ele>
        <time>2019-08-10T05:34:56Z</time>
      </trkpt>
      <trkpt lat="42.696255" lon="-0.075481">
        <ele>2367.0</ele>
        <time>2019-08-10T05:35:06Z</time>
      </trkpt>
      <trkpt lat="42.696188" lon="-0.075568">
        <ele>2370.1</ele>
        <time>2019-08-10T05:35:24Z</time>
      </trkpt>
      <trkpt lat="42.696127" lon="-0.075653">
        <ele>2367.2</ele>
        <time>2019-08-10T05:35:39Z</time>
      </trkpt>
      <trkpt lat="42.696073" lon="-0.075753">
        <ele>2365.6</ele>
        <time>2019-08-10T05:35:52Z</time>
      </trkpt>
      <trkpt lat="42.696003" lon="-0.075827">
        <ele>2364.3</ele>
        <time>2019-08-10T05:36:09Z</time>
      </trkpt>
      <trkpt lat="42.695920" lon="-0.075892">
        <ele>2364.4</ele>
        <time>2019-08-10T05:36:21Z</time>
      </trkpt>
      <trkpt lat="42.695846" lon="-0.075956">
        <ele>2363.9</ele>
        <time>2019-08-10T05:36:35Z</time>
      </trkpt>
      <trkpt lat="42.695770" lon="-0.076015">
        <ele>2362.3</ele>
        <time>2019-08-10T05:36:48Z</time>
      </trkpt>
      <trkpt lat="42.695710" lon="-0.076125">
        <ele>2360.8</ele>
        <time>2019-08-10T05:37:00Z</time>
      </trkpt>
      <trkpt lat="42.695654" lon="-0.076231">
        <ele>2359.8</ele>
        <time>2019-08-10T05:37:10Z</time>
      </trkpt>
      <trkpt lat="42.695570" lon="-0.076297">
        <ele>2359.6</ele>
        <time>2019-08-10T05:37:21Z</time>
      </trkpt>
      <trkpt lat="42.695514" lon="-0.076412">
        <ele>2360.2</ele>
        <time>2019-08-10T05:37:33Z</time>
      </trkpt>
      <trkpt lat="42.695461" lon="-0.076512">
        <ele>2359.5</ele>
        <time>2019-08-10T05:37:44Z</time>
      </trkpt>
      <trkpt lat="42.695369" lon="-0.076577">
        <ele>2357.9</ele>
        <time>2019-08-10T05:37:55Z</time>
      </trkpt>
      <trkpt lat="42.695294" lon="-0.076646">
        <ele>2357.0</ele>
        <time>2019-08-10T05:38:05Z</time>
      </trkpt>
      <trkpt lat="42.695214" lon="-0.076704">
        <ele>2356.6</ele>
        <time>2019-08-10T05:38:21Z</time>
      </trkpt>
      <trkpt lat="42.695162" lon="-0.076820">
        <ele>2356.3</ele>
        <time>2019-08-10T05:38:34Z</time>
      </trkpt>
      <trkpt lat="42.695100" lon="-0.076912">
        <ele>2356.2</ele>
        <time>2019-08-10T05:38:46Z</time>
      </trkpt>
      <trkpt lat="42.695021" lon="-0.076980">
        <ele>2357.6</ele>
        <time>2019-08-10T05:38:58Z</time>
      </trkpt>
      <trkpt lat="42.694948" lon="-0.077060">
        <ele>2358.9</ele>
        <time>2019-08-10T05:39:09Z</time>
      </trkpt>
      <trkpt lat="42.694885" lon="-0.077156">
        <ele>2358.7</ele>
        <time>2019-08-10T05:39:19Z</time>
      </trkpt>
      <trkpt lat="42.694825" lon="-0.077249">
        <ele>2359.1</ele>
        <time>2019-08-10T05:39:29Z</time>
      </trkpt>
      <trkpt lat="42.694736" lon="-0.077296">
        <ele>2358.7</ele>
        <time>2019-08-10T05:39:41Z</time>
      </trkpt>
      <trkpt lat="42.694630" lon="-0.077344">
        <ele>2358.7</ele>
        <time>2019-08-10T05:39:52Z</time>
      </trkpt>
      <trkpt lat="42.694567" lon="-0.077440">
        <ele>2359.1</ele>
        <time>2019-08-10T05:40:03Z</time>
      </trkpt>
      <trkpt lat="42.694528" lon="-0.077570">
        <ele>2358.2</ele>
        <time>2019-08-10T05:40:21Z</time>
      </trkpt>
      <trkpt lat="42.694443" lon="-0.077615">
        <ele>2358.6</ele>
        <time>2019-08-10T05:40:33Z</time>
      </trkpt>
      <trkpt lat="42.694454" lon="-0.077779">
        <ele>2360.2</ele>
        <time>2019-08-10T05:40:48Z</time>
      </trkpt>
      <trkpt lat="42.694388" lon="-0.077911">
        <ele>2361.9</ele>
        <time>2019-08-10T05:41:00Z</time>
      </trkpt>
      <trkpt lat="42.694314" lon="-0.077973">
        <ele>2362.1</ele>
        <time>2019-08-10T05:41:11Z</time>
      </trkpt>
      <trkpt lat="42.694233" lon="-0.078002">
        <ele>2362.1</ele>
        <time>2019-08-10T05:41:22Z</time>
      </trkpt>
      <trkpt lat="42.694160" lon="-0.078087">
        <ele>2366.1</ele>
        <time>2019-08-10T05:41:38Z</time>
      </trkpt>
      <trkpt lat="42.694078" lon="-0.078133">
        <ele>2369.6</ele>
        <time>2019-08-10T05:41:53Z</time>
      </trkpt>
      <trkpt lat="42.693975" lon="-0.078164">
        <ele>2371.1</ele>
        <time>2019-08-10T05:42:06Z</time>
      </trkpt>
      <trkpt lat="42.693861" lon="-0.078192">
        <ele>2373.2</ele>
        <time>2019-08-10T05:42:20Z</time>
      </trkpt>
      <trkpt lat="42.693793" lon="-0.078304">
        <ele>2375.2</ele>
        <time>2019-08-10T05:42:31Z</time>
      </trkpt>
      <trkpt lat="42.693737" lon="-0.078389">
        <ele>2376.8</ele>
        <time>2019-08-10T05:42:41Z</time>
      </trkpt>
      <trkpt lat="42.693648" lon="-0.078423">
        <ele>2378.3</ele>
        <time>2019-08-10T05:42:55Z</time>
      </trkpt>
      <trkpt lat="42.693582" lon="-0.078528">
        <ele>2379.7</ele>
        <time>2019-08-10T05:43:07Z</time>
      </trkpt>
      <trkpt lat="42.693542" lon="-0.078635">
        <ele>2379.6</ele>
        <time>2019-08-10T05:43:18Z</time>
      </trkpt>
      <trkpt lat="42.693454" lon="-0.078667">
        <ele>2380.2</ele>
        <time>2019-08-10T05:43:31Z</time>
      </trkpt>
      <trkpt lat="42.693382" lon="-0.078743">
        <ele>2381.7</ele>
        <time>2019-08-10T05:43:44Z</time>
      </trkpt>
      <trkpt lat="42.693294" lon="-0.078791">
        <ele>2382.8</ele>
        <time>2019-08-10T05:43:57Z</time>
      </trkpt>
      <trkpt lat="42.693201" lon="-0.078822">
        <ele>2384.4</ele>
        <time>2019-08-10T05:44:12Z</time>
      </trkpt>
      <trkpt lat="42.693143" lon="-0.078890">
        <ele>2386.0</ele>
        <time>2019-08-10T05:44:27Z</time>
      </trkpt>
      <trkpt lat="42.693062" lon="-0.078973">
        <ele>2388.6</ele>
        <time>2019-08-10T05:48:46Z</time>
      </trkpt>
      <trkpt lat="42.693016" lon="-0.078963">
        <ele>2391.8</ele>
        <time>2019-08-10T05:49:04Z</time>
      </trkpt>
      <trkpt lat="42.692964" lon="-0.079051">
        <ele>2394.1</ele>
        <time>2019-08-10T05:49:24Z</time>
      </trkpt>
      <trkpt lat="42.692847" lon="-0.079028">
        <ele>2397.5</ele>
        <time>2019-08-10T05:49:42Z</time>
      </trkpt>
      <trkpt lat="42.692744" lon="-0.079033">
        <ele>2401.1</ele>
        <time>2019-08-10T05:50:02Z</time>
      </trkpt>
      <trkpt lat="42.692660" lon="-0.079006">
        <ele>2403.2</ele>
        <time>2019-08-10T05:50:21Z</time>
      </trkpt>
      <trkpt lat="42.692581" lon="-0.079041">
        <ele>2405.1</ele>
        <time>2019-08-10T05:50:36Z</time>
      </trkpt>
      <trkpt lat="42.692603" lon="-0.079174">
        <ele>2408.1</ele>
        <time>2019-08-10T05:50:53Z</time>
      </trkpt>
      <trkpt lat="42.692529" lon="-0.079189">
        <ele>2411.0</ele>
        <time>2019-08-10T05:51:11Z</time>
      </trkpt>
      <trkpt lat="42.692449" lon="-0.079180">
        <ele>2413.8</ele>
        <time>2019-08-10T05:51:31Z</time>
      </trkpt>
      <trkpt lat="42.692346" lon="-0.079232">
        <ele>2418.0</ele>
        <time>2019-08-10T05:51:55Z</time>
      </trkpt>
      <trkpt lat="42.692217" lon="-0.079257">
        <ele>2423.6</ele>
        <time>2019-08-10T05:52:34Z</time>
      </trkpt>
      <trkpt lat="42.692167" lon="-0.079310">
        <ele>2427.5</ele>
        <time>2019-08-10T05:52:58Z</time>
      </trkpt>
      <trkpt lat="42.692091" lon="-0.079327">
        <ele>2430.9</ele>
        <time>2019-08-10T05:53:20Z</time>
      </trkpt>
      <trkpt lat="42.692013" lon="-0.079361">
        <ele>2434.1</ele>
        <time>2019-08-10T05:53:44Z</time>
      </trkpt>
      <trkpt lat="42.691958" lon="-0.079414">
        <ele>2436.7</ele>
        <time>2019-08-10T05:54:03Z</time>
      </trkpt>
      <trkpt lat="42.691834" lon="-0.079473">
        <ele>2446.9</ele>
        <time>2019-08-10T05:55:11Z</time>
      </trkpt>
      <trkpt lat="42.691790" lon="-0.079532">
        <ele>2450.4</ele>
        <time>2019-08-10T05:55:35Z</time>
      </trkpt>
      <trkpt lat="42.691722" lon="-0.079491">
        <ele>2454.5</ele>
        <time>2019-08-10T05:56:01Z</time>
      </trkpt>
      <trkpt lat="42.691636" lon="-0.079447">
        <ele>2457.9</ele>
        <time>2019-08-10T05:56:25Z</time>
      </trkpt>
      <trkpt lat="42.691554" lon="-0.079456">
        <ele>2460.1</ele>
        <time>2019-08-10T05:56:42Z</time>
      </trkpt>
      <trkpt lat="42.691466" lon="-0.079575">
        <ele>2466.1</ele>
        <time>2019-08-10T05:57:24Z</time>
      </trkpt>
      <trkpt lat="42.691457" lon="-0.079696">
        <ele>2469.5</ele>
        <time>2019-08-10T05:57:46Z</time>
      </trkpt>
      <trkpt lat="42.691498" lon="-0.079786">
        <ele>2473.6</ele>
        <time>2019-08-10T05:58:12Z</time>
      </trkpt>
      <trkpt lat="42.691560" lon="-0.079864">
        <ele>2475.8</ele>
        <time>2019-08-10T05:58:28Z</time>
      </trkpt>
      <trkpt lat="42.691608" lon="-0.079942">
        <ele>2477.3</ele>
        <time>2019-08-10T05:58:50Z</time>
      </trkpt>
      <trkpt lat="42.691568" lon="-0.080026">
        <ele>2484.1</ele>
        <time>2019-08-10T05:59:26Z</time>
      </trkpt>
      <trkpt lat="42.691549" lon="-0.080053">
        <ele>2498.5</ele>
        <time>2019-08-10T06:00:39Z</time>
      </trkpt>
      <trkpt lat="42.691475" lon="-0.080077">
        <ele>2501.8</ele>
        <time>2019-08-10T06:01:01Z</time>
      </trkpt>
      <trkpt lat="42.691483" lon="-0.080090">
        <ele>2501.9</ele>
        <time>2019-08-10T06:02:06Z</time>
      </trkpt>
      <trkpt lat="42.691488" lon="-0.080208">
        <ele>2504.2</ele>
        <time>2019-08-10T06:03:21Z</time>
      </trkpt>
      <trkpt lat="42.691484" lon="-0.080274">
        <ele>2504.8</ele>
        <time>2019-08-10T06:04:07Z</time>
      </trkpt>
      <trkpt lat="42.691484" lon="-0.080338">
        <ele>2499.3</ele>
        <time>2019-08-10T06:04:22Z</time>
      </trkpt>
      <trkpt lat="42.691399" lon="-0.080323">
        <ele>2496.9</ele>
        <time>2019-08-10T06:04:44Z</time>
      </trkpt>
      <trkpt lat="42.691318" lon="-0.080275">
        <ele>2493.9</ele>
        <time>2019-08-10T06:05:07Z</time>
      </trkpt>
      <trkpt lat="42.691297" lon="-0.080171">
        <ele>2492.0</ele>
        <time>2019-08-10T06:05:33Z</time>
      </trkpt>
      <trkpt lat="42.691247" lon="-0.080096">
        <ele>2491.2</ele>
        <time>2019-08-10T06:06:05Z</time>
      </trkpt>
      <trkpt lat="42.691192" lon="-0.080012">
        <ele>2489.1</ele>
        <time>2019-08-10T06:06:21Z</time>
      </trkpt>
      <trkpt lat="42.691165" lon="-0.079906">
        <ele>2489.4</ele>
        <time>2019-08-10T06:06:36Z</time>
      </trkpt>
      <trkpt lat="42.691158" lon="-0.079786">
        <ele>2491.7</ele>
        <time>2019-08-10T06:06:51Z</time>
      </trkpt>
      <trkpt lat="42.691149" lon="-0.079661">
        <ele>2495.1</ele>
        <time>2019-08-10T06:07:08Z</time>
      </trkpt>
      <trkpt lat="42.691133" lon="-0.079533">
        <ele>2498.7</ele>
        <time>2019-08-10T06:07:25Z</time>
      </trkpt>
      <trkpt lat="42.691114" lon="-0.079403">
        <ele>2503.0</ele>
        <time>2019-08-10T06:07:43Z</time>
      </trkpt>
      <trkpt lat="42.691086" lon="-0.079273">
        <ele>2505.7</ele>
        <time>2019-08-10T06:08:02Z</time>
      </trkpt>
      <trkpt lat="42.691040" lon="-0.079173">
        <ele>2510.3</ele>
        <time>2019-08-10T06:08:22Z</time>
      </trkpt>
      <trkpt lat="42.690976" lon="-0.079096">
        <ele>2507.6</ele>
        <time>2019-08-10T06:08:46Z</time>
      </trkpt>
      <trkpt lat="42.690924" lon="-0.079016">
        <ele>2503.1</ele>
        <time>2019-08-10T06:09:19Z</time>
      </trkpt>
      <trkpt lat="42.690909" lon="-0.079035">
        <ele>2498.5</ele>
        <time>2019-08-10T06:10:15Z</time>
      </trkpt>
      <trkpt lat="42.690867" lon="-0.078913">
        <ele>2501.5</ele>
        <time>2019-08-10T06:11:08Z</time>
      </trkpt>
      <trkpt lat="42.690824" lon="-0.078796">
        <ele>2502.8</ele>
        <time>2019-08-10T06:11:25Z</time>
      </trkpt>
      <trkpt lat="42.690768" lon="-0.078694">
        <ele>2503.0</ele>
        <time>2019-08-10T06:11:42Z</time>
      </trkpt>
      <trkpt lat="42.690737" lon="-0.078595">
        <ele>2502.9</ele>
        <time>2019-08-10T06:11:57Z</time>
      </trkpt>
      <trkpt lat="42.690719" lon="-0.078470">
        <ele>2505.9</ele>
        <time>2019-08-10T06:12:13Z</time>
      </trkpt>
      <trkpt lat="42.690703" lon="-0.078354">
        <ele>2507.6</ele>
        <time>2019-08-10T06:12:28Z</time>
      </trkpt>
      <trkpt lat="42.690711" lon="-0.078223">
        <ele>2512.6</ele>
        <time>2019-08-10T06:12:57Z</time>
      </trkpt>
      <trkpt lat="42.690663" lon="-0.078138">
        <ele>2513.4</ele>
        <time>2019-08-10T06:13:21Z</time>
      </trkpt>
      <trkpt lat="42.690632" lon="-0.078060">
        <ele>2510.6</ele>
        <time>2019-08-10T06:13:42Z</time>
      </trkpt>
      <trkpt lat="42.690645" lon="-0.077943">
        <ele>2513.1</ele>
        <time>2019-08-10T06:14:12Z</time>
      </trkpt>
      <trkpt lat="42.690609" lon="-0.077834">
        <ele>2515.9</ele>
        <time>2019-08-10T06:14:29Z</time>
      </trkpt>
      <trkpt lat="42.690573" lon="-0.077718">
        <ele>2516.0</ele>
        <time>2019-08-10T06:14:46Z</time>
      </trkpt>
      <trkpt lat="42.690544" lon="-0.077605">
        <ele>2516.7</ele>
        <time>2019-08-10T06:14:58Z</time>
      </trkpt>
      <trkpt lat="42.690529" lon="-0.077477">
        <ele>2518.0</ele>
        <time>2019-08-10T06:15:13Z</time>
      </trkpt>
      <trkpt lat="42.690571" lon="-0.077378">
        <ele>2519.6</ele>
        <time>2019-08-10T06:15:30Z</time>
      </trkpt>
      <trkpt lat="42.690557" lon="-0.077221">
        <ele>2522.3</ele>
        <time>2019-08-10T06:15:50Z</time>
      </trkpt>
      <trkpt lat="42.690515" lon="-0.077100">
        <ele>2522.0</ele>
        <time>2019-08-10T06:16:06Z</time>
      </trkpt>
      <trkpt lat="42.690457" lon="-0.076987">
        <ele>2521.2</ele>
        <time>2019-08-10T06:16:21Z</time>
      </trkpt>
      <trkpt lat="42.690400" lon="-0.076883">
        <ele>2519.9</ele>
        <time>2019-08-10T06:16:33Z</time>
      </trkpt>
      <trkpt lat="42.690363" lon="-0.076780">
        <ele>2519.2</ele>
        <time>2019-08-10T06:16:45Z</time>
      </trkpt>
      <trkpt lat="42.690333" lon="-0.076660">
        <ele>2519.2</ele>
        <time>2019-08-10T06:16:57Z</time>
      </trkpt>
      <trkpt lat="42.690304" lon="-0.076524">
        <ele>2520.3</ele>
        <time>2019-08-10T06:17:09Z</time>
      </trkpt>
      <trkpt lat="42.690264" lon="-0.076424">
        <ele>2520.6</ele>
        <time>2019-08-10T06:17:22Z</time>
      </trkpt>
      <trkpt lat="42.690204" lon="-0.076301">
        <ele>2519.7</ele>
        <time>2019-08-10T06:17:36Z</time>
      </trkpt>
      <trkpt lat="42.690186" lon="-0.076172">
        <ele>2519.5</ele>
        <time>2019-08-10T06:17:50Z</time>
      </trkpt>
      <trkpt lat="42.690095" lon="-0.076067">
        <ele>2518.5</ele>
        <time>2019-08-10T06:18:06Z</time>
      </trkpt>
      <trkpt lat="42.690004" lon="-0.075972">
        <ele>2518.8</ele>
        <time>2019-08-10T06:18:23Z</time>
      </trkpt>
      <trkpt lat="42.689906" lon="-0.075906">
        <ele>2519.2</ele>
        <time>2019-08-10T06:18:39Z</time>
      </trkpt>
      <trkpt lat="42.689817" lon="-0.075832">
        <ele>2519.3</ele>
        <time>2019-08-10T06:18:53Z</time>
      </trkpt>
      <trkpt lat="42.689735" lon="-0.075776">
        <ele>2518.8</ele>
        <time>2019-08-10T06:19:01Z</time>
      </trkpt>
      <trkpt lat="42.689644" lon="-0.075769">
        <ele>2516.8</ele>
        <time>2019-08-10T06:19:13Z</time>
      </trkpt>
      <trkpt lat="42.689560" lon="-0.075749">
        <ele>2514.9</ele>
        <time>2019-08-10T06:19:26Z</time>
      </trkpt>
      <trkpt lat="42.689479" lon="-0.075752">
        <ele>2514.1</ele>
        <time>2019-08-10T06:19:42Z</time>
      </trkpt>
      <trkpt lat="42.689372" lon="-0.075710">
        <ele>2514.2</ele>
        <time>2019-08-10T06:19:56Z</time>
      </trkpt>
      <trkpt lat="42.689266" lon="-0.075713">
        <ele>2514.8</ele>
        <time>2019-08-10T06:20:10Z</time>
      </trkpt>
      <trkpt lat="42.689157" lon="-0.075701">
        <ele>2516.2</ele>
        <time>2019-08-10T06:20:25Z</time>
      </trkpt>
      <trkpt lat="42.689071" lon="-0.075666">
        <ele>2519.1</ele>
        <time>2019-08-10T06:20:41Z</time>
      </trkpt>
      <trkpt lat="42.689034" lon="-0.075652">
        <ele>2522.1</ele>
        <time>2019-08-10T06:20:59Z</time>
      </trkpt>
      <trkpt lat="42.688994" lon="-0.075812">
        <ele>2523.6</ele>
        <time>2019-08-10T06:21:13Z</time>
      </trkpt>
      <trkpt lat="42.688950" lon="-0.075950">
        <ele>2524.5</ele>
        <time>2019-08-10T06:21:27Z</time>
      </trkpt>
      <trkpt lat="42.688916" lon="-0.076092">
        <ele>2525.6</ele>
        <time>2019-08-10T06:21:42Z</time>
      </trkpt>
      <trkpt lat="42.688853" lon="-0.076229">
        <ele>2526.8</ele>
        <time>2019-08-10T06:21:57Z</time>
      </trkpt>
      <trkpt lat="42.688797" lon="-0.076328">
        <ele>2528.7</ele>
        <time>2019-08-10T06:22:11Z</time>
      </trkpt>
      <trkpt lat="42.688756" lon="-0.076439">
        <ele>2531.6</ele>
        <time>2019-08-10T06:22:32Z</time>
      </trkpt>
      <trkpt lat="42.688735" lon="-0.076455">
        <ele>2532.2</ele>
        <time>2019-08-10T06:23:40Z</time>
      </trkpt>
      <trkpt lat="42.688709" lon="-0.076502">
        <ele>2533.5</ele>
        <time>2019-08-10T06:24:35Z</time>
      </trkpt>
      <trkpt lat="42.688644" lon="-0.076624">
        <ele>2534.8</ele>
        <time>2019-08-10T06:24:47Z</time>
      </trkpt>
      <trkpt lat="42.688569" lon="-0.076720">
        <ele>2536.3</ele>
        <time>2019-08-10T06:25:01Z</time>
      </trkpt>
      <trkpt lat="42.688495" lon="-0.076811">
        <ele>2535.6</ele>
        <time>2019-08-10T06:25:13Z</time>
      </trkpt>
      <trkpt lat="42.688433" lon="-0.076924">
        <ele>2535.8</ele>
        <time>2019-08-10T06:25:28Z</time>
      </trkpt>
      <trkpt lat="42.688364" lon="-0.077046">
        <ele>2536.8</ele>
        <time>2019-08-10T06:25:42Z</time>
      </trkpt>
      <trkpt lat="42.688284" lon="-0.077128">
        <ele>2537.4</ele>
        <time>2019-08-10T06:25:55Z</time>
      </trkpt>
      <trkpt lat="42.688221" lon="-0.077226">
        <ele>2537.3</ele>
        <time>2019-08-10T06:26:07Z</time>
      </trkpt>
      <trkpt lat="42.688183" lon="-0.077354">
        <ele>2537.3</ele>
        <time>2019-08-10T06:26:18Z</time>
      </trkpt>
      <trkpt lat="42.688150" lon="-0.077488">
        <ele>2537.0</ele>
        <time>2019-08-10T06:26:30Z</time>
      </trkpt>
      <trkpt lat="42.688087" lon="-0.077593">
        <ele>2540.0</ele>
        <time>2019-08-10T06:26:48Z</time>
      </trkpt>
      <trkpt lat="42.687992" lon="-0.077666">
        <ele>2542.9</ele>
        <time>2019-08-10T06:27:04Z</time>
      </trkpt>
      <trkpt lat="42.687956" lon="-0.077807">
        <ele>2543.6</ele>
        <time>2019-08-10T06:27:15Z</time>
      </trkpt>
      <trkpt lat="42.687947" lon="-0.077956">
        <ele>2543.9</ele>
        <time>2019-08-10T06:27:28Z</time>
      </trkpt>
      <trkpt lat="42.687939" lon="-0.078111">
        <ele>2545.7</ele>
        <time>2019-08-10T06:27:39Z</time>
      </trkpt>
      <trkpt lat="42.687939" lon="-0.078242">
        <ele>2545.2</ele>
        <time>2019-08-10T06:27:49Z</time>
      </trkpt>
      <trkpt lat="42.687893" lon="-0.078380">
        <ele>2544.2</ele>
        <time>2019-08-10T06:28:01Z</time>
      </trkpt>
      <trkpt lat="42.687872" lon="-0.078534">
        <ele>2543.3</ele>
        <time>2019-08-10T06:28:13Z</time>
      </trkpt>
      <trkpt lat="42.687852" lon="-0.078667">
        <ele>2542.1</ele>
        <time>2019-08-10T06:28:23Z</time>
      </trkpt>
      <trkpt lat="42.687850" lon="-0.078801">
        <ele>2541.6</ele>
        <time>2019-08-10T06:28:33Z</time>
      </trkpt>
      <trkpt lat="42.687869" lon="-0.078928">
        <ele>2542.6</ele>
        <time>2019-08-10T06:28:43Z</time>
      </trkpt>
      <trkpt lat="42.687890" lon="-0.079060">
        <ele>2543.3</ele>
        <time>2019-08-10T06:28:54Z</time>
      </trkpt>
      <trkpt lat="42.687892" lon="-0.079199">
        <ele>2543.3</ele>
        <time>2019-08-10T06:29:05Z</time>
      </trkpt>
      <trkpt lat="42.687814" lon="-0.079350">
        <ele>2544.4</ele>
        <time>2019-08-10T06:29:20Z</time>
      </trkpt>
      <trkpt lat="42.687690" lon="-0.079421">
        <ele>2544.6</ele>
        <time>2019-08-10T06:29:32Z</time>
      </trkpt>
      <trkpt lat="42.687606" lon="-0.079421">
        <ele>2543.3</ele>
        <time>2019-08-10T06:29:52Z</time>
      </trkpt>
      <trkpt lat="42.687546" lon="-0.079496">
        <ele>2538.6</ele>
        <time>2019-08-10T06:30:10Z</time>
      </trkpt>
      <trkpt lat="42.687449" lon="-0.079538">
        <ele>2535.7</ele>
        <time>2019-08-10T06:30:24Z</time>
      </trkpt>
      <trkpt lat="42.687392" lon="-0.079649">
        <ele>2532.8</ele>
        <time>2019-08-10T06:30:36Z</time>
      </trkpt>
      <trkpt lat="42.687334" lon="-0.079718">
        <ele>2531.5</ele>
        <time>2019-08-10T06:30:47Z</time>
      </trkpt>
      <trkpt lat="42.687328" lon="-0.079799">
        <ele>2528.7</ele>
        <time>2019-08-10T06:31:03Z</time>
      </trkpt>
      <trkpt lat="42.687254" lon="-0.079804">
        <ele>2525.2</ele>
        <time>2019-08-10T06:31:48Z</time>
      </trkpt>
      <trkpt lat="42.687189" lon="-0.079814">
        <ele>2521.8</ele>
        <time>2019-08-10T06:32:06Z</time>
      </trkpt>
      <trkpt lat="42.687118" lon="-0.079834">
        <ele>2516.7</ele>
        <time>2019-08-10T06:32:30Z</time>
      </trkpt>
      <trkpt lat="42.687045" lon="-0.079798">
        <ele>2512.2</ele>
        <time>2019-08-10T06:32:52Z</time>
      </trkpt>
      <trkpt lat="42.686962" lon="-0.079750">
        <ele>2507.4</ele>
        <time>2019-08-10T06:33:13Z</time>
      </trkpt>
      <trkpt lat="42.686859" lon="-0.079740">
        <ele>2503.3</ele>
        <time>2019-08-10T06:33:29Z</time>
      </trkpt>
      <trkpt lat="42.686772" lon="-0.079820">
        <ele>2500.6</ele>
        <time>2019-08-10T06:33:42Z</time>
      </trkpt>
      <trkpt lat="42.686684" lon="-0.079875">
        <ele>2498.6</ele>
        <time>2019-08-10T06:33:55Z</time>
      </trkpt>
      <trkpt lat="42.686591" lon="-0.079886">
        <ele>2495.9</ele>
        <time>2019-08-10T06:34:08Z</time>
      </trkpt>
      <trkpt lat="42.686491" lon="-0.079904">
        <ele>2493.0</ele>
        <time>2019-08-10T06:34:21Z</time>
      </trkpt>
      <trkpt lat="42.686459" lon="-0.079868">
        <ele>2494.4</ele>
        <time>2019-08-10T06:36:47Z</time>
      </trkpt>
      <trkpt lat="42.686356" lon="-0.079892">
        <ele>2494.3</ele>
        <time>2019-08-10T06:37:01Z</time>
      </trkpt>
      <trkpt lat="42.686277" lon="-0.079973">
        <ele>2495.3</ele>
        <time>2019-08-10T06:37:12Z</time>
      </trkpt>
      <trkpt lat="42.686189" lon="-0.079989">
        <ele>2496.6</ele>
        <time>2019-08-10T06:37:23Z</time>
      </trkpt>
      <trkpt lat="42.686088" lon="-0.080001">
        <ele>2493.6</ele>
        <time>2019-08-10T06:37:39Z</time>
      </trkpt>
      <trkpt lat="42.685991" lon="-0.079989">
        <ele>2489.5</ele>
        <time>2019-08-10T06:37:54Z</time>
      </trkpt>
      <trkpt lat="42.685915" lon="-0.079888">
        <ele>2487.7</ele>
        <time>2019-08-10T06:38:13Z</time>
      </trkpt>
      <trkpt lat="42.685831" lon="-0.080029">
        <ele>2485.4</ele>
        <time>2019-08-10T06:38:27Z</time>
      </trkpt>
      <trkpt lat="42.685761" lon="-0.080141">
        <ele>2483.9</ele>
        <time>2019-08-10T06:38:36Z</time>
      </trkpt>
      <trkpt lat="42.685670" lon="-0.080229">
        <ele>2484.9</ele>
        <time>2019-08-10T06:38:49Z</time>
      </trkpt>
      <trkpt lat="42.685598" lon="-0.080282">
        <ele>2487.0</ele>
        <time>2019-08-10T06:39:03Z</time>
      </trkpt>
      <trkpt lat="42.685556" lon="-0.080127">
        <ele>2490.6</ele>
        <time>2019-08-10T06:39:19Z</time>
      </trkpt>
      <trkpt lat="42.685491" lon="-0.080133">
        <ele>2495.1</ele>
        <time>2019-08-10T06:39:47Z</time>
      </trkpt>
      <trkpt lat="42.685432" lon="-0.080415">
        <ele>2498.5</ele>
        <time>2019-08-10T06:40:07Z</time>
      </trkpt>
      <trkpt lat="42.685370" lon="-0.080477">
        <ele>2502.6</ele>
        <time>2019-08-10T06:40:31Z</time>
      </trkpt>
      <trkpt lat="42.685336" lon="-0.080574">
        <ele>2504.5</ele>
        <time>2019-08-10T06:40:52Z</time>
      </trkpt>
      <trkpt lat="42.685244" lon="-0.080515">
        <ele>2504.0</ele>
        <time>2019-08-10T06:41:14Z</time>
      </trkpt>
      <trkpt lat="42.685152" lon="-0.080471">
        <ele>2502.4</ele>
        <time>2019-08-10T06:41:35Z</time>
      </trkpt>
      <trkpt lat="42.685055" lon="-0.080444">
        <ele>2502.2</ele>
        <time>2019-08-10T06:41:46Z</time>
      </trkpt>
      <trkpt lat="42.684937" lon="-0.080334">
        <ele>2503.4</ele>
        <time>2019-08-10T06:42:00Z</time>
      </trkpt>
      <trkpt lat="42.684852" lon="-0.080274">
        <ele>2505.9</ele>
        <time>2019-08-10T06:42:16Z</time>
      </trkpt>
      <trkpt lat="42.684776" lon="-0.080208">
        <ele>2514.9</ele>
        <time>2019-08-10T06:43:11Z</time>
      </trkpt>
      <trkpt lat="42.684693" lon="-0.080211">
        <ele>2517.6</ele>
        <time>2019-08-10T06:43:30Z</time>
      </trkpt>
      <trkpt lat="42.684648" lon="-0.080323">
        <ele>2518.6</ele>
        <time>2019-08-10T06:43:46Z</time>
      </trkpt>
      <trkpt lat="42.684590" lon="-0.080458">
        <ele>2522.7</ele>
        <time>2019-08-10T06:44:09Z</time>
      </trkpt>
      <trkpt lat="42.684556" lon="-0.080642">
        <ele>2527.0</ele>
        <time>2019-08-10T06:44:29Z</time>
      </trkpt>
      <trkpt lat="42.684536" lon="-0.080758">
        <ele>2529.7</ele>
        <time>2019-08-10T06:44:52Z</time>
      </trkpt>
      <trkpt lat="42.684498" lon="-0.080879">
        <ele>2532.1</ele>
        <time>2019-08-10T06:45:09Z</time>
      </trkpt>
      <trkpt lat="42.684496" lon="-0.081004">
        <ele>2534.9</ele>
        <time>2019-08-10T06:45:26Z</time>
      </trkpt>
      <trkpt lat="42.684489" lon="-0.081120">
        <ele>2536.9</ele>
        <time>2019-08-10T06:45:42Z</time>
      </trkpt>
      <trkpt lat="42.684469" lon="-0.081248">
        <ele>2539.9</ele>
        <time>2019-08-10T06:46:01Z</time>
      </trkpt>
      <trkpt lat="42.684437" lon="-0.081309">
        <ele>2543.7</ele>
        <time>2019-08-10T06:46:21Z</time>
      </trkpt>
      <trkpt lat="42.684429" lon="-0.081426">
        <ele>2546.7</ele>
        <time>2019-08-10T06:46:39Z</time>
      </trkpt>
      <trkpt lat="42.684372" lon="-0.081532">
        <ele>2549.1</ele>
        <time>2019-08-10T06:47:00Z</time>
      </trkpt>
      <trkpt lat="42.684309" lon="-0.081653">
        <ele>2552.8</ele>
        <time>2019-08-10T06:47:19Z</time>
      </trkpt>
      <trkpt lat="42.684308" lon="-0.081766">
        <ele>2555.8</ele>
        <time>2019-08-10T06:47:37Z</time>
      </trkpt>
      <trkpt lat="42.684345" lon="-0.081885">
        <ele>2558.3</ele>
        <time>2019-08-10T06:47:51Z</time>
      </trkpt>
      <trkpt lat="42.684344" lon="-0.081906">
        <ele>2559.0</ele>
        <time>2019-08-10T06:48:36Z</time>
      </trkpt>
      <trkpt lat="42.684267" lon="-0.081946">
        <ele>2559.9</ele>
        <time>2019-08-10T06:48:56Z</time>
      </trkpt>
      <trkpt lat="42.684163" lon="-0.081923">
        <ele>2562.9</ele>
        <time>2019-08-10T06:49:16Z</time>
      </trkpt>
      <trkpt lat="42.684062" lon="-0.081876">
        <ele>2564.5</ele>
        <time>2019-08-10T06:49:33Z</time>
      </trkpt>
      <trkpt lat="42.683981" lon="-0.081935">
        <ele>2567.1</ele>
        <time>2019-08-10T06:49:50Z</time>
      </trkpt>
      <trkpt lat="42.683889" lon="-0.081957">
        <ele>2568.9</ele>
        <time>2019-08-10T06:50:06Z</time>
      </trkpt>
      <trkpt lat="42.683783" lon="-0.081869">
        <ele>2568.8</ele>
        <time>2019-08-10T06:50:22Z</time>
      </trkpt>
      <trkpt lat="42.683683" lon="-0.081817">
        <ele>2567.7</ele>
        <time>2019-08-10T06:50:34Z</time>
      </trkpt>
      <trkpt lat="42.683607" lon="-0.081676">
        <ele>2570.6</ele>
        <time>2019-08-10T06:50:50Z</time>
      </trkpt>
      <trkpt lat="42.683529" lon="-0.081657">
        <ele>2574.1</ele>
        <time>2019-08-10T06:51:09Z</time>
      </trkpt>
      <trkpt lat="42.683458" lon="-0.081888">
        <ele>2577.1</ele>
        <time>2019-08-10T06:51:32Z</time>
      </trkpt>
      <trkpt lat="42.683373" lon="-0.081859">
        <ele>2578.8</ele>
        <time>2019-08-10T06:51:50Z</time>
      </trkpt>
      <trkpt lat="42.683277" lon="-0.081880">
        <ele>2586.7</ele>
        <time>2019-08-10T06:52:28Z</time>
      </trkpt>
      <trkpt lat="42.683252" lon="-0.081873">
        <ele>2593.9</ele>
        <time>2019-08-10T06:53:49Z</time>
      </trkpt>
      <trkpt lat="42.683151" lon="-0.081800">
        <ele>2595.0</ele>
        <time>2019-08-10T06:54:08Z</time>
      </trkpt>
      <trkpt lat="42.683047" lon="-0.081733">
        <ele>2596.9</ele>
        <time>2019-08-10T06:54:22Z</time>
      </trkpt>
      <trkpt lat="42.682929" lon="-0.081623">
        <ele>2599.7</ele>
        <time>2019-08-10T06:54:37Z</time>
      </trkpt>
      <trkpt lat="42.682834" lon="-0.081637">
        <ele>2600.3</ele>
        <time>2019-08-10T06:54:48Z</time>
      </trkpt>
      <trkpt lat="42.682745" lon="-0.081688">
        <ele>2601.8</ele>
        <time>2019-08-10T06:55:02Z</time>
      </trkpt>
      <trkpt lat="42.682710" lon="-0.081682">
        <ele>2605.1</ele>
        <time>2019-08-10T06:55:23Z</time>
      </trkpt>
      <trkpt lat="42.682655" lon="-0.081664">
        <ele>2605.4</ele>
        <time>2019-08-10T06:56:07Z</time>
      </trkpt>
      <trkpt lat="42.682601" lon="-0.081792">
        <ele>2602.6</ele>
        <time>2019-08-10T06:56:35Z</time>
      </trkpt>
      <trkpt lat="42.682556" lon="-0.082084">
        <ele>2602.5</ele>
        <time>2019-08-10T06:57:28Z</time>
      </trkpt>
      <trkpt lat="42.682527" lon="-0.082072">
        <ele>2602.2</ele>
        <time>2019-08-10T06:57:55Z</time>
      </trkpt>
      <trkpt lat="42.682424" lon="-0.082116">
        <ele>2601.7</ele>
        <time>2019-08-10T06:58:09Z</time>
      </trkpt>
      <trkpt lat="42.682381" lon="-0.082212">
        <ele>2601.3</ele>
        <time>2019-08-10T06:58:27Z</time>
      </trkpt>
      <trkpt lat="42.682292" lon="-0.082113">
        <ele>2603.7</ele>
        <time>2019-08-10T06:58:59Z</time>
      </trkpt>
      <trkpt lat="42.682278" lon="-0.082044">
        <ele>2603.3</ele>
        <time>2019-08-10T06:59:24Z</time>
      </trkpt>
      <trkpt lat="42.682229" lon="-0.081993">
        <ele>2606.0</ele>
        <time>2019-08-10T07:00:12Z</time>
      </trkpt>
      <trkpt lat="42.682178" lon="-0.082019">
        <ele>2607.6</ele>
        <time>2019-08-10T07:00:48Z</time>
      </trkpt>
      <trkpt lat="42.682119" lon="-0.082044">
        <ele>2612.8</ele>
        <time>2019-08-10T07:01:21Z</time>
      </trkpt>
      <trkpt lat="42.682014" lon="-0.082260">
        <ele>2613.9</ele>
        <time>2019-08-10T07:01:36Z</time>
      </trkpt>
      <trkpt lat="42.681910" lon="-0.082419">
        <ele>2613.9</ele>
        <time>2019-08-10T07:01:52Z</time>
      </trkpt>
      <trkpt lat="42.681800" lon="-0.082487">
        <ele>2616.1</ele>
        <time>2019-08-10T07:02:06Z</time>
      </trkpt>
      <trkpt lat="42.681678" lon="-0.082524">
        <ele>2617.7</ele>
        <time>2019-08-10T07:02:16Z</time>
      </trkpt>
      <trkpt lat="42.681594" lon="-0.082487">
        <ele>2618.6</ele>
        <time>2019-08-10T07:02:24Z</time>
      </trkpt>
      <trkpt lat="42.681514" lon="-0.082426">
        <ele>2616.5</ele>
        <time>2019-08-10T07:02:32Z</time>
      </trkpt>
      <trkpt lat="42.681419" lon="-0.082414">
        <ele>2614.9</ele>
        <time>2019-08-10T07:02:40Z</time>
      </trkpt>
      <trkpt lat="42.681323" lon="-0.082482">
        <ele>2614.0</ele>
        <time>2019-08-10T07:02:49Z</time>
      </trkpt>
      <trkpt lat="42.681248" lon="-0.082460">
        <ele>2615.7</ele>
        <time>2019-08-10T07:03:02Z</time>
      </trkpt>
      <trkpt lat="42.681168" lon="-0.082451">
        <ele>2617.1</ele>
        <time>2019-08-10T07:03:11Z</time>
      </trkpt>
      <trkpt lat="42.681082" lon="-0.082413">
        <ele>2617.1</ele>
        <time>2019-08-10T07:03:21Z</time>
      </trkpt>
      <trkpt lat="42.681028" lon="-0.082320">
        <ele>2618.3</ele>
        <time>2019-08-10T07:03:34Z</time>
      </trkpt>
      <trkpt lat="42.680942" lon="-0.082236">
        <ele>2620.5</ele>
        <time>2019-08-10T07:03:48Z</time>
      </trkpt>
      <trkpt lat="42.680862" lon="-0.082185">
        <ele>2623.5</ele>
        <time>2019-08-10T07:04:08Z</time>
      </trkpt>
      <trkpt lat="42.680774" lon="-0.082110">
        <ele>2626.1</ele>
        <time>2019-08-10T07:04:30Z</time>
      </trkpt>
      <trkpt lat="42.680663" lon="-0.082131">
        <ele>2627.4</ele>
        <time>2019-08-10T07:04:47Z</time>
      </trkpt>
      <trkpt lat="42.680578" lon="-0.082100">
        <ele>2630.2</ele>
        <time>2019-08-10T07:05:12Z</time>
      </trkpt>
      <trkpt lat="42.680482" lon="-0.082049">
        <ele>2632.7</ele>
        <time>2019-08-10T07:05:24Z</time>
      </trkpt>
      <trkpt lat="42.680428" lon="-0.081967">
        <ele>2634.7</ele>
        <time>2019-08-10T07:05:41Z</time>
      </trkpt>
      <trkpt lat="42.680329" lon="-0.082000">
        <ele>2636.6</ele>
        <time>2019-08-10T07:06:03Z</time>
      </trkpt>
      <trkpt lat="42.680225" lon="-0.082036">
        <ele>2638.2</ele>
        <time>2019-08-10T07:06:15Z</time>
      </trkpt>
      <trkpt lat="42.680120" lon="-0.082063">
        <ele>2639.6</ele>
        <time>2019-08-10T07:06:28Z</time>
      </trkpt>
      <trkpt lat="42.680025" lon="-0.082113">
        <ele>2640.5</ele>
        <time>2019-08-10T07:06:40Z</time>
      </trkpt>
      <trkpt lat="42.679929" lon="-0.082131">
        <ele>2641.8</ele>
        <time>2019-08-10T07:06:54Z</time>
      </trkpt>
      <trkpt lat="42.679833" lon="-0.082117">
        <ele>2643.5</ele>
        <time>2019-08-10T07:07:07Z</time>
      </trkpt>
      <trkpt lat="42.679769" lon="-0.082023">
        <ele>2646.1</ele>
        <time>2019-08-10T07:07:25Z</time>
      </trkpt>
      <trkpt lat="42.679764" lon="-0.081872">
        <ele>2647.4</ele>
        <time>2019-08-10T07:07:38Z</time>
      </trkpt>
      <trkpt lat="42.679735" lon="-0.081755">
        <ele>2649.0</ele>
        <time>2019-08-10T07:07:52Z</time>
      </trkpt>
      <trkpt lat="42.679721" lon="-0.081631">
        <ele>2651.9</ele>
        <time>2019-08-10T07:08:10Z</time>
      </trkpt>
      <trkpt lat="42.679750" lon="-0.081514">
        <ele>2654.5</ele>
        <time>2019-08-10T07:08:27Z</time>
      </trkpt>
      <trkpt lat="42.679752" lon="-0.081404">
        <ele>2657.7</ele>
        <time>2019-08-10T07:08:46Z</time>
      </trkpt>
      <trkpt lat="42.679715" lon="-0.081348">
        <ele>2660.8</ele>
        <time>2019-08-10T07:09:06Z</time>
      </trkpt>
      <trkpt lat="42.679690" lon="-0.081291">
        <ele>2664.3</ele>
        <time>2019-08-10T07:09:29Z</time>
      </trkpt>
      <trkpt lat="42.679633" lon="-0.081229">
        <ele>2668.0</ele>
        <time>2019-08-10T07:09:53Z</time>
      </trkpt>
      <trkpt lat="42.679611" lon="-0.081154">
        <ele>2671.1</ele>
        <time>2019-08-10T07:10:14Z</time>
      </trkpt>
      <trkpt lat="42.679594" lon="-0.081076">
        <ele>2674.4</ele>
        <time>2019-08-10T07:10:38Z</time>
      </trkpt>
      <trkpt lat="42.679531" lon="-0.080925">
        <ele>2683.4</ele>
        <time>2019-08-10T07:11:31Z</time>
      </trkpt>
      <trkpt lat="42.679494" lon="-0.080864">
        <ele>2687.4</ele>
        <time>2019-08-10T07:12:01Z</time>
      </trkpt>
      <trkpt lat="42.679479" lon="-0.080773">
        <ele>2691.1</ele>
        <time>2019-08-10T07:12:27Z</time>
      </trkpt>
      <trkpt lat="42.679447" lon="-0.080696">
        <ele>2694.4</ele>
        <time>2019-08-10T07:12:50Z</time>
      </trkpt>
      <trkpt lat="42.679430" lon="-0.080624">
        <ele>2698.1</ele>
        <time>2019-08-10T07:13:19Z</time>
      </trkpt>
      <trkpt lat="42.679388" lon="-0.080587">
        <ele>2702.3</ele>
        <time>2019-08-10T07:13:45Z</time>
      </trkpt>
      <trkpt lat="42.679343" lon="-0.080519">
        <ele>2707.3</ele>
        <time>2019-08-10T07:14:14Z</time>
      </trkpt>
      <trkpt lat="42.679310" lon="-0.080444">
        <ele>2711.9</ele>
        <time>2019-08-10T07:14:43Z</time>
      </trkpt>
      <trkpt lat="42.679235" lon="-0.080394">
        <ele>2715.4</ele>
        <time>2019-08-10T07:15:07Z</time>
      </trkpt>
      <trkpt lat="42.679147" lon="-0.080364">
        <ele>2719.9</ele>
        <time>2019-08-10T07:15:32Z</time>
      </trkpt>
      <trkpt lat="42.679080" lon="-0.080365">
        <ele>2728.6</ele>
        <time>2019-08-10T07:27:48Z</time>
      </trkpt>
      <trkpt lat="42.679019" lon="-0.080371">
        <ele>2728.6</ele>
        <time>2019-08-10T07:30:23Z</time>
      </trkpt>
      <trkpt lat="42.678929" lon="-0.080417">
        <ele>2731.1</ele>
        <time>2019-08-10T07:30:41Z</time>
      </trkpt>
      <trkpt lat="42.678833" lon="-0.080401">
        <ele>2734.3</ele>
        <time>2019-08-10T07:31:00Z</time>
      </trkpt>
      <trkpt lat="42.678750" lon="-0.080445">
        <ele>2739.2</ele>
        <time>2019-08-10T07:31:20Z</time>
      </trkpt>
      <trkpt lat="42.678709" lon="-0.080437">
        <ele>2741.6</ele>
        <time>2019-08-10T07:31:39Z</time>
      </trkpt>
      <trkpt lat="42.678630" lon="-0.080431">
        <ele>2747.3</ele>
        <time>2019-08-10T07:32:04Z</time>
      </trkpt>
      <trkpt lat="42.678539" lon="-0.080476">
        <ele>2749.8</ele>
        <time>2019-08-10T07:32:22Z</time>
      </trkpt>
      <trkpt lat="42.678475" lon="-0.080483">
        <ele>2754.4</ele>
        <time>2019-08-10T07:32:51Z</time>
      </trkpt>
      <trkpt lat="42.678402" lon="-0.080452">
        <ele>2758.2</ele>
        <time>2019-08-10T07:33:13Z</time>
      </trkpt>
      <trkpt lat="42.678319" lon="-0.080463">
        <ele>2761.7</ele>
        <time>2019-08-10T07:33:33Z</time>
      </trkpt>
      <trkpt lat="42.678246" lon="-0.080497">
        <ele>2764.5</ele>
        <time>2019-08-10T07:33:51Z</time>
      </trkpt>
      <trkpt lat="42.678206" lon="-0.080558">
        <ele>2767.9</ele>
        <time>2019-08-10T07:34:12Z</time>
      </trkpt>
      <trkpt lat="42.678145" lon="-0.080533">
        <ele>2772.0</ele>
        <time>2019-08-10T07:34:36Z</time>
      </trkpt>
      <trkpt lat="42.678084" lon="-0.080604">
        <ele>2775.7</ele>
        <time>2019-08-10T07:34:57Z</time>
      </trkpt>
      <trkpt lat="42.678027" lon="-0.080674">
        <ele>2777.9</ele>
        <time>2019-08-10T07:35:13Z</time>
      </trkpt>
      <trkpt lat="42.677944" lon="-0.080727">
        <ele>2779.4</ele>
        <time>2019-08-10T07:35:30Z</time>
      </trkpt>
      <trkpt lat="42.677859" lon="-0.080757">
        <ele>2783.8</ele>
        <time>2019-08-10T07:35:54Z</time>
      </trkpt>
      <trkpt lat="42.677794" lon="-0.080728">
        <ele>2788.9</ele>
        <time>2019-08-10T07:36:22Z</time>
      </trkpt>
      <trkpt lat="42.677712" lon="-0.080754">
        <ele>2792.2</ele>
        <time>2019-08-10T07:36:43Z</time>
      </trkpt>
      <trkpt lat="42.677634" lon="-0.080694">
        <ele>2798.9</ele>
        <time>2019-08-10T07:37:29Z</time>
      </trkpt>
      <trkpt lat="42.677539" lon="-0.080659">
        <ele>2808.2</ele>
        <time>2019-08-10T07:38:28Z</time>
      </trkpt>
      <trkpt lat="42.677468" lon="-0.080718">
        <ele>2811.0</ele>
        <time>2019-08-10T07:38:43Z</time>
      </trkpt>
      <trkpt lat="42.677434" lon="-0.080701">
        <ele>2814.1</ele>
        <time>2019-08-10T07:39:09Z</time>
      </trkpt>
      <trkpt lat="42.677357" lon="-0.080694">
        <ele>2818.6</ele>
        <time>2019-08-10T07:39:28Z</time>
      </trkpt>
      <trkpt lat="42.677230" lon="-0.080701">
        <ele>2822.2</ele>
        <time>2019-08-10T07:40:07Z</time>
      </trkpt>
      <trkpt lat="42.677191" lon="-0.080777">
        <ele>2825.7</ele>
        <time>2019-08-10T07:40:29Z</time>
      </trkpt>
      <trkpt lat="42.677130" lon="-0.080804">
        <ele>2828.0</ele>
        <time>2019-08-10T07:40:50Z</time>
      </trkpt>
      <trkpt lat="42.677044" lon="-0.080769">
        <ele>2831.4</ele>
        <time>2019-08-10T07:41:09Z</time>
      </trkpt>
      <trkpt lat="42.676936" lon="-0.080751">
        <ele>2833.6</ele>
        <time>2019-08-10T07:41:25Z</time>
      </trkpt>
      <trkpt lat="42.676859" lon="-0.080686">
        <ele>2835.9</ele>
        <time>2019-08-10T07:42:55Z</time>
      </trkpt>
      <trkpt lat="42.676852" lon="-0.080679">
        <ele>2836.0</ele>
        <time>2019-08-10T07:45:29Z</time>
      </trkpt>
      <trkpt lat="42.676805" lon="-0.080659">
        <ele>2835.6</ele>
        <time>2019-08-10T07:45:56Z</time>
      </trkpt>
      <trkpt lat="42.676721" lon="-0.080704">
        <ele>2836.5</ele>
        <time>2019-08-10T07:46:15Z</time>
      </trkpt>
      <trkpt lat="42.676617" lon="-0.080749">
        <ele>2834.1</ele>
        <time>2019-08-10T07:46:29Z</time>
      </trkpt>
      <trkpt lat="42.676530" lon="-0.080798">
        <ele>2831.9</ele>
        <time>2019-08-10T07:46:44Z</time>
      </trkpt>
      <trkpt lat="42.676438" lon="-0.080843">
        <ele>2827.6</ele>
        <time>2019-08-10T07:46:59Z</time>
      </trkpt>
      <trkpt lat="42.676351" lon="-0.080854">
        <ele>2825.8</ele>
        <time>2019-08-10T07:47:13Z</time>
      </trkpt>
      <trkpt lat="42.676261" lon="-0.080878">
        <ele>2826.6</ele>
        <time>2019-08-10T07:47:29Z</time>
      </trkpt>
      <trkpt lat="42.676230" lon="-0.080857">
        <ele>2817.6</ele>
        <time>2019-08-10T07:49:15Z</time>
      </trkpt>
      <trkpt lat="42.676158" lon="-0.080814">
        <ele>2818.9</ele>
        <time>2019-08-10T07:49:48Z</time>
      </trkpt>
      <trkpt lat="42.676087" lon="-0.080892">
        <ele>2820.5</ele>
        <time>2019-08-10T07:50:16Z</time>
      </trkpt>
      <trkpt lat="42.676034" lon="-0.081009">
        <ele>2814.2</ele>
        <time>2019-08-10T07:50:28Z</time>
      </trkpt>
      <trkpt lat="42.675977" lon="-0.081088">
        <ele>2811.9</ele>
        <time>2019-08-10T07:50:42Z</time>
      </trkpt>
      <trkpt lat="42.675896" lon="-0.081133">
        <ele>2806.5</ele>
        <time>2019-08-10T07:51:01Z</time>
      </trkpt>
      <trkpt lat="42.675857" lon="-0.081211">
        <ele>2797.6</ele>
        <time>2019-08-10T07:51:19Z</time>
      </trkpt>
      <trkpt lat="42.675847" lon="-0.081310">
        <ele>2794.1</ele>
        <time>2019-08-10T07:51:36Z</time>
      </trkpt>
      <trkpt lat="42.675844" lon="-0.081409">
        <ele>2787.0</ele>
        <time>2019-08-10T07:51:58Z</time>
      </trkpt>
      <trkpt lat="42.675794" lon="-0.081457">
        <ele>2784.2</ele>
        <time>2019-08-10T07:52:18Z</time>
      </trkpt>
      <trkpt lat="42.675766" lon="-0.081551">
        <ele>2778.9</ele>
        <time>2019-08-10T07:52:41Z</time>
      </trkpt>
      <trkpt lat="42.675729" lon="-0.081613">
        <ele>2773.2</ele>
        <time>2019-08-10T07:53:01Z</time>
      </trkpt>
      <trkpt lat="42.675751" lon="-0.081686">
        <ele>2772.6</ele>
        <time>2019-08-10T07:53:48Z</time>
      </trkpt>
      <trkpt lat="42.675728" lon="-0.081795">
        <ele>2767.4</ele>
        <time>2019-08-10T07:54:07Z</time>
      </trkpt>
      <trkpt lat="42.675740" lon="-0.081901">
        <ele>2762.2</ele>
        <time>2019-08-10T07:54:24Z</time>
      </trkpt>
      <trkpt lat="42.675745" lon="-0.082009">
        <ele>2757.6</ele>
        <time>2019-08-10T07:54:37Z</time>
      </trkpt>
      <trkpt lat="42.675672" lon="-0.082100">
        <ele>2751.7</ele>
        <time>2019-08-10T07:54:50Z</time>
      </trkpt>
      <trkpt lat="42.675636" lon="-0.082193">
        <ele>2746.7</ele>
        <time>2019-08-10T07:55:05Z</time>
      </trkpt>
      <trkpt lat="42.675640" lon="-0.082291">
        <ele>2740.4</ele>
        <time>2019-08-10T07:55:24Z</time>
      </trkpt>
      <trkpt lat="42.675597" lon="-0.082396">
        <ele>2734.4</ele>
        <time>2019-08-10T07:55:45Z</time>
      </trkpt>
      <trkpt lat="42.675525" lon="-0.082479">
        <ele>2729.7</ele>
        <time>2019-08-10T07:56:02Z</time>
      </trkpt>
      <trkpt lat="42.675485" lon="-0.082574">
        <ele>2724.8</ele>
        <time>2019-08-10T07:56:21Z</time>
      </trkpt>
      <trkpt lat="42.675409" lon="-0.082651">
        <ele>2720.8</ele>
        <time>2019-08-10T07:56:36Z</time>
      </trkpt>
      <trkpt lat="42.675389" lon="-0.082758">
        <ele>2716.4</ele>
        <time>2019-08-10T07:56:54Z</time>
      </trkpt>
      <trkpt lat="42.675343" lon="-0.082849">
        <ele>2711.9</ele>
        <time>2019-08-10T07:57:14Z</time>
      </trkpt>
      <trkpt lat="42.675326" lon="-0.082930">
        <ele>2707.3</ele>
        <time>2019-08-10T07:57:31Z</time>
      </trkpt>
      <trkpt lat="42.675259" lon="-0.083023">
        <ele>2703.7</ele>
        <time>2019-08-10T07:57:46Z</time>
      </trkpt>
      <trkpt lat="42.675187" lon="-0.083105">
        <ele>2700.5</ele>
        <time>2019-08-10T07:57:58Z</time>
      </trkpt>
      <trkpt lat="42.675098" lon="-0.083145">
        <ele>2697.2</ele>
        <time>2019-08-10T07:58:12Z</time>
      </trkpt>
      <trkpt lat="42.675016" lon="-0.083212">
        <ele>2693.5</ele>
        <time>2019-08-10T07:58:27Z</time>
      </trkpt>
      <trkpt lat="42.674998" lon="-0.083318">
        <ele>2688.9</ele>
        <time>2019-08-10T07:58:41Z</time>
      </trkpt>
      <trkpt lat="42.675007" lon="-0.083440">
        <ele>2685.5</ele>
        <time>2019-08-10T07:58:56Z</time>
      </trkpt>
      <trkpt lat="42.674945" lon="-0.083525">
        <ele>2682.1</ele>
        <time>2019-08-10T07:59:11Z</time>
      </trkpt>
      <trkpt lat="42.674885" lon="-0.083617">
        <ele>2679.2</ele>
        <time>2019-08-10T07:59:24Z</time>
      </trkpt>
      <trkpt lat="42.674866" lon="-0.083732">
        <ele>2675.9</ele>
        <time>2019-08-10T07:59:37Z</time>
      </trkpt>
      <trkpt lat="42.674810" lon="-0.083817">
        <ele>2672.5</ele>
        <time>2019-08-10T07:59:51Z</time>
      </trkpt>
      <trkpt lat="42.674762" lon="-0.083920">
        <ele>2669.7</ele>
        <time>2019-08-10T08:00:04Z</time>
      </trkpt>
      <trkpt lat="42.674748" lon="-0.084016">
        <ele>2665.2</ele>
        <time>2019-08-10T08:00:19Z</time>
      </trkpt>
      <trkpt lat="42.674730" lon="-0.084043">
        <ele>2665.5</ele>
        <time>2019-08-10T08:03:58Z</time>
      </trkpt>
      <trkpt lat="42.674720" lon="-0.084058">
        <ele>2666.4</ele>
        <time>2019-08-10T08:04:42Z</time>
      </trkpt>
      <trkpt lat="42.674692" lon="-0.084169">
        <ele>2664.3</ele>
        <time>2019-08-10T08:05:08Z</time>
      </trkpt>
      <trkpt lat="42.674639" lon="-0.084268">
        <ele>2661.1</ele>
        <time>2019-08-10T08:05:20Z</time>
      </trkpt>
      <trkpt lat="42.674599" lon="-0.084377">
        <ele>2658.9</ele>
        <time>2019-08-10T08:05:34Z</time>
      </trkpt>
      <trkpt lat="42.674546" lon="-0.084485">
        <ele>2656.7</ele>
        <time>2019-08-10T08:05:45Z</time>
      </trkpt>
      <trkpt lat="42.674491" lon="-0.084576">
        <ele>2655.2</ele>
        <time>2019-08-10T08:05:56Z</time>
      </trkpt>
      <trkpt lat="42.674496" lon="-0.084672">
        <ele>2652.6</ele>
        <time>2019-08-10T08:06:09Z</time>
      </trkpt>
      <trkpt lat="42.674536" lon="-0.084748">
        <ele>2648.8</ele>
        <time>2019-08-10T08:06:28Z</time>
      </trkpt>
      <trkpt lat="42.674562" lon="-0.084867">
        <ele>2643.6</ele>
        <time>2019-08-10T08:06:47Z</time>
      </trkpt>
      <trkpt lat="42.674617" lon="-0.084946">
        <ele>2639.1</ele>
        <time>2019-08-10T08:07:03Z</time>
      </trkpt>
      <trkpt lat="42.674601" lon="-0.085061">
        <ele>2635.9</ele>
        <time>2019-08-10T08:07:19Z</time>
      </trkpt>
      <trkpt lat="42.674603" lon="-0.085185">
        <ele>2631.8</ele>
        <time>2019-08-10T08:07:38Z</time>
      </trkpt>
      <trkpt lat="42.674622" lon="-0.085250">
        <ele>2627.5</ele>
        <time>2019-08-10T08:07:59Z</time>
      </trkpt>
      <trkpt lat="42.674632" lon="-0.085341">
        <ele>2622.9</ele>
        <time>2019-08-10T08:08:15Z</time>
      </trkpt>
      <trkpt lat="42.674637" lon="-0.085464">
        <ele>2618.9</ele>
        <time>2019-08-10T08:08:29Z</time>
      </trkpt>
      <trkpt lat="42.674623" lon="-0.085581">
        <ele>2617.0</ele>
        <time>2019-08-10T08:08:40Z</time>
      </trkpt>
      <trkpt lat="42.674581" lon="-0.085686">
        <ele>2613.8</ele>
        <time>2019-08-10T08:08:56Z</time>
      </trkpt>
      <trkpt lat="42.674552" lon="-0.085758">
        <ele>2612.6</ele>
        <time>2019-08-10T08:09:27Z</time>
      </trkpt>
      <trkpt lat="42.674547" lon="-0.085889">
        <ele>2610.2</ele>
        <time>2019-08-10T08:09:40Z</time>
      </trkpt>
      <trkpt lat="42.674563" lon="-0.086011">
        <ele>2606.5</ele>
        <time>2019-08-10T08:10:02Z</time>
      </trkpt>
      <trkpt lat="42.674519" lon="-0.086103">
        <ele>2604.4</ele>
        <time>2019-08-10T08:10:17Z</time>
      </trkpt>
      <trkpt lat="42.674467" lon="-0.086156">
        <ele>2601.4</ele>
        <time>2019-08-10T08:12:25Z</time>
      </trkpt>
      <trkpt lat="42.674487" lon="-0.086293">
        <ele>2597.2</ele>
        <time>2019-08-10T08:12:52Z</time>
      </trkpt>
      <trkpt lat="42.674573" lon="-0.086351">
        <ele>2594.7</ele>
        <time>2019-08-10T08:13:07Z</time>
      </trkpt>
      <trkpt lat="42.674544" lon="-0.086577">
        <ele>2589.1</ele>
        <time>2019-08-10T08:13:37Z</time>
      </trkpt>
      <trkpt lat="42.674459" lon="-0.086715">
        <ele>2585.1</ele>
        <time>2019-08-10T08:13:57Z</time>
      </trkpt>
      <trkpt lat="42.674476" lon="-0.086845">
        <ele>2583.2</ele>
        <time>2019-08-10T08:14:09Z</time>
      </trkpt>
      <trkpt lat="42.674470" lon="-0.086949">
        <ele>2579.9</ele>
        <time>2019-08-10T08:14:25Z</time>
      </trkpt>
      <trkpt lat="42.674531" lon="-0.087056">
        <ele>2576.9</ele>
        <time>2019-08-10T08:14:42Z</time>
      </trkpt>
      <trkpt lat="42.674612" lon="-0.087147">
        <ele>2575.7</ele>
        <time>2019-08-10T08:14:57Z</time>
      </trkpt>
      <trkpt lat="42.674638" lon="-0.087275">
        <ele>2575.0</ele>
        <time>2019-08-10T08:15:10Z</time>
      </trkpt>
      <trkpt lat="42.674620" lon="-0.087407">
        <ele>2573.1</ele>
        <time>2019-08-10T08:15:30Z</time>
      </trkpt>
      <trkpt lat="42.674554" lon="-0.087492">
        <ele>2571.8</ele>
        <time>2019-08-10T08:15:41Z</time>
      </trkpt>
      <trkpt lat="42.674472" lon="-0.087521">
        <ele>2568.8</ele>
        <time>2019-08-10T08:15:51Z</time>
      </trkpt>
      <trkpt lat="42.674378" lon="-0.087577">
        <ele>2565.8</ele>
        <time>2019-08-10T08:16:02Z</time>
      </trkpt>
      <trkpt lat="42.674301" lon="-0.087686">
        <ele>2564.6</ele>
        <time>2019-08-10T08:16:11Z</time>
      </trkpt>
      <trkpt lat="42.674231" lon="-0.087780">
        <ele>2565.1</ele>
        <time>2019-08-10T08:16:23Z</time>
      </trkpt>
      <trkpt lat="42.674165" lon="-0.087873">
        <ele>2565.0</ele>
        <time>2019-08-10T08:16:34Z</time>
      </trkpt>
      <trkpt lat="42.674055" lon="-0.087871">
        <ele>2564.6</ele>
        <time>2019-08-10T08:17:08Z</time>
      </trkpt>
      <trkpt lat="42.673963" lon="-0.087926">
        <ele>2563.8</ele>
        <time>2019-08-10T08:17:16Z</time>
      </trkpt>
      <trkpt lat="42.673880" lon="-0.087962">
        <ele>2563.9</ele>
        <time>2019-08-10T08:17:26Z</time>
      </trkpt>
      <trkpt lat="42.673801" lon="-0.087901">
        <ele>2563.9</ele>
        <time>2019-08-10T08:17:44Z</time>
      </trkpt>
      <trkpt lat="42.673718" lon="-0.087881">
        <ele>2563.2</ele>
        <time>2019-08-10T08:17:55Z</time>
      </trkpt>
      <trkpt lat="42.673709" lon="-0.087889">
        <ele>2563.4</ele>
        <time>2019-08-10T08:19:29Z</time>
      </trkpt>
      <trkpt lat="42.673622" lon="-0.087810">
        <ele>2563.3</ele>
        <time>2019-08-10T08:19:42Z</time>
      </trkpt>
      <trkpt lat="42.673539" lon="-0.087729">
        <ele>2562.3</ele>
        <time>2019-08-10T08:19:55Z</time>
      </trkpt>
      <trkpt lat="42.673469" lon="-0.087631">
        <ele>2560.8</ele>
        <time>2019-08-10T08:20:09Z</time>
      </trkpt>
      <trkpt lat="42.673425" lon="-0.087515">
        <ele>2559.1</ele>
        <time>2019-08-10T08:20:26Z</time>
      </trkpt>
      <trkpt lat="42.673419" lon="-0.087476">
        <ele>2556.3</ele>
        <time>2019-08-10T08:21:33Z</time>
      </trkpt>
      <trkpt lat="42.673357" lon="-0.087371">
        <ele>2556.1</ele>
        <time>2019-08-10T08:22:09Z</time>
      </trkpt>
      <trkpt lat="42.673285" lon="-0.087354">
        <ele>2554.3</ele>
        <time>2019-08-10T08:23:08Z</time>
      </trkpt>
      <trkpt lat="42.673167" lon="-0.087291">
        <ele>2551.9</ele>
        <time>2019-08-10T08:23:22Z</time>
      </trkpt>
      <trkpt lat="42.673059" lon="-0.087299">
        <ele>2550.2</ele>
        <time>2019-08-10T08:23:35Z</time>
      </trkpt>
      <trkpt lat="42.672957" lon="-0.087328">
        <ele>2547.8</ele>
        <time>2019-08-10T08:23:47Z</time>
      </trkpt>
      <trkpt lat="42.672863" lon="-0.087357">
        <ele>2545.2</ele>
        <time>2019-08-10T08:23:55Z</time>
      </trkpt>
      <trkpt lat="42.672817" lon="-0.087424">
        <ele>2545.8</ele>
        <time>2019-08-10T08:24:10Z</time>
      </trkpt>
      <trkpt lat="42.672742" lon="-0.087459">
        <ele>2545.1</ele>
        <time>2019-08-10T08:24:59Z</time>
      </trkpt>
      <trkpt lat="42.672696" lon="-0.087544">
        <ele>2541.2</ele>
        <time>2019-08-10T08:25:15Z</time>
      </trkpt>
      <trkpt lat="42.672631" lon="-0.087536">
        <ele>2538.4</ele>
        <time>2019-08-10T08:25:40Z</time>
      </trkpt>
      <trkpt lat="42.672535" lon="-0.087554">
        <ele>2537.0</ele>
        <time>2019-08-10T08:25:53Z</time>
      </trkpt>
      <trkpt lat="42.672446" lon="-0.087591">
        <ele>2533.1</ele>
        <time>2019-08-10T08:26:12Z</time>
      </trkpt>
      <trkpt lat="42.672371" lon="-0.087678">
        <ele>2530.8</ele>
        <time>2019-08-10T08:26:36Z</time>
      </trkpt>
      <trkpt lat="42.672312" lon="-0.087697">
        <ele>2533.5</ele>
        <time>2019-08-10T08:28:00Z</time>
      </trkpt>
      <trkpt lat="42.672227" lon="-0.087666">
        <ele>2533.3</ele>
        <time>2019-08-10T08:28:28Z</time>
      </trkpt>
      <trkpt lat="42.672170" lon="-0.087593">
        <ele>2532.4</ele>
        <time>2019-08-10T08:28:43Z</time>
      </trkpt>
      <trkpt lat="42.672149" lon="-0.087507">
        <ele>2531.9</ele>
        <time>2019-08-10T08:28:56Z</time>
      </trkpt>
      <trkpt lat="42.672088" lon="-0.087434">
        <ele>2531.8</ele>
        <time>2019-08-10T08:29:13Z</time>
      </trkpt>
      <trkpt lat="42.672023" lon="-0.087371">
        <ele>2534.3</ele>
        <time>2019-08-10T08:29:39Z</time>
      </trkpt>
      <trkpt lat="42.671999" lon="-0.087313">
        <ele>2534.3</ele>
        <time>2019-08-10T08:30:04Z</time>
      </trkpt>
      <trkpt lat="42.672012" lon="-0.087317">
        <ele>2533.1</ele>
        <time>2019-08-10T08:30:18Z</time>
      </trkpt>
      <trkpt lat="42.672003" lon="-0.087278">
        <ele>2531.3</ele>
        <time>2019-08-10T08:30:42Z</time>
      </trkpt>
      <trkpt lat="42.671992" lon="-0.087178">
        <ele>2530.3</ele>
        <time>2019-08-10T08:31:05Z</time>
      </trkpt>
      <trkpt lat="42.671999" lon="-0.087136">
        <ele>2528.3</ele>
        <time>2019-08-10T08:32:31Z</time>
      </trkpt>
      <trkpt lat="42.672042" lon="-0.087062">
        <ele>2528.3</ele>
        <time>2019-08-10T08:33:11Z</time>
      </trkpt>
      <trkpt lat="42.672031" lon="-0.087045">
        <ele>2527.7</ele>
        <time>2019-08-10T08:33:43Z</time>
      </trkpt>
      <trkpt lat="42.671972" lon="-0.086932">
        <ele>2525.4</ele>
        <time>2019-08-10T08:34:00Z</time>
      </trkpt>
      <trkpt lat="42.671900" lon="-0.086854">
        <ele>2523.2</ele>
        <time>2019-08-10T08:34:21Z</time>
      </trkpt>
      <trkpt lat="42.671835" lon="-0.086834">
        <ele>2519.4</ele>
        <time>2019-08-10T08:34:38Z</time>
      </trkpt>
      <trkpt lat="42.671766" lon="-0.086895">
        <ele>2520.8</ele>
        <time>2019-08-10T08:35:18Z</time>
      </trkpt>
      <trkpt lat="42.671714" lon="-0.086783">
        <ele>2519.1</ele>
        <time>2019-08-10T08:35:31Z</time>
      </trkpt>
      <trkpt lat="42.671620" lon="-0.086704">
        <ele>2515.5</ele>
        <time>2019-08-10T08:35:51Z</time>
      </trkpt>
      <trkpt lat="42.671520" lon="-0.086631">
        <ele>2513.3</ele>
        <time>2019-08-10T08:36:05Z</time>
      </trkpt>
      <trkpt lat="42.671527" lon="-0.086467">
        <ele>2512.1</ele>
        <time>2019-08-10T08:36:16Z</time>
      </trkpt>
      <trkpt lat="42.671525" lon="-0.086436">
        <ele>2511.4</ele>
        <time>2019-08-10T08:37:01Z</time>
      </trkpt>
      <trkpt lat="42.671475" lon="-0.086326">
        <ele>2510.6</ele>
        <time>2019-08-10T08:38:18Z</time>
      </trkpt>
      <trkpt lat="42.671435" lon="-0.086238">
        <ele>2509.9</ele>
        <time>2019-08-10T08:38:42Z</time>
      </trkpt>
      <trkpt lat="42.671378" lon="-0.086180">
        <ele>2509.2</ele>
        <time>2019-08-10T08:39:04Z</time>
      </trkpt>
      <trkpt lat="42.671352" lon="-0.086083">
        <ele>2508.9</ele>
        <time>2019-08-10T08:39:19Z</time>
      </trkpt>
      <trkpt lat="42.671271" lon="-0.086023">
        <ele>2508.6</ele>
        <time>2019-08-10T08:39:48Z</time>
      </trkpt>
      <trkpt lat="42.671189" lon="-0.085967">
        <ele>2508.9</ele>
        <time>2019-08-10T08:39:59Z</time>
      </trkpt>
      <trkpt lat="42.671131" lon="-0.085870">
        <ele>2508.8</ele>
        <time>2019-08-10T08:40:16Z</time>
      </trkpt>
      <trkpt lat="42.671169" lon="-0.085799">
        <ele>2507.7</ele>
        <time>2019-08-10T08:40:48Z</time>
      </trkpt>
      <trkpt lat="42.671244" lon="-0.085841">
        <ele>2508.8</ele>
        <time>2019-08-10T08:41:30Z</time>
      </trkpt>
      <trkpt lat="42.671340" lon="-0.085787">
        <ele>2508.4</ele>
        <time>2019-08-10T08:41:48Z</time>
      </trkpt>
      <trkpt lat="42.671433" lon="-0.085744">
        <ele>2508.1</ele>
        <time>2019-08-10T08:42:20Z</time>
      </trkpt>
      <trkpt lat="42.671542" lon="-0.085678">
        <ele>2506.8</ele>
        <time>2019-08-10T08:42:38Z</time>
      </trkpt>
      <trkpt lat="42.671633" lon="-0.085595">
        <ele>2505.9</ele>
        <time>2019-08-10T08:42:55Z</time>
      </trkpt>
      <trkpt lat="42.671706" lon="-0.085542">
        <ele>2504.7</ele>
        <time>2019-08-10T08:43:19Z</time>
      </trkpt>
      <trkpt lat="42.671765" lon="-0.085492">
        <ele>2505.0</ele>
        <time>2019-08-10T08:43:39Z</time>
      </trkpt>
      <trkpt lat="42.671815" lon="-0.085461">
        <ele>2504.2</ele>
        <time>2019-08-10T08:44:31Z</time>
      </trkpt>
      <trkpt lat="42.671779" lon="-0.085387">
        <ele>2502.0</ele>
        <time>2019-08-10T08:44:57Z</time>
      </trkpt>
      <trkpt lat="42.671737" lon="-0.085304">
        <ele>2499.9</ele>
        <time>2019-08-10T08:45:20Z</time>
      </trkpt>
      <trkpt lat="42.671764" lon="-0.085191">
        <ele>2499.8</ele>
        <time>2019-08-10T08:45:44Z</time>
      </trkpt>
      <trkpt lat="42.671763" lon="-0.085059">
        <ele>2500.3</ele>
        <time>2019-08-10T08:45:59Z</time>
      </trkpt>
      <trkpt lat="42.671831" lon="-0.085019">
        <ele>2502.8</ele>
        <time>2019-08-10T08:48:03Z</time>
      </trkpt>
      <trkpt lat="42.671915" lon="-0.084983">
        <ele>2503.2</ele>
        <time>2019-08-10T08:48:20Z</time>
      </trkpt>
      <trkpt lat="42.672040" lon="-0.084979">
        <ele>2503.9</ele>
        <time>2019-08-10T08:48:36Z</time>
      </trkpt>
      <trkpt lat="42.672173" lon="-0.085010">
        <ele>2504.5</ele>
        <time>2019-08-10T08:48:50Z</time>
      </trkpt>
      <trkpt lat="42.672197" lon="-0.084755">
        <ele>2504.2</ele>
        <time>2019-08-10T08:49:06Z</time>
      </trkpt>
      <trkpt lat="42.672260" lon="-0.084714">
        <ele>2505.5</ele>
        <time>2019-08-10T08:49:22Z</time>
      </trkpt>
      <trkpt lat="42.672353" lon="-0.084690">
        <ele>2508.8</ele>
        <time>2019-08-10T08:49:40Z</time>
      </trkpt>
      <trkpt lat="42.672408" lon="-0.084579">
        <ele>2510.4</ele>
        <time>2019-08-10T08:49:55Z</time>
      </trkpt>
      <trkpt lat="42.672515" lon="-0.084426">
        <ele>2512.0</ele>
        <time>2019-08-10T08:50:07Z</time>
      </trkpt>
      <trkpt lat="42.672575" lon="-0.084339">
        <ele>2512.4</ele>
        <time>2019-08-10T08:50:22Z</time>
      </trkpt>
      <trkpt lat="42.672615" lon="-0.084350">
        <ele>2511.9</ele>
        <time>2019-08-10T08:50:38Z</time>
      </trkpt>
      <trkpt lat="42.672661" lon="-0.084231">
        <ele>2511.4</ele>
        <time>2019-08-10T08:50:55Z</time>
      </trkpt>
      <trkpt lat="42.672719" lon="-0.084131">
        <ele>2510.6</ele>
        <time>2019-08-10T08:51:14Z</time>
      </trkpt>
      <trkpt lat="42.672817" lon="-0.084093">
        <ele>2508.6</ele>
        <time>2019-08-10T08:51:38Z</time>
      </trkpt>
      <trkpt lat="42.672886" lon="-0.083994">
        <ele>2509.2</ele>
        <time>2019-08-10T08:51:55Z</time>
      </trkpt>
      <trkpt lat="42.672947" lon="-0.083889">
        <ele>2512.0</ele>
        <time>2019-08-10T08:52:12Z</time>
      </trkpt>
      <trkpt lat="42.672960" lon="-0.083881">
        <ele>2514.2</ele>
        <time>2019-08-10T08:52:41Z</time>
      </trkpt>
      <trkpt lat="42.672935" lon="-0.083837">
        <ele>2510.9</ele>
        <time>2019-08-10T08:54:21Z</time>
      </trkpt>
      <trkpt lat="42.672907" lon="-0.083725">
        <ele>2510.5</ele>
        <time>2019-08-10T08:54:32Z</time>
      </trkpt>
      <trkpt lat="42.672899" lon="-0.083599">
        <ele>2509.8</ele>
        <time>2019-08-10T08:54:45Z</time>
      </trkpt>
      <trkpt lat="42.672851" lon="-0.083473">
        <ele>2508.4</ele>
        <time>2019-08-10T08:55:01Z</time>
      </trkpt>
      <trkpt lat="42.672795" lon="-0.083372">
        <ele>2506.6</ele>
        <time>2019-08-10T08:55:13Z</time>
      </trkpt>
      <trkpt lat="42.672789" lon="-0.083262">
        <ele>2504.6</ele>
        <time>2019-08-10T08:55:32Z</time>
      </trkpt>
      <trkpt lat="42.672752" lon="-0.083148">
        <ele>2504.2</ele>
        <time>2019-08-10T08:55:46Z</time>
      </trkpt>
      <trkpt lat="42.672726" lon="-0.083034">
        <ele>2503.5</ele>
        <time>2019-08-10T08:55:59Z</time>
      </trkpt>
      <trkpt lat="42.672675" lon="-0.082951">
        <ele>2502.5</ele>
        <time>2019-08-10T08:56:24Z</time>
      </trkpt>
      <trkpt lat="42.672643" lon="-0.082836">
        <ele>2501.7</ele>
        <time>2019-08-10T08:56:42Z</time>
      </trkpt>
      <trkpt lat="42.672570" lon="-0.082762">
        <ele>2500.3</ele>
        <time>2019-08-10T08:56:55Z</time>
      </trkpt>
      <trkpt lat="42.672493" lon="-0.082699">
        <ele>2500.2</ele>
        <time>2019-08-10T08:57:09Z</time>
      </trkpt>
      <trkpt lat="42.672492" lon="-0.082645">
        <ele>2501.0</ele>
        <time>2019-08-10T08:57:42Z</time>
      </trkpt>
      <trkpt lat="42.672511" lon="-0.082560">
        <ele>2500.1</ele>
        <time>2019-08-10T08:58:22Z</time>
      </trkpt>
      <trkpt lat="42.672473" lon="-0.082499">
        <ele>2497.5</ele>
        <time>2019-08-10T08:58:49Z</time>
      </trkpt>
      <trkpt lat="42.672405" lon="-0.082392">
        <ele>2496.5</ele>
        <time>2019-08-10T08:59:10Z</time>
      </trkpt>
      <trkpt lat="42.672374" lon="-0.082290">
        <ele>2494.9</ele>
        <time>2019-08-10T08:59:25Z</time>
      </trkpt>
      <trkpt lat="42.672326" lon="-0.082175">
        <ele>2493.0</ele>
        <time>2019-08-10T08:59:37Z</time>
      </trkpt>
      <trkpt lat="42.672281" lon="-0.082070">
        <ele>2491.8</ele>
        <time>2019-08-10T08:59:48Z</time>
      </trkpt>
      <trkpt lat="42.672220" lon="-0.081978">
        <ele>2490.5</ele>
        <time>2019-08-10T08:59:59Z</time>
      </trkpt>
      <trkpt lat="42.672121" lon="-0.081966">
        <ele>2490.1</ele>
        <time>2019-08-10T09:00:11Z</time>
      </trkpt>
      <trkpt lat="42.672084" lon="-0.081979">
        <ele>2490.7</ele>
        <time>2019-08-10T09:00:33Z</time>
      </trkpt>
      <trkpt lat="42.672066" lon="-0.081853">
        <ele>2489.5</ele>
        <time>2019-08-10T09:00:56Z</time>
      </trkpt>
      <trkpt lat="42.672017" lon="-0.081808">
        <ele>2489.8</ele>
        <time>2019-08-10T09:02:37Z</time>
      </trkpt>
      <trkpt lat="42.671989" lon="-0.081692">
        <ele>2487.8</ele>
        <time>2019-08-10T09:02:51Z</time>
      </trkpt>
      <trkpt lat="42.671995" lon="-0.081549">
        <ele>2484.4</ele>
        <time>2019-08-10T09:03:07Z</time>
      </trkpt>
      <trkpt lat="42.672065" lon="-0.081458">
        <ele>2483.2</ele>
        <time>2019-08-10T09:03:23Z</time>
      </trkpt>
      <trkpt lat="42.672127" lon="-0.081339">
        <ele>2481.6</ele>
        <time>2019-08-10T09:03:44Z</time>
      </trkpt>
      <trkpt lat="42.672075" lon="-0.081211">
        <ele>2480.5</ele>
        <time>2019-08-10T09:03:59Z</time>
      </trkpt>
      <trkpt lat="42.672019" lon="-0.081112">
        <ele>2479.9</ele>
        <time>2019-08-10T09:04:13Z</time>
      </trkpt>
      <trkpt lat="42.671977" lon="-0.081016">
        <ele>2479.4</ele>
        <time>2019-08-10T09:04:24Z</time>
      </trkpt>
      <trkpt lat="42.671920" lon="-0.080961">
        <ele>2479.7</ele>
        <time>2019-08-10T09:04:39Z</time>
      </trkpt>
      <trkpt lat="42.671998" lon="-0.080894">
        <ele>2478.0</ele>
        <time>2019-08-10T09:06:04Z</time>
      </trkpt>
      <trkpt lat="42.671972" lon="-0.080776">
        <ele>2476.1</ele>
        <time>2019-08-10T09:06:25Z</time>
      </trkpt>
      <trkpt lat="42.671921" lon="-0.080665">
        <ele>2472.6</ele>
        <time>2019-08-10T09:06:39Z</time>
      </trkpt>
      <trkpt lat="42.671888" lon="-0.080541">
        <ele>2470.0</ele>
        <time>2019-08-10T09:06:52Z</time>
      </trkpt>
      <trkpt lat="42.671830" lon="-0.080433">
        <ele>2468.6</ele>
        <time>2019-08-10T09:07:05Z</time>
      </trkpt>
      <trkpt lat="42.671772" lon="-0.080348">
        <ele>2468.6</ele>
        <time>2019-08-10T09:07:18Z</time>
      </trkpt>
      <trkpt lat="42.671695" lon="-0.080290">
        <ele>2469.6</ele>
        <time>2019-08-10T09:07:32Z</time>
      </trkpt>
      <trkpt lat="42.671673" lon="-0.080182">
        <ele>2468.3</ele>
        <time>2019-08-10T09:07:52Z</time>
      </trkpt>
      <trkpt lat="42.671663" lon="-0.080036">
        <ele>2467.0</ele>
        <time>2019-08-10T09:08:06Z</time>
      </trkpt>
      <trkpt lat="42.671666" lon="-0.079876">
        <ele>2464.6</ele>
        <time>2019-08-10T09:08:22Z</time>
      </trkpt>
      <trkpt lat="42.671666" lon="-0.079744">
        <ele>2463.5</ele>
        <time>2019-08-10T09:08:35Z</time>
      </trkpt>
      <trkpt lat="42.671578" lon="-0.079635">
        <ele>2461.9</ele>
        <time>2019-08-10T09:08:48Z</time>
      </trkpt>
      <trkpt lat="42.671579" lon="-0.079520">
        <ele>2460.0</ele>
        <time>2019-08-10T09:09:02Z</time>
      </trkpt>
      <trkpt lat="42.671541" lon="-0.079437">
        <ele>2459.0</ele>
        <time>2019-08-10T09:09:18Z</time>
      </trkpt>
      <trkpt lat="42.671458" lon="-0.079376">
        <ele>2458.4</ele>
        <time>2019-08-10T09:09:35Z</time>
      </trkpt>
      <trkpt lat="42.671369" lon="-0.079308">
        <ele>2456.6</ele>
        <time>2019-08-10T09:09:53Z</time>
      </trkpt>
      <trkpt lat="42.671284" lon="-0.079281">
        <ele>2455.1</ele>
        <time>2019-08-10T09:10:09Z</time>
      </trkpt>
      <trkpt lat="42.671191" lon="-0.079201">
        <ele>2455.1</ele>
        <time>2019-08-10T09:10:25Z</time>
      </trkpt>
      <trkpt lat="42.671086" lon="-0.079131">
        <ele>2455.9</ele>
        <time>2019-08-10T09:10:46Z</time>
      </trkpt>
      <trkpt lat="42.671052" lon="-0.079012">
        <ele>2457.7</ele>
        <time>2019-08-10T09:11:05Z</time>
      </trkpt>
      <trkpt lat="42.670982" lon="-0.078950">
        <ele>2458.8</ele>
        <time>2019-08-10T09:11:17Z</time>
      </trkpt>
      <trkpt lat="42.670885" lon="-0.079075">
        <ele>2458.7</ele>
        <time>2019-08-10T09:11:32Z</time>
      </trkpt>
      <trkpt lat="42.670802" lon="-0.079005">
        <ele>2460.4</ele>
        <time>2019-08-10T09:11:51Z</time>
      </trkpt>
      <trkpt lat="42.670743" lon="-0.078911">
        <ele>2462.5</ele>
        <time>2019-08-10T09:12:07Z</time>
      </trkpt>
      <trkpt lat="42.670669" lon="-0.078851">
        <ele>2463.2</ele>
        <time>2019-08-10T09:12:19Z</time>
      </trkpt>
      <trkpt lat="42.670532" lon="-0.079031">
        <ele>2463.9</ele>
        <time>2019-08-10T09:12:31Z</time>
      </trkpt>
      <trkpt lat="42.670490" lon="-0.079080">
        <ele>2466.4</ele>
        <time>2019-08-10T09:13:24Z</time>
      </trkpt>
      <trkpt lat="42.670411" lon="-0.079015">
        <ele>2463.0</ele>
        <time>2019-08-10T09:13:41Z</time>
      </trkpt>
      <trkpt lat="42.670428" lon="-0.078928">
        <ele>2460.9</ele>
        <time>2019-08-10T09:14:09Z</time>
      </trkpt>
      <trkpt lat="42.670430" lon="-0.078805">
        <ele>2456.9</ele>
        <time>2019-08-10T09:14:29Z</time>
      </trkpt>
      <trkpt lat="42.670386" lon="-0.078697">
        <ele>2455.0</ele>
        <time>2019-08-10T09:14:45Z</time>
      </trkpt>
      <trkpt lat="42.670384" lon="-0.078570">
        <ele>2454.4</ele>
        <time>2019-08-10T09:14:57Z</time>
      </trkpt>
      <trkpt lat="42.670422" lon="-0.078470">
        <ele>2454.8</ele>
        <time>2019-08-10T09:15:14Z</time>
      </trkpt>
      <trkpt lat="42.670347" lon="-0.078317">
        <ele>2453.4</ele>
        <time>2019-08-10T09:15:29Z</time>
      </trkpt>
      <trkpt lat="42.670331" lon="-0.078219">
        <ele>2451.8</ele>
        <time>2019-08-10T09:15:45Z</time>
      </trkpt>
      <trkpt lat="42.670244" lon="-0.078219">
        <ele>2451.5</ele>
        <time>2019-08-10T09:15:59Z</time>
      </trkpt>
      <trkpt lat="42.670120" lon="-0.078106">
        <ele>2452.0</ele>
        <time>2019-08-10T09:16:12Z</time>
      </trkpt>
      <trkpt lat="42.670015" lon="-0.078075">
        <ele>2451.5</ele>
        <time>2019-08-10T09:16:26Z</time>
      </trkpt>
      <trkpt lat="42.669920" lon="-0.078099">
        <ele>2451.2</ele>
        <time>2019-08-10T09:16:44Z</time>
      </trkpt>
      <trkpt lat="42.669813" lon="-0.078116">
        <ele>2451.4</ele>
        <time>2019-08-10T09:16:56Z</time>
      </trkpt>
      <trkpt lat="42.669767" lon="-0.077999">
        <ele>2453.1</ele>
        <time>2019-08-10T09:17:11Z</time>
      </trkpt>
      <trkpt lat="42.669735" lon="-0.077853">
        <ele>2455.7</ele>
        <time>2019-08-10T09:17:28Z</time>
      </trkpt>
      <trkpt lat="42.669753" lon="-0.077782">
        <ele>2454.4</ele>
        <time>2019-08-10T09:20:53Z</time>
      </trkpt>
      <trkpt lat="42.669800" lon="-0.077771">
        <ele>2454.9</ele>
        <time>2019-08-10T09:21:23Z</time>
      </trkpt>
      <trkpt lat="42.669815" lon="-0.077655">
        <ele>2453.3</ele>
        <time>2019-08-10T09:21:48Z</time>
      </trkpt>
      <trkpt lat="42.669784" lon="-0.077537">
        <ele>2451.9</ele>
        <time>2019-08-10T09:22:05Z</time>
      </trkpt>
      <trkpt lat="42.669730" lon="-0.077441">
        <ele>2450.5</ele>
        <time>2019-08-10T09:22:16Z</time>
      </trkpt>
      <trkpt lat="42.669659" lon="-0.077339">
        <ele>2449.5</ele>
        <time>2019-08-10T09:22:29Z</time>
      </trkpt>
      <trkpt lat="42.669607" lon="-0.077235">
        <ele>2449.5</ele>
        <time>2019-08-10T09:22:41Z</time>
      </trkpt>
      <trkpt lat="42.669515" lon="-0.077179">
        <ele>2450.2</ele>
        <time>2019-08-10T09:22:53Z</time>
      </trkpt>
      <trkpt lat="42.669403" lon="-0.077193">
        <ele>2450.9</ele>
        <time>2019-08-10T09:23:05Z</time>
      </trkpt>
      <trkpt lat="42.669339" lon="-0.077138">
        <ele>2451.8</ele>
        <time>2019-08-10T09:23:19Z</time>
      </trkpt>
      <trkpt lat="42.669333" lon="-0.077078">
        <ele>2454.2</ele>
        <time>2019-08-10T09:23:44Z</time>
      </trkpt>
      <trkpt lat="42.669290" lon="-0.076955">
        <ele>2453.8</ele>
        <time>2019-08-10T09:24:00Z</time>
      </trkpt>
      <trkpt lat="42.669194" lon="-0.076888">
        <ele>2451.4</ele>
        <time>2019-08-10T09:24:14Z</time>
      </trkpt>
      <trkpt lat="42.669119" lon="-0.076778">
        <ele>2449.9</ele>
        <time>2019-08-10T09:24:26Z</time>
      </trkpt>
      <trkpt lat="42.669057" lon="-0.076666">
        <ele>2451.4</ele>
        <time>2019-08-10T09:24:40Z</time>
      </trkpt>
      <trkpt lat="42.668983" lon="-0.076607">
        <ele>2453.8</ele>
        <time>2019-08-10T09:24:58Z</time>
      </trkpt>
      <trkpt lat="42.668936" lon="-0.076551">
        <ele>2455.3</ele>
        <time>2019-08-10T09:25:21Z</time>
      </trkpt>
      <trkpt lat="42.668907" lon="-0.076445">
        <ele>2452.9</ele>
        <time>2019-08-10T09:25:33Z</time>
      </trkpt>
      <trkpt lat="42.668851" lon="-0.076352">
        <ele>2451.7</ele>
        <time>2019-08-10T09:25:45Z</time>
      </trkpt>
      <trkpt lat="42.668802" lon="-0.076229">
        <ele>2449.6</ele>
        <time>2019-08-10T09:26:02Z</time>
      </trkpt>
      <trkpt lat="42.668751" lon="-0.076098">
        <ele>2447.9</ele>
        <time>2019-08-10T09:26:13Z</time>
      </trkpt>
      <trkpt lat="42.668694" lon="-0.075978">
        <ele>2448.0</ele>
        <time>2019-08-10T09:26:24Z</time>
      </trkpt>
      <trkpt lat="42.668652" lon="-0.075843">
        <ele>2448.9</ele>
        <time>2019-08-10T09:26:39Z</time>
      </trkpt>
      <trkpt lat="42.668597" lon="-0.075709">
        <ele>2451.3</ele>
        <time>2019-08-10T09:26:55Z</time>
      </trkpt>
      <trkpt lat="42.668520" lon="-0.075632">
        <ele>2453.5</ele>
        <time>2019-08-10T09:27:11Z</time>
      </trkpt>
      <trkpt lat="42.668418" lon="-0.075608">
        <ele>2456.7</ele>
        <time>2019-08-10T09:27:27Z</time>
      </trkpt>
      <trkpt lat="42.668329" lon="-0.075550">
        <ele>2455.4</ele>
        <time>2019-08-10T09:27:41Z</time>
      </trkpt>
      <trkpt lat="42.668149" lon="-0.075741">
        <ele>2455.9</ele>
        <time>2019-08-10T09:27:55Z</time>
      </trkpt>
      <trkpt lat="42.668061" lon="-0.075709">
        <ele>2455.6</ele>
        <time>2019-08-10T09:28:07Z</time>
      </trkpt>
      <trkpt lat="42.667978" lon="-0.075781">
        <ele>2455.8</ele>
        <time>2019-08-10T09:28:21Z</time>
      </trkpt>
      <trkpt lat="42.667929" lon="-0.075893">
        <ele>2455.8</ele>
        <time>2019-08-10T09:28:43Z</time>
      </trkpt>
      <trkpt lat="42.667845" lon="-0.075896">
        <ele>2455.1</ele>
        <time>2019-08-10T09:29:03Z</time>
      </trkpt>
      <trkpt lat="42.667765" lon="-0.075837">
        <ele>2454.1</ele>
        <time>2019-08-10T09:29:14Z</time>
      </trkpt>
      <trkpt lat="42.667676" lon="-0.075795">
        <ele>2454.5</ele>
        <time>2019-08-10T09:29:50Z</time>
      </trkpt>
      <trkpt lat="42.667637" lon="-0.075714">
        <ele>2455.4</ele>
        <time>2019-08-10T09:30:06Z</time>
      </trkpt>
      <trkpt lat="42.667610" lon="-0.075606">
        <ele>2455.4</ele>
        <time>2019-08-10T09:30:19Z</time>
      </trkpt>
      <trkpt lat="42.667546" lon="-0.075506">
        <ele>2454.3</ele>
        <time>2019-08-10T09:30:32Z</time>
      </trkpt>
      <trkpt lat="42.667465" lon="-0.075401">
        <ele>2453.8</ele>
        <time>2019-08-10T09:30:42Z</time>
      </trkpt>
      <trkpt lat="42.667499" lon="-0.075321">
        <ele>2453.7</ele>
        <time>2019-08-10T09:31:01Z</time>
      </trkpt>
      <trkpt lat="42.667576" lon="-0.075274">
        <ele>2452.8</ele>
        <time>2019-08-10T09:31:15Z</time>
      </trkpt>
      <trkpt lat="42.667639" lon="-0.075126">
        <ele>2450.1</ele>
        <time>2019-08-10T09:31:33Z</time>
      </trkpt>
      <trkpt lat="42.667633" lon="-0.074956">
        <ele>2448.3</ele>
        <time>2019-08-10T09:31:48Z</time>
      </trkpt>
      <trkpt lat="42.667637" lon="-0.074787">
        <ele>2446.9</ele>
        <time>2019-08-10T09:32:03Z</time>
      </trkpt>
      <trkpt lat="42.667615" lon="-0.074666">
        <ele>2446.1</ele>
        <time>2019-08-10T09:32:17Z</time>
      </trkpt>
      <trkpt lat="42.667578" lon="-0.074566">
        <ele>2443.6</ele>
        <time>2019-08-10T09:32:32Z</time>
      </trkpt>
      <trkpt lat="42.667546" lon="-0.074447">
        <ele>2445.2</ele>
        <time>2019-08-10T09:33:03Z</time>
      </trkpt>
      <trkpt lat="42.667345" lon="-0.074368">
        <ele>2446.1</ele>
        <time>2019-08-10T09:33:22Z</time>
      </trkpt>
      <trkpt lat="42.667271" lon="-0.074260">
        <ele>2446.1</ele>
        <time>2019-08-10T09:33:36Z</time>
      </trkpt>
      <trkpt lat="42.667195" lon="-0.074194">
        <ele>2445.9</ele>
        <time>2019-08-10T09:33:49Z</time>
      </trkpt>
      <trkpt lat="42.667146" lon="-0.074099">
        <ele>2446.1</ele>
        <time>2019-08-10T09:34:04Z</time>
      </trkpt>
      <trkpt lat="42.667043" lon="-0.074028">
        <ele>2446.6</ele>
        <time>2019-08-10T09:34:24Z</time>
      </trkpt>
      <trkpt lat="42.666954" lon="-0.073929">
        <ele>2446.7</ele>
        <time>2019-08-10T09:34:39Z</time>
      </trkpt>
      <trkpt lat="42.666872" lon="-0.073847">
        <ele>2447.0</ele>
        <time>2019-08-10T09:34:50Z</time>
      </trkpt>
      <trkpt lat="42.666793" lon="-0.073776">
        <ele>2445.8</ele>
        <time>2019-08-10T09:35:05Z</time>
      </trkpt>
      <trkpt lat="42.666717" lon="-0.073704">
        <ele>2445.5</ele>
        <time>2019-08-10T09:35:19Z</time>
      </trkpt>
      <trkpt lat="42.666643" lon="-0.073602">
        <ele>2445.4</ele>
        <time>2019-08-10T09:35:33Z</time>
      </trkpt>
      <trkpt lat="42.666567" lon="-0.073509">
        <ele>2445.8</ele>
        <time>2019-08-10T09:35:45Z</time>
      </trkpt>
      <trkpt lat="42.666511" lon="-0.073399">
        <ele>2446.1</ele>
        <time>2019-08-10T09:35:59Z</time>
      </trkpt>
      <trkpt lat="42.666531" lon="-0.073275">
        <ele>2445.3</ele>
        <time>2019-08-10T09:36:18Z</time>
      </trkpt>
      <trkpt lat="42.666625" lon="-0.073191">
        <ele>2447.9</ele>
        <time>2019-08-10T09:51:18Z</time>
      </trkpt>
      <trkpt lat="42.666730" lon="-0.073147">
        <ele>2446.0</ele>
        <time>2019-08-10T09:51:31Z</time>
      </trkpt>
      <trkpt lat="42.666842" lon="-0.073032">
        <ele>2444.6</ele>
        <time>2019-08-10T09:51:44Z</time>
      </trkpt>
      <trkpt lat="42.666882" lon="-0.072886">
        <ele>2443.2</ele>
        <time>2019-08-10T09:51:56Z</time>
      </trkpt>
      <trkpt lat="42.666959" lon="-0.072811">
        <ele>2443.9</ele>
        <time>2019-08-10T09:52:09Z</time>
      </trkpt>
      <trkpt lat="42.667039" lon="-0.072673">
        <ele>2442.2</ele>
        <time>2019-08-10T09:52:23Z</time>
      </trkpt>
      <trkpt lat="42.667076" lon="-0.072524">
        <ele>2442.1</ele>
        <time>2019-08-10T09:52:34Z</time>
      </trkpt>
      <trkpt lat="42.667101" lon="-0.072389">
        <ele>2441.2</ele>
        <time>2019-08-10T09:52:44Z</time>
      </trkpt>
      <trkpt lat="42.667136" lon="-0.072256">
        <ele>2440.2</ele>
        <time>2019-08-10T09:52:56Z</time>
      </trkpt>
      <trkpt lat="42.667207" lon="-0.072195">
        <ele>2440.4</ele>
        <time>2019-08-10T09:53:18Z</time>
      </trkpt>
      <trkpt lat="42.667314" lon="-0.072143">
        <ele>2439.3</ele>
        <time>2019-08-10T09:53:32Z</time>
      </trkpt>
      <trkpt lat="42.667381" lon="-0.072014">
        <ele>2438.0</ele>
        <time>2019-08-10T09:53:42Z</time>
      </trkpt>
      <trkpt lat="42.667466" lon="-0.071947">
        <ele>2436.9</ele>
        <time>2019-08-10T09:53:51Z</time>
      </trkpt>
      <trkpt lat="42.667518" lon="-0.071846">
        <ele>2434.8</ele>
        <time>2019-08-10T09:54:00Z</time>
      </trkpt>
      <trkpt lat="42.667602" lon="-0.071756">
        <ele>2433.2</ele>
        <time>2019-08-10T09:54:11Z</time>
      </trkpt>
      <trkpt lat="42.667700" lon="-0.071694">
        <ele>2431.9</ele>
        <time>2019-08-10T09:54:21Z</time>
      </trkpt>
      <trkpt lat="42.667776" lon="-0.071607">
        <ele>2430.8</ele>
        <time>2019-08-10T09:54:31Z</time>
      </trkpt>
      <trkpt lat="42.667807" lon="-0.071500">
        <ele>2430.2</ele>
        <time>2019-08-10T09:54:42Z</time>
      </trkpt>
      <trkpt lat="42.667848" lon="-0.071413">
        <ele>2429.4</ele>
        <time>2019-08-10T09:54:54Z</time>
      </trkpt>
      <trkpt lat="42.667891" lon="-0.071332">
        <ele>2427.8</ele>
        <time>2019-08-10T09:55:06Z</time>
      </trkpt>
      <trkpt lat="42.667955" lon="-0.071239">
        <ele>2426.1</ele>
        <time>2019-08-10T09:55:19Z</time>
      </trkpt>
      <trkpt lat="42.667969" lon="-0.071115">
        <ele>2422.5</ele>
        <time>2019-08-10T09:55:31Z</time>
      </trkpt>
      <trkpt lat="42.668036" lon="-0.071024">
        <ele>2419.6</ele>
        <time>2019-08-10T09:55:43Z</time>
      </trkpt>
      <trkpt lat="42.668097" lon="-0.070931">
        <ele>2416.9</ele>
        <time>2019-08-10T09:55:53Z</time>
      </trkpt>
      <trkpt lat="42.668130" lon="-0.070810">
        <ele>2416.2</ele>
        <time>2019-08-10T09:56:02Z</time>
      </trkpt>
      <trkpt lat="42.668157" lon="-0.070707">
        <ele>2415.1</ele>
        <time>2019-08-10T09:56:45Z</time>
      </trkpt>
      <trkpt lat="42.668169" lon="-0.070578">
        <ele>2413.9</ele>
        <time>2019-08-10T09:56:56Z</time>
      </trkpt>
      <trkpt lat="42.668164" lon="-0.070446">
        <ele>2412.1</ele>
        <time>2019-08-10T09:57:07Z</time>
      </trkpt>
      <trkpt lat="42.668173" lon="-0.070311">
        <ele>2410.9</ele>
        <time>2019-08-10T09:57:18Z</time>
      </trkpt>
      <trkpt lat="42.668220" lon="-0.070196">
        <ele>2410.0</ele>
        <time>2019-08-10T09:57:29Z</time>
      </trkpt>
      <trkpt lat="42.668287" lon="-0.070096">
        <ele>2409.0</ele>
        <time>2019-08-10T09:57:40Z</time>
      </trkpt>
      <trkpt lat="42.668359" lon="-0.070024">
        <ele>2407.5</ele>
        <time>2019-08-10T09:57:51Z</time>
      </trkpt>
      <trkpt lat="42.668389" lon="-0.069939">
        <ele>2405.6</ele>
        <time>2019-08-10T09:58:03Z</time>
      </trkpt>
      <trkpt lat="42.668481" lon="-0.069931">
        <ele>2403.6</ele>
        <time>2019-08-10T09:58:17Z</time>
      </trkpt>
      <trkpt lat="42.668549" lon="-0.069848">
        <ele>2401.9</ele>
        <time>2019-08-10T09:58:34Z</time>
      </trkpt>
      <trkpt lat="42.668512" lon="-0.069747">
        <ele>2400.9</ele>
        <time>2019-08-10T09:58:54Z</time>
      </trkpt>
      <trkpt lat="42.668468" lon="-0.069654">
        <ele>2396.6</ele>
        <time>2019-08-10T09:59:08Z</time>
      </trkpt>
      <trkpt lat="42.668526" lon="-0.069568">
        <ele>2393.3</ele>
        <time>2019-08-10T09:59:19Z</time>
      </trkpt>
      <trkpt lat="42.668540" lon="-0.069436">
        <ele>2389.9</ele>
        <time>2019-08-10T09:59:46Z</time>
      </trkpt>
      <trkpt lat="42.668530" lon="-0.069331">
        <ele>2387.9</ele>
        <time>2019-08-10T10:00:00Z</time>
      </trkpt>
      <trkpt lat="42.668533" lon="-0.069206">
        <ele>2385.9</ele>
        <time>2019-08-10T10:00:09Z</time>
      </trkpt>
      <trkpt lat="42.668515" lon="-0.069090">
        <ele>2383.6</ele>
        <time>2019-08-10T10:00:19Z</time>
      </trkpt>
      <trkpt lat="42.668566" lon="-0.068984">
        <ele>2381.8</ele>
        <time>2019-08-10T10:00:31Z</time>
      </trkpt>
      <trkpt lat="42.668631" lon="-0.068898">
        <ele>2379.8</ele>
        <time>2019-08-10T10:00:42Z</time>
      </trkpt>
      <trkpt lat="42.668708" lon="-0.068809">
        <ele>2378.0</ele>
        <time>2019-08-10T10:00:55Z</time>
      </trkpt>
      <trkpt lat="42.668785" lon="-0.068748">
        <ele>2376.5</ele>
        <time>2019-08-10T10:01:21Z</time>
      </trkpt>
      <trkpt lat="42.668848" lon="-0.068652">
        <ele>2376.7</ele>
        <time>2019-08-10T10:01:32Z</time>
      </trkpt>
      <trkpt lat="42.668818" lon="-0.068542">
        <ele>2374.7</ele>
        <time>2019-08-10T10:01:43Z</time>
      </trkpt>
      <trkpt lat="42.668866" lon="-0.068449">
        <ele>2371.3</ele>
        <time>2019-08-10T10:01:58Z</time>
      </trkpt>
      <trkpt lat="42.668868" lon="-0.068325">
        <ele>2368.0</ele>
        <time>2019-08-10T10:02:13Z</time>
      </trkpt>
      <trkpt lat="42.668915" lon="-0.068254">
        <ele>2365.2</ele>
        <time>2019-08-10T10:02:27Z</time>
      </trkpt>
      <trkpt lat="42.668912" lon="-0.068136">
        <ele>2361.6</ele>
        <time>2019-08-10T10:02:42Z</time>
      </trkpt>
      <trkpt lat="42.668889" lon="-0.068014">
        <ele>2356.4</ele>
        <time>2019-08-10T10:02:57Z</time>
      </trkpt>
      <trkpt lat="42.668959" lon="-0.067920">
        <ele>2352.4</ele>
        <time>2019-08-10T10:03:11Z</time>
      </trkpt>
      <trkpt lat="42.668974" lon="-0.067786">
        <ele>2351.2</ele>
        <time>2019-08-10T10:03:23Z</time>
      </trkpt>
      <trkpt lat="42.668948" lon="-0.067656">
        <ele>2350.0</ele>
        <time>2019-08-10T10:03:34Z</time>
      </trkpt>
      <trkpt lat="42.668943" lon="-0.067623">
        <ele>2349.2</ele>
        <time>2019-08-10T10:04:30Z</time>
      </trkpt>
      <trkpt lat="42.668912" lon="-0.067493">
        <ele>2349.4</ele>
        <time>2019-08-10T10:04:40Z</time>
      </trkpt>
      <trkpt lat="42.668919" lon="-0.067370">
        <ele>2350.0</ele>
        <time>2019-08-10T10:04:50Z</time>
      </trkpt>
      <trkpt lat="42.668972" lon="-0.067278">
        <ele>2351.7</ele>
        <time>2019-08-10T10:05:04Z</time>
      </trkpt>
      <trkpt lat="42.668988" lon="-0.067162">
        <ele>2354.4</ele>
        <time>2019-08-10T10:05:20Z</time>
      </trkpt>
      <trkpt lat="42.668983" lon="-0.067047">
        <ele>2357.1</ele>
        <time>2019-08-10T10:05:34Z</time>
      </trkpt>
      <trkpt lat="42.668968" lon="-0.066940">
        <ele>2360.4</ele>
        <time>2019-08-10T10:05:51Z</time>
      </trkpt>
      <trkpt lat="42.668981" lon="-0.066834">
        <ele>2364.5</ele>
        <time>2019-08-10T10:06:13Z</time>
      </trkpt>
      <trkpt lat="42.668988" lon="-0.066751">
        <ele>2368.3</ele>
        <time>2019-08-10T10:06:39Z</time>
      </trkpt>
      <trkpt lat="42.668978" lon="-0.066623">
        <ele>2371.6</ele>
        <time>2019-08-10T10:07:27Z</time>
      </trkpt>
      <trkpt lat="42.669010" lon="-0.066594">
        <ele>2374.0</ele>
        <time>2019-08-10T10:07:46Z</time>
      </trkpt>
      <trkpt lat="42.668981" lon="-0.066492">
        <ele>2378.2</ele>
        <time>2019-08-10T10:08:09Z</time>
      </trkpt>
      <trkpt lat="42.669015" lon="-0.066372">
        <ele>2381.0</ele>
        <time>2019-08-10T10:08:28Z</time>
      </trkpt>
      <trkpt lat="42.668978" lon="-0.066282">
        <ele>2383.0</ele>
        <time>2019-08-10T10:08:44Z</time>
      </trkpt>
      <trkpt lat="42.668959" lon="-0.066179">
        <ele>2386.5</ele>
        <time>2019-08-10T10:09:02Z</time>
      </trkpt>
      <trkpt lat="42.668940" lon="-0.066057">
        <ele>2389.0</ele>
        <time>2019-08-10T10:09:19Z</time>
      </trkpt>
      <trkpt lat="42.668853" lon="-0.065982">
        <ele>2389.5</ele>
        <time>2019-08-10T10:09:32Z</time>
      </trkpt>
      <trkpt lat="42.668776" lon="-0.065896">
        <ele>2390.7</ele>
        <time>2019-08-10T10:09:43Z</time>
      </trkpt>
      <trkpt lat="42.668720" lon="-0.065806">
        <ele>2390.4</ele>
        <time>2019-08-10T10:09:55Z</time>
      </trkpt>
      <trkpt lat="42.668646" lon="-0.065698">
        <ele>2391.5</ele>
        <time>2019-08-10T10:10:06Z</time>
      </trkpt>
      <trkpt lat="42.668587" lon="-0.065613">
        <ele>2392.0</ele>
        <time>2019-08-10T10:10:16Z</time>
      </trkpt>
      <trkpt lat="42.668533" lon="-0.065464">
        <ele>2392.9</ele>
        <time>2019-08-10T10:10:29Z</time>
      </trkpt>
      <trkpt lat="42.668460" lon="-0.065346">
        <ele>2393.9</ele>
        <time>2019-08-10T10:10:42Z</time>
      </trkpt>
      <trkpt lat="42.668447" lon="-0.065336">
        <ele>2393.5</ele>
        <time>2019-08-10T10:11:06Z</time>
      </trkpt>
      <trkpt lat="42.668441" lon="-0.065273">
        <ele>2392.1</ele>
        <time>2019-08-10T10:13:19Z</time>
      </trkpt>
      <trkpt lat="42.668437" lon="-0.065127">
        <ele>2392.7</ele>
        <time>2019-08-10T10:13:31Z</time>
      </trkpt>
      <trkpt lat="42.668414" lon="-0.064995">
        <ele>2393.3</ele>
        <time>2019-08-10T10:13:43Z</time>
      </trkpt>
      <trkpt lat="42.668354" lon="-0.064900">
        <ele>2392.9</ele>
        <time>2019-08-10T10:13:53Z</time>
      </trkpt>
      <trkpt lat="42.668272" lon="-0.064812">
        <ele>2393.8</ele>
        <time>2019-08-10T10:14:05Z</time>
      </trkpt>
      <trkpt lat="42.668183" lon="-0.064767">
        <ele>2394.4</ele>
        <time>2019-08-10T10:14:33Z</time>
      </trkpt>
      <trkpt lat="42.668126" lon="-0.064664">
        <ele>2392.1</ele>
        <time>2019-08-10T10:14:45Z</time>
      </trkpt>
      <trkpt lat="42.668077" lon="-0.064545">
        <ele>2391.1</ele>
        <time>2019-08-10T10:14:57Z</time>
      </trkpt>
      <trkpt lat="42.668049" lon="-0.064428">
        <ele>2391.6</ele>
        <time>2019-08-10T10:15:08Z</time>
      </trkpt>
      <trkpt lat="42.668011" lon="-0.064308">
        <ele>2389.9</ele>
        <time>2019-08-10T10:15:28Z</time>
      </trkpt>
      <trkpt lat="42.667938" lon="-0.064207">
        <ele>2389.0</ele>
        <time>2019-08-10T10:15:42Z</time>
      </trkpt>
      <trkpt lat="42.667912" lon="-0.064129">
        <ele>2387.0</ele>
        <time>2019-08-10T10:16:00Z</time>
      </trkpt>
      <trkpt lat="42.667878" lon="-0.064016">
        <ele>2386.3</ele>
        <time>2019-08-10T10:16:12Z</time>
      </trkpt>
      <trkpt lat="42.667824" lon="-0.063913">
        <ele>2385.8</ele>
        <time>2019-08-10T10:16:22Z</time>
      </trkpt>
      <trkpt lat="42.667746" lon="-0.063803">
        <ele>2385.1</ele>
        <time>2019-08-10T10:16:35Z</time>
      </trkpt>
      <trkpt lat="42.667621" lon="-0.063697">
        <ele>2386.7</ele>
        <time>2019-08-10T10:16:50Z</time>
      </trkpt>
      <trkpt lat="42.667532" lon="-0.063618">
        <ele>2387.2</ele>
        <time>2019-08-10T10:17:06Z</time>
      </trkpt>
      <trkpt lat="42.667436" lon="-0.063576">
        <ele>2386.2</ele>
        <time>2019-08-10T10:17:23Z</time>
      </trkpt>
      <trkpt lat="42.667374" lon="-0.063472">
        <ele>2386.3</ele>
        <time>2019-08-10T10:17:36Z</time>
      </trkpt>
      <trkpt lat="42.667293" lon="-0.063370">
        <ele>2386.8</ele>
        <time>2019-08-10T10:17:48Z</time>
      </trkpt>
      <trkpt lat="42.667194" lon="-0.063297">
        <ele>2388.4</ele>
        <time>2019-08-10T10:18:01Z</time>
      </trkpt>
      <trkpt lat="42.667078" lon="-0.063275">
        <ele>2388.4</ele>
        <time>2019-08-10T10:18:12Z</time>
      </trkpt>
      <trkpt lat="42.666979" lon="-0.063212">
        <ele>2389.9</ele>
        <time>2019-08-10T10:18:25Z</time>
      </trkpt>
      <trkpt lat="42.666890" lon="-0.063179">
        <ele>2391.1</ele>
        <time>2019-08-10T10:18:38Z</time>
      </trkpt>
      <trkpt lat="42.666841" lon="-0.063095">
        <ele>2392.9</ele>
        <time>2019-08-10T10:18:58Z</time>
      </trkpt>
      <trkpt lat="42.666803" lon="-0.062985">
        <ele>2394.3</ele>
        <time>2019-08-10T10:19:12Z</time>
      </trkpt>
      <trkpt lat="42.666744" lon="-0.062877">
        <ele>2394.6</ele>
        <time>2019-08-10T10:19:27Z</time>
      </trkpt>
      <trkpt lat="42.666698" lon="-0.062745">
        <ele>2393.4</ele>
        <time>2019-08-10T10:19:40Z</time>
      </trkpt>
      <trkpt lat="42.666645" lon="-0.062639">
        <ele>2393.0</ele>
        <time>2019-08-10T10:19:51Z</time>
      </trkpt>
      <trkpt lat="42.666589" lon="-0.062536">
        <ele>2392.4</ele>
        <time>2019-08-10T10:20:03Z</time>
      </trkpt>
      <trkpt lat="42.666531" lon="-0.062427">
        <ele>2392.5</ele>
        <time>2019-08-10T10:20:17Z</time>
      </trkpt>
      <trkpt lat="42.666466" lon="-0.062390">
        <ele>2391.4</ele>
        <time>2019-08-10T10:20:42Z</time>
      </trkpt>
      <trkpt lat="42.666276" lon="-0.062278">
        <ele>2391.9</ele>
        <time>2019-08-10T10:21:02Z</time>
      </trkpt>
      <trkpt lat="42.666236" lon="-0.062197">
        <ele>2392.3</ele>
        <time>2019-08-10T10:21:11Z</time>
      </trkpt>
      <trkpt lat="42.666168" lon="-0.062125">
        <ele>2393.4</ele>
        <time>2019-08-10T10:21:21Z</time>
      </trkpt>
      <trkpt lat="42.666101" lon="-0.062045">
        <ele>2393.9</ele>
        <time>2019-08-10T10:21:31Z</time>
      </trkpt>
      <trkpt lat="42.666021" lon="-0.061942">
        <ele>2393.6</ele>
        <time>2019-08-10T10:21:41Z</time>
      </trkpt>
      <trkpt lat="42.665961" lon="-0.061835">
        <ele>2394.1</ele>
        <time>2019-08-10T10:21:51Z</time>
      </trkpt>
      <trkpt lat="42.665913" lon="-0.061721">
        <ele>2395.6</ele>
        <time>2019-08-10T10:22:01Z</time>
      </trkpt>
      <trkpt lat="42.665844" lon="-0.061625">
        <ele>2396.8</ele>
        <time>2019-08-10T10:22:12Z</time>
      </trkpt>
      <trkpt lat="42.665797" lon="-0.061513">
        <ele>2396.8</ele>
        <time>2019-08-10T10:22:30Z</time>
      </trkpt>
      <trkpt lat="42.665698" lon="-0.061474">
        <ele>2396.8</ele>
        <time>2019-08-10T10:22:40Z</time>
      </trkpt>
      <trkpt lat="42.665622" lon="-0.061381">
        <ele>2396.5</ele>
        <time>2019-08-10T10:22:50Z</time>
      </trkpt>
      <trkpt lat="42.665525" lon="-0.061315">
        <ele>2396.1</ele>
        <time>2019-08-10T10:23:00Z</time>
      </trkpt>
      <trkpt lat="42.665448" lon="-0.061211">
        <ele>2397.0</ele>
        <time>2019-08-10T10:23:12Z</time>
      </trkpt>
      <trkpt lat="42.665334" lon="-0.061134">
        <ele>2396.9</ele>
        <time>2019-08-10T10:23:22Z</time>
      </trkpt>
      <trkpt lat="42.665291" lon="-0.061122">
        <ele>2397.5</ele>
        <time>2019-08-10T10:24:36Z</time>
      </trkpt>
      <trkpt lat="42.665207" lon="-0.061186">
        <ele>2398.0</ele>
        <time>2019-08-10T10:24:47Z</time>
      </trkpt>
      <trkpt lat="42.665124" lon="-0.061172">
        <ele>2398.0</ele>
        <time>2019-08-10T10:24:57Z</time>
      </trkpt>
      <trkpt lat="42.665087" lon="-0.061070">
        <ele>2399.4</ele>
        <time>2019-08-10T10:25:09Z</time>
      </trkpt>
      <trkpt lat="42.665150" lon="-0.060974">
        <ele>2400.6</ele>
        <time>2019-08-10T10:25:37Z</time>
      </trkpt>
      <trkpt lat="42.665250" lon="-0.060880">
        <ele>2399.9</ele>
        <time>2019-08-10T10:25:47Z</time>
      </trkpt>
      <trkpt lat="42.665327" lon="-0.060771">
        <ele>2400.0</ele>
        <time>2019-08-10T10:25:58Z</time>
      </trkpt>
      <trkpt lat="42.665411" lon="-0.060641">
        <ele>2399.1</ele>
        <time>2019-08-10T10:26:11Z</time>
      </trkpt>
      <trkpt lat="42.665421" lon="-0.060391">
        <ele>2398.6</ele>
        <time>2019-08-10T10:26:28Z</time>
      </trkpt>
      <trkpt lat="42.665386" lon="-0.060178">
        <ele>2398.4</ele>
        <time>2019-08-10T10:26:39Z</time>
      </trkpt>
      <trkpt lat="42.665368" lon="-0.059995">
        <ele>2398.7</ele>
        <time>2019-08-10T10:26:53Z</time>
      </trkpt>
      <trkpt lat="42.665351" lon="-0.059844">
        <ele>2398.8</ele>
        <time>2019-08-10T10:27:04Z</time>
      </trkpt>
      <trkpt lat="42.665355" lon="-0.059683">
        <ele>2399.2</ele>
        <time>2019-08-10T10:27:16Z</time>
      </trkpt>
      <trkpt lat="42.665319" lon="-0.059538">
        <ele>2398.3</ele>
        <time>2019-08-10T10:27:26Z</time>
      </trkpt>
      <trkpt lat="42.665264" lon="-0.059392">
        <ele>2398.8</ele>
        <time>2019-08-10T10:27:38Z</time>
      </trkpt>
      <trkpt lat="42.665218" lon="-0.059266">
        <ele>2398.1</ele>
        <time>2019-08-10T10:27:49Z</time>
      </trkpt>
      <trkpt lat="42.665157" lon="-0.059142">
        <ele>2398.4</ele>
        <time>2019-08-10T10:28:02Z</time>
      </trkpt>
      <trkpt lat="42.664994" lon="-0.059078">
        <ele>2397.1</ele>
        <time>2019-08-10T10:28:19Z</time>
      </trkpt>
      <trkpt lat="42.664923" lon="-0.059081">
        <ele>2403.4</ele>
        <time>2019-08-10T11:10:30Z</time>
      </trkpt>
      <trkpt lat="42.664890" lon="-0.059019">
        <ele>2403.3</ele>
        <time>2019-08-10T11:11:05Z</time>
      </trkpt>
      <trkpt lat="42.664802" lon="-0.058944">
        <ele>2404.0</ele>
        <time>2019-08-10T11:11:19Z</time>
      </trkpt>
      <trkpt lat="42.664734" lon="-0.058828">
        <ele>2404.4</ele>
        <time>2019-08-10T11:11:34Z</time>
      </trkpt>
      <trkpt lat="42.664651" lon="-0.058746">
        <ele>2404.8</ele>
        <time>2019-08-10T11:11:46Z</time>
      </trkpt>
      <trkpt lat="42.664540" lon="-0.058777">
        <ele>2405.5</ele>
        <time>2019-08-10T11:11:59Z</time>
      </trkpt>
      <trkpt lat="42.664437" lon="-0.058767">
        <ele>2406.0</ele>
        <time>2019-08-10T11:12:10Z</time>
      </trkpt>
      <trkpt lat="42.664348" lon="-0.058757">
        <ele>2408.7</ele>
        <time>2019-08-10T11:12:28Z</time>
      </trkpt>
      <trkpt lat="42.664265" lon="-0.058756">
        <ele>2411.5</ele>
        <time>2019-08-10T11:12:44Z</time>
      </trkpt>
      <trkpt lat="42.664175" lon="-0.058773">
        <ele>2413.0</ele>
        <time>2019-08-10T11:12:58Z</time>
      </trkpt>
      <trkpt lat="42.664075" lon="-0.058770">
        <ele>2412.7</ele>
        <time>2019-08-10T11:13:11Z</time>
      </trkpt>
      <trkpt lat="42.663978" lon="-0.058784">
        <ele>2413.5</ele>
        <time>2019-08-10T11:13:25Z</time>
      </trkpt>
      <trkpt lat="42.663885" lon="-0.058788">
        <ele>2414.1</ele>
        <time>2019-08-10T11:13:37Z</time>
      </trkpt>
      <trkpt lat="42.663784" lon="-0.058823">
        <ele>2414.3</ele>
        <time>2019-08-10T11:13:50Z</time>
      </trkpt>
      <trkpt lat="42.663715" lon="-0.058863">
        <ele>2414.2</ele>
        <time>2019-08-10T11:14:41Z</time>
      </trkpt>
      <trkpt lat="42.663641" lon="-0.058717">
        <ele>2412.9</ele>
        <time>2019-08-10T11:15:10Z</time>
      </trkpt>
      <trkpt lat="42.663579" lon="-0.058570">
        <ele>2412.4</ele>
        <time>2019-08-10T11:15:22Z</time>
      </trkpt>
      <trkpt lat="42.663506" lon="-0.058425">
        <ele>2412.2</ele>
        <time>2019-08-10T11:15:33Z</time>
      </trkpt>
      <trkpt lat="42.663374" lon="-0.058436">
        <ele>2411.9</ele>
        <time>2019-08-10T11:15:43Z</time>
      </trkpt>
      <trkpt lat="42.663265" lon="-0.058472">
        <ele>2413.1</ele>
        <time>2019-08-10T11:15:54Z</time>
      </trkpt>
      <trkpt lat="42.663175" lon="-0.058543">
        <ele>2415.2</ele>
        <time>2019-08-10T11:16:06Z</time>
      </trkpt>
      <trkpt lat="42.663105" lon="-0.058542">
        <ele>2415.9</ele>
        <time>2019-08-10T11:16:16Z</time>
      </trkpt>
      <trkpt lat="42.663019" lon="-0.058497">
        <ele>2416.3</ele>
        <time>2019-08-10T11:16:28Z</time>
      </trkpt>
      <trkpt lat="42.662944" lon="-0.058383">
        <ele>2417.0</ele>
        <time>2019-08-10T11:16:39Z</time>
      </trkpt>
      <trkpt lat="42.662835" lon="-0.058337">
        <ele>2417.6</ele>
        <time>2019-08-10T11:16:49Z</time>
      </trkpt>
      <trkpt lat="42.662728" lon="-0.058390">
        <ele>2416.9</ele>
        <time>2019-08-10T11:16:59Z</time>
      </trkpt>
      <trkpt lat="42.662653" lon="-0.058476">
        <ele>2415.5</ele>
        <time>2019-08-10T11:17:08Z</time>
      </trkpt>
      <trkpt lat="42.662603" lon="-0.058578">
        <ele>2414.9</ele>
        <time>2019-08-10T11:17:18Z</time>
      </trkpt>
      <trkpt lat="42.662562" lon="-0.058695">
        <ele>2416.5</ele>
        <time>2019-08-10T11:17:34Z</time>
      </trkpt>
      <trkpt lat="42.662531" lon="-0.058792">
        <ele>2417.9</ele>
        <time>2019-08-10T11:18:01Z</time>
      </trkpt>
      <trkpt lat="42.662478" lon="-0.058893">
        <ele>2416.7</ele>
        <time>2019-08-10T11:18:11Z</time>
      </trkpt>
      <trkpt lat="42.662396" lon="-0.058939">
        <ele>2414.7</ele>
        <time>2019-08-10T11:18:24Z</time>
      </trkpt>
      <trkpt lat="42.662305" lon="-0.058850">
        <ele>2414.8</ele>
        <time>2019-08-10T11:18:36Z</time>
      </trkpt>
      <trkpt lat="42.662207" lon="-0.058890">
        <ele>2415.5</ele>
        <time>2019-08-10T11:18:47Z</time>
      </trkpt>
      <trkpt lat="42.662144" lon="-0.058978">
        <ele>2417.2</ele>
        <time>2019-08-10T11:19:09Z</time>
      </trkpt>
      <trkpt lat="42.662143" lon="-0.058989">
        <ele>2417.3</ele>
        <time>2019-08-10T11:19:37Z</time>
      </trkpt>
      <trkpt lat="42.662053" lon="-0.059016">
        <ele>2417.1</ele>
        <time>2019-08-10T11:20:46Z</time>
      </trkpt>
      <trkpt lat="42.661947" lon="-0.059006">
        <ele>2416.6</ele>
        <time>2019-08-10T11:20:59Z</time>
      </trkpt>
      <trkpt lat="42.661847" lon="-0.059045">
        <ele>2416.6</ele>
        <time>2019-08-10T11:21:09Z</time>
      </trkpt>
      <trkpt lat="42.661754" lon="-0.059070">
        <ele>2416.5</ele>
        <time>2019-08-10T11:21:20Z</time>
      </trkpt>
      <trkpt lat="42.661668" lon="-0.059094">
        <ele>2416.2</ele>
        <time>2019-08-10T11:21:32Z</time>
      </trkpt>
      <trkpt lat="42.661569" lon="-0.059114">
        <ele>2415.4</ele>
        <time>2019-08-10T11:21:43Z</time>
      </trkpt>
      <trkpt lat="42.661470" lon="-0.059141">
        <ele>2414.7</ele>
        <time>2019-08-10T11:21:52Z</time>
      </trkpt>
      <trkpt lat="42.661381" lon="-0.059171">
        <ele>2414.1</ele>
        <time>2019-08-10T11:22:02Z</time>
      </trkpt>
      <trkpt lat="42.661289" lon="-0.059177">
        <ele>2415.1</ele>
        <time>2019-08-10T11:22:17Z</time>
      </trkpt>
      <trkpt lat="42.661201" lon="-0.059215">
        <ele>2417.3</ele>
        <time>2019-08-10T11:22:31Z</time>
      </trkpt>
      <trkpt lat="42.661151" lon="-0.059212">
        <ele>2418.5</ele>
        <time>2019-08-10T11:23:37Z</time>
      </trkpt>
      <trkpt lat="42.661108" lon="-0.059106">
        <ele>2420.0</ele>
        <time>2019-08-10T11:23:52Z</time>
      </trkpt>
      <trkpt lat="42.661102" lon="-0.058969">
        <ele>2419.7</ele>
        <time>2019-08-10T11:24:04Z</time>
      </trkpt>
      <trkpt lat="42.661064" lon="-0.058864">
        <ele>2418.0</ele>
        <time>2019-08-10T11:24:18Z</time>
      </trkpt>
      <trkpt lat="42.661013" lon="-0.058743">
        <ele>2415.9</ele>
        <time>2019-08-10T11:24:32Z</time>
      </trkpt>
      <trkpt lat="42.660990" lon="-0.058621">
        <ele>2414.6</ele>
        <time>2019-08-10T11:24:47Z</time>
      </trkpt>
      <trkpt lat="42.661007" lon="-0.058494">
        <ele>2414.1</ele>
        <time>2019-08-10T11:25:01Z</time>
      </trkpt>
      <trkpt lat="42.661042" lon="-0.058343">
        <ele>2415.5</ele>
        <time>2019-08-10T11:25:18Z</time>
      </trkpt>
      <trkpt lat="42.661089" lon="-0.058179">
        <ele>2416.8</ele>
        <time>2019-08-10T11:25:33Z</time>
      </trkpt>
      <trkpt lat="42.661162" lon="-0.058051">
        <ele>2417.3</ele>
        <time>2019-08-10T11:25:47Z</time>
      </trkpt>
      <trkpt lat="42.661109" lon="-0.057901">
        <ele>2417.5</ele>
        <time>2019-08-10T11:26:01Z</time>
      </trkpt>
      <trkpt lat="42.661012" lon="-0.057777">
        <ele>2417.6</ele>
        <time>2019-08-10T11:26:14Z</time>
      </trkpt>
      <trkpt lat="42.660959" lon="-0.057671">
        <ele>2417.4</ele>
        <time>2019-08-10T11:26:25Z</time>
      </trkpt>
      <trkpt lat="42.660894" lon="-0.057572">
        <ele>2417.6</ele>
        <time>2019-08-10T11:26:38Z</time>
      </trkpt>
      <trkpt lat="42.660866" lon="-0.057435">
        <ele>2419.4</ele>
        <time>2019-08-10T11:26:50Z</time>
      </trkpt>
      <trkpt lat="42.660803" lon="-0.057332">
        <ele>2420.1</ele>
        <time>2019-08-10T11:27:01Z</time>
      </trkpt>
      <trkpt lat="42.660710" lon="-0.057247">
        <ele>2420.5</ele>
        <time>2019-08-10T11:27:14Z</time>
      </trkpt>
      <trkpt lat="42.660592" lon="-0.057227">
        <ele>2420.0</ele>
        <time>2019-08-10T11:27:28Z</time>
      </trkpt>
      <trkpt lat="42.660568" lon="-0.057088">
        <ele>2419.0</ele>
        <time>2019-08-10T11:27:41Z</time>
      </trkpt>
      <trkpt lat="42.660541" lon="-0.056969">
        <ele>2418.0</ele>
        <time>2019-08-10T11:27:52Z</time>
      </trkpt>
      <trkpt lat="42.660519" lon="-0.056848">
        <ele>2417.5</ele>
        <time>2019-08-10T11:28:03Z</time>
      </trkpt>
      <trkpt lat="42.660467" lon="-0.056728">
        <ele>2417.1</ele>
        <time>2019-08-10T11:28:15Z</time>
      </trkpt>
      <trkpt lat="42.660406" lon="-0.056610">
        <ele>2416.8</ele>
        <time>2019-08-10T11:28:26Z</time>
      </trkpt>
      <trkpt lat="42.660329" lon="-0.056516">
        <ele>2416.4</ele>
        <time>2019-08-10T11:28:37Z</time>
      </trkpt>
      <trkpt lat="42.660282" lon="-0.056411">
        <ele>2416.8</ele>
        <time>2019-08-10T11:28:50Z</time>
      </trkpt>
      <trkpt lat="42.660278" lon="-0.056284">
        <ele>2418.1</ele>
        <time>2019-08-10T11:29:01Z</time>
      </trkpt>
      <trkpt lat="42.660253" lon="-0.056173">
        <ele>2419.5</ele>
        <time>2019-08-10T11:29:15Z</time>
      </trkpt>
      <trkpt lat="42.660218" lon="-0.056047">
        <ele>2418.1</ele>
        <time>2019-08-10T11:29:28Z</time>
      </trkpt>
      <trkpt lat="42.660178" lon="-0.055926">
        <ele>2418.1</ele>
        <time>2019-08-10T11:29:42Z</time>
      </trkpt>
      <trkpt lat="42.660165" lon="-0.055813">
        <ele>2420.1</ele>
        <time>2019-08-10T11:30:03Z</time>
      </trkpt>
      <trkpt lat="42.660146" lon="-0.055678">
        <ele>2420.2</ele>
        <time>2019-08-10T11:30:15Z</time>
      </trkpt>
      <trkpt lat="42.660159" lon="-0.055548">
        <ele>2419.2</ele>
        <time>2019-08-10T11:30:28Z</time>
      </trkpt>
      <trkpt lat="42.660216" lon="-0.055401">
        <ele>2417.8</ele>
        <time>2019-08-10T11:30:41Z</time>
      </trkpt>
      <trkpt lat="42.660277" lon="-0.055270">
        <ele>2415.0</ele>
        <time>2019-08-10T11:30:57Z</time>
      </trkpt>
      <trkpt lat="42.660332" lon="-0.055128">
        <ele>2414.0</ele>
        <time>2019-08-10T11:31:08Z</time>
      </trkpt>
      <trkpt lat="42.660309" lon="-0.054970">
        <ele>2413.9</ele>
        <time>2019-08-10T11:31:17Z</time>
      </trkpt>
      <trkpt lat="42.660286" lon="-0.054850">
        <ele>2413.9</ele>
        <time>2019-08-10T11:31:26Z</time>
      </trkpt>
      <trkpt lat="42.660277" lon="-0.054739">
        <ele>2413.4</ele>
        <time>2019-08-10T11:31:35Z</time>
      </trkpt>
      <trkpt lat="42.660226" lon="-0.054605">
        <ele>2413.3</ele>
        <time>2019-08-10T11:31:45Z</time>
      </trkpt>
      <trkpt lat="42.660173" lon="-0.054483">
        <ele>2413.2</ele>
        <time>2019-08-10T11:31:55Z</time>
      </trkpt>
      <trkpt lat="42.660089" lon="-0.054385">
        <ele>2413.5</ele>
        <time>2019-08-10T11:32:06Z</time>
      </trkpt>
      <trkpt lat="42.660048" lon="-0.054273">
        <ele>2413.9</ele>
        <time>2019-08-10T11:32:17Z</time>
      </trkpt>
      <trkpt lat="42.659973" lon="-0.054251">
        <ele>2413.3</ele>
        <time>2019-08-10T11:32:32Z</time>
      </trkpt>
      <trkpt lat="42.659893" lon="-0.054219">
        <ele>2413.9</ele>
        <time>2019-08-10T11:32:44Z</time>
      </trkpt>
      <trkpt lat="42.659765" lon="-0.054255">
        <ele>2414.9</ele>
        <time>2019-08-10T11:32:55Z</time>
      </trkpt>
      <trkpt lat="42.659676" lon="-0.054247">
        <ele>2414.8</ele>
        <time>2019-08-10T11:33:07Z</time>
      </trkpt>
      <trkpt lat="42.659609" lon="-0.054180">
        <ele>2413.6</ele>
        <time>2019-08-10T11:33:19Z</time>
      </trkpt>
      <trkpt lat="42.659547" lon="-0.054075">
        <ele>2411.6</ele>
        <time>2019-08-10T11:33:33Z</time>
      </trkpt>
      <trkpt lat="42.659477" lon="-0.053963">
        <ele>2410.4</ele>
        <time>2019-08-10T11:33:46Z</time>
      </trkpt>
      <trkpt lat="42.659415" lon="-0.053862">
        <ele>2409.0</ele>
        <time>2019-08-10T11:33:56Z</time>
      </trkpt>
      <trkpt lat="42.659329" lon="-0.053778">
        <ele>2409.5</ele>
        <time>2019-08-10T11:34:11Z</time>
      </trkpt>
      <trkpt lat="42.659265" lon="-0.053677">
        <ele>2410.4</ele>
        <time>2019-08-10T11:34:23Z</time>
      </trkpt>
      <trkpt lat="42.659206" lon="-0.053558">
        <ele>2410.4</ele>
        <time>2019-08-10T11:34:35Z</time>
      </trkpt>
      <trkpt lat="42.659140" lon="-0.053466">
        <ele>2410.2</ele>
        <time>2019-08-10T11:34:46Z</time>
      </trkpt>
      <trkpt lat="42.659072" lon="-0.053336">
        <ele>2410.4</ele>
        <time>2019-08-10T11:34:59Z</time>
      </trkpt>
      <trkpt lat="42.659024" lon="-0.053337">
        <ele>2410.5</ele>
        <time>2019-08-10T11:35:29Z</time>
      </trkpt>
      <trkpt lat="42.658950" lon="-0.053245">
        <ele>2410.0</ele>
        <time>2019-08-10T11:35:42Z</time>
      </trkpt>
      <trkpt lat="42.658882" lon="-0.053143">
        <ele>2409.9</ele>
        <time>2019-08-10T11:35:55Z</time>
      </trkpt>
      <trkpt lat="42.658801" lon="-0.053062">
        <ele>2410.1</ele>
        <time>2019-08-10T11:36:06Z</time>
      </trkpt>
      <trkpt lat="42.658646" lon="-0.053083">
        <ele>2410.5</ele>
        <time>2019-08-10T11:36:17Z</time>
      </trkpt>
      <trkpt lat="42.658529" lon="-0.053074">
        <ele>2410.1</ele>
        <time>2019-08-10T11:36:31Z</time>
      </trkpt>
      <trkpt lat="42.658444" lon="-0.053034">
        <ele>2408.8</ele>
        <time>2019-08-10T11:36:42Z</time>
      </trkpt>
      <trkpt lat="42.658337" lon="-0.053038">
        <ele>2408.7</ele>
        <time>2019-08-10T11:36:54Z</time>
      </trkpt>
      <trkpt lat="42.658260" lon="-0.052983">
        <ele>2408.6</ele>
        <time>2019-08-10T11:37:07Z</time>
      </trkpt>
      <trkpt lat="42.658250" lon="-0.052859">
        <ele>2412.1</ele>
        <time>2019-08-10T11:37:48Z</time>
      </trkpt>
      <trkpt lat="42.658202" lon="-0.052754">
        <ele>2411.1</ele>
        <time>2019-08-10T11:38:08Z</time>
      </trkpt>
      <trkpt lat="42.658147" lon="-0.052630">
        <ele>2409.5</ele>
        <time>2019-08-10T11:38:27Z</time>
      </trkpt>
      <trkpt lat="42.658104" lon="-0.052511">
        <ele>2410.5</ele>
        <time>2019-08-10T11:38:42Z</time>
      </trkpt>
      <trkpt lat="42.658102" lon="-0.052384">
        <ele>2410.1</ele>
        <time>2019-08-10T11:38:58Z</time>
      </trkpt>
      <trkpt lat="42.658146" lon="-0.052262">
        <ele>2407.2</ele>
        <time>2019-08-10T11:40:48Z</time>
      </trkpt>
      <trkpt lat="42.658202" lon="-0.052277">
        <ele>2408.2</ele>
        <time>2019-08-10T11:42:34Z</time>
      </trkpt>
      <trkpt lat="42.658277" lon="-0.052183">
        <ele>2409.4</ele>
        <time>2019-08-10T11:43:50Z</time>
      </trkpt>
      <trkpt lat="42.658350" lon="-0.052218">
        <ele>2410.3</ele>
        <time>2019-08-10T11:44:11Z</time>
      </trkpt>
      <trkpt lat="42.658454" lon="-0.052239">
        <ele>2412.2</ele>
        <time>2019-08-10T11:44:35Z</time>
      </trkpt>
      <trkpt lat="42.658528" lon="-0.052327">
        <ele>2413.0</ele>
        <time>2019-08-10T11:44:49Z</time>
      </trkpt>
      <trkpt lat="42.658624" lon="-0.052412">
        <ele>2412.6</ele>
        <time>2019-08-10T11:45:01Z</time>
      </trkpt>
      <trkpt lat="42.658735" lon="-0.052464">
        <ele>2412.6</ele>
        <time>2019-08-10T11:45:11Z</time>
      </trkpt>
      <trkpt lat="42.658835" lon="-0.052453">
        <ele>2412.7</ele>
        <time>2019-08-10T11:45:23Z</time>
      </trkpt>
      <trkpt lat="42.658936" lon="-0.052458">
        <ele>2412.2</ele>
        <time>2019-08-10T11:45:36Z</time>
      </trkpt>
      <trkpt lat="42.659035" lon="-0.052487">
        <ele>2412.2</ele>
        <time>2019-08-10T11:45:47Z</time>
      </trkpt>
      <trkpt lat="42.659128" lon="-0.052536">
        <ele>2410.8</ele>
        <time>2019-08-10T11:46:02Z</time>
      </trkpt>
      <trkpt lat="42.659231" lon="-0.052593">
        <ele>2409.1</ele>
        <time>2019-08-10T11:46:13Z</time>
      </trkpt>
      <trkpt lat="42.659332" lon="-0.052629">
        <ele>2409.1</ele>
        <time>2019-08-10T11:46:25Z</time>
      </trkpt>
      <trkpt lat="42.659418" lon="-0.052673">
        <ele>2409.1</ele>
        <time>2019-08-10T11:46:36Z</time>
      </trkpt>
      <trkpt lat="42.659510" lon="-0.052656">
        <ele>2407.0</ele>
        <time>2019-08-10T11:46:51Z</time>
      </trkpt>
      <trkpt lat="42.659609" lon="-0.052616">
        <ele>2405.1</ele>
        <time>2019-08-10T11:47:04Z</time>
      </trkpt>
      <trkpt lat="42.659680" lon="-0.052538">
        <ele>2405.4</ele>
        <time>2019-08-10T11:47:16Z</time>
      </trkpt>
      <trkpt lat="42.659743" lon="-0.052547">
        <ele>2406.8</ele>
        <time>2019-08-10T11:47:48Z</time>
      </trkpt>
      <trkpt lat="42.659837" lon="-0.052497">
        <ele>2407.7</ele>
        <time>2019-08-10T11:48:00Z</time>
      </trkpt>
      <trkpt lat="42.659911" lon="-0.052417">
        <ele>2406.7</ele>
        <time>2019-08-10T11:48:10Z</time>
      </trkpt>
      <trkpt lat="42.659992" lon="-0.052347">
        <ele>2406.4</ele>
        <time>2019-08-10T11:48:21Z</time>
      </trkpt>
      <trkpt lat="42.660019" lon="-0.052226">
        <ele>2406.5</ele>
        <time>2019-08-10T11:48:33Z</time>
      </trkpt>
      <trkpt lat="42.660013" lon="-0.052073">
        <ele>2406.4</ele>
        <time>2019-08-10T11:48:44Z</time>
      </trkpt>
      <trkpt lat="42.660060" lon="-0.051953">
        <ele>2405.6</ele>
        <time>2019-08-10T11:48:53Z</time>
      </trkpt>
      <trkpt lat="42.660047" lon="-0.051876">
        <ele>2405.4</ele>
        <time>2019-08-10T11:49:21Z</time>
      </trkpt>
      <trkpt lat="42.660102" lon="-0.051794">
        <ele>2405.4</ele>
        <time>2019-08-10T11:49:37Z</time>
      </trkpt>
      <trkpt lat="42.660177" lon="-0.051725">
        <ele>2405.8</ele>
        <time>2019-08-10T11:49:51Z</time>
      </trkpt>
      <trkpt lat="42.660196" lon="-0.051608">
        <ele>2405.5</ele>
        <time>2019-08-10T11:50:04Z</time>
      </trkpt>
      <trkpt lat="42.660216" lon="-0.051490">
        <ele>2405.3</ele>
        <time>2019-08-10T11:50:13Z</time>
      </trkpt>
      <trkpt lat="42.660258" lon="-0.051367">
        <ele>2405.3</ele>
        <time>2019-08-10T11:50:22Z</time>
      </trkpt>
      <trkpt lat="42.660337" lon="-0.051300">
        <ele>2404.5</ele>
        <time>2019-08-10T11:50:32Z</time>
      </trkpt>
      <trkpt lat="42.660425" lon="-0.051260">
        <ele>2403.6</ele>
        <time>2019-08-10T11:50:43Z</time>
      </trkpt>
      <trkpt lat="42.660504" lon="-0.051211">
        <ele>2402.1</ele>
        <time>2019-08-10T11:50:58Z</time>
      </trkpt>
      <trkpt lat="42.660447" lon="-0.051112">
        <ele>2401.2</ele>
        <time>2019-08-10T11:51:07Z</time>
      </trkpt>
      <trkpt lat="42.660485" lon="-0.050998">
        <ele>2402.4</ele>
        <time>2019-08-10T11:51:18Z</time>
      </trkpt>
      <trkpt lat="42.660583" lon="-0.050972">
        <ele>2401.6</ele>
        <time>2019-08-10T11:51:29Z</time>
      </trkpt>
      <trkpt lat="42.660617" lon="-0.050822">
        <ele>2401.1</ele>
        <time>2019-08-10T11:51:51Z</time>
      </trkpt>
      <trkpt lat="42.660607" lon="-0.050681">
        <ele>2401.6</ele>
        <time>2019-08-10T11:52:02Z</time>
      </trkpt>
      <trkpt lat="42.660632" lon="-0.050553">
        <ele>2402.7</ele>
        <time>2019-08-10T11:52:11Z</time>
      </trkpt>
      <trkpt lat="42.660645" lon="-0.050436">
        <ele>2402.6</ele>
        <time>2019-08-10T11:52:21Z</time>
      </trkpt>
      <trkpt lat="42.660618" lon="-0.050310">
        <ele>2402.1</ele>
        <time>2019-08-10T11:52:30Z</time>
      </trkpt>
      <trkpt lat="42.660574" lon="-0.050184">
        <ele>2403.0</ele>
        <time>2019-08-10T11:52:40Z</time>
      </trkpt>
      <trkpt lat="42.660511" lon="-0.050104">
        <ele>2403.0</ele>
        <time>2019-08-10T11:52:50Z</time>
      </trkpt>
      <trkpt lat="42.660477" lon="-0.049967">
        <ele>2403.3</ele>
        <time>2019-08-10T11:53:04Z</time>
      </trkpt>
      <trkpt lat="42.660410" lon="-0.049864">
        <ele>2402.0</ele>
        <time>2019-08-10T11:53:15Z</time>
      </trkpt>
      <trkpt lat="42.660353" lon="-0.049727">
        <ele>2402.9</ele>
        <time>2019-08-10T11:53:28Z</time>
      </trkpt>
      <trkpt lat="42.660379" lon="-0.049578">
        <ele>2403.0</ele>
        <time>2019-08-10T11:53:48Z</time>
      </trkpt>
      <trkpt lat="42.660389" lon="-0.049460">
        <ele>2402.8</ele>
        <time>2019-08-10T11:53:58Z</time>
      </trkpt>
      <trkpt lat="42.660411" lon="-0.049322">
        <ele>2402.4</ele>
        <time>2019-08-10T11:54:09Z</time>
      </trkpt>
      <trkpt lat="42.660454" lon="-0.049214">
        <ele>2403.5</ele>
        <time>2019-08-10T11:54:21Z</time>
      </trkpt>
      <trkpt lat="42.660487" lon="-0.049096">
        <ele>2404.0</ele>
        <time>2019-08-10T11:54:32Z</time>
      </trkpt>
      <trkpt lat="42.660510" lon="-0.048969">
        <ele>2404.3</ele>
        <time>2019-08-10T11:54:44Z</time>
      </trkpt>
      <trkpt lat="42.660534" lon="-0.048839">
        <ele>2404.6</ele>
        <time>2019-08-10T11:54:59Z</time>
      </trkpt>
      <trkpt lat="42.660535" lon="-0.048703">
        <ele>2404.9</ele>
        <time>2019-08-10T11:55:11Z</time>
      </trkpt>
      <trkpt lat="42.660494" lon="-0.048555">
        <ele>2405.2</ele>
        <time>2019-08-10T11:55:27Z</time>
      </trkpt>
      <trkpt lat="42.660457" lon="-0.048428">
        <ele>2405.4</ele>
        <time>2019-08-10T11:55:37Z</time>
      </trkpt>
      <trkpt lat="42.660414" lon="-0.048295">
        <ele>2405.9</ele>
        <time>2019-08-10T11:55:49Z</time>
      </trkpt>
      <trkpt lat="42.660347" lon="-0.048182">
        <ele>2405.9</ele>
        <time>2019-08-10T11:55:59Z</time>
      </trkpt>
      <trkpt lat="42.660285" lon="-0.048071">
        <ele>2405.7</ele>
        <time>2019-08-10T11:56:10Z</time>
      </trkpt>
      <trkpt lat="42.660218" lon="-0.047977">
        <ele>2406.1</ele>
        <time>2019-08-10T11:56:20Z</time>
      </trkpt>
      <trkpt lat="42.660152" lon="-0.047882">
        <ele>2407.2</ele>
        <time>2019-08-10T11:56:31Z</time>
      </trkpt>
      <trkpt lat="42.660105" lon="-0.047824">
        <ele>2408.3</ele>
        <time>2019-08-10T11:57:04Z</time>
      </trkpt>
      <trkpt lat="42.660112" lon="-0.047705">
        <ele>2408.7</ele>
        <time>2019-08-10T11:57:28Z</time>
      </trkpt>
      <trkpt lat="42.660141" lon="-0.047712">
        <ele>2407.8</ele>
        <time>2019-08-10T11:59:50Z</time>
      </trkpt>
      <trkpt lat="42.660228" lon="-0.047692">
        <ele>2407.4</ele>
        <time>2019-08-10T12:00:03Z</time>
      </trkpt>
      <trkpt lat="42.660324" lon="-0.047677">
        <ele>2407.8</ele>
        <time>2019-08-10T12:00:18Z</time>
      </trkpt>
      <trkpt lat="42.660427" lon="-0.047690">
        <ele>2407.9</ele>
        <time>2019-08-10T12:00:32Z</time>
      </trkpt>
      <trkpt lat="42.660525" lon="-0.047737">
        <ele>2406.9</ele>
        <time>2019-08-10T12:00:47Z</time>
      </trkpt>
      <trkpt lat="42.660622" lon="-0.047836">
        <ele>2406.0</ele>
        <time>2019-08-10T12:01:01Z</time>
      </trkpt>
      <trkpt lat="42.660735" lon="-0.047836">
        <ele>2405.6</ele>
        <time>2019-08-10T12:01:13Z</time>
      </trkpt>
      <trkpt lat="42.660836" lon="-0.047734">
        <ele>2404.6</ele>
        <time>2019-08-10T12:01:25Z</time>
      </trkpt>
      <trkpt lat="42.660893" lon="-0.047632">
        <ele>2403.5</ele>
        <time>2019-08-10T12:01:37Z</time>
      </trkpt>
      <trkpt lat="42.660930" lon="-0.047510">
        <ele>2403.4</ele>
        <time>2019-08-10T12:01:48Z</time>
      </trkpt>
      <trkpt lat="42.661005" lon="-0.047442">
        <ele>2403.7</ele>
        <time>2019-08-10T12:01:59Z</time>
      </trkpt>
      <trkpt lat="42.661065" lon="-0.047348">
        <ele>2402.9</ele>
        <time>2019-08-10T12:02:10Z</time>
      </trkpt>
      <trkpt lat="42.661121" lon="-0.047246">
        <ele>2402.3</ele>
        <time>2019-08-10T12:02:20Z</time>
      </trkpt>
      <trkpt lat="42.661197" lon="-0.047137">
        <ele>2400.8</ele>
        <time>2019-08-10T12:02:32Z</time>
      </trkpt>
      <trkpt lat="42.661235" lon="-0.047030">
        <ele>2400.2</ele>
        <time>2019-08-10T12:02:44Z</time>
      </trkpt>
      <trkpt lat="42.661295" lon="-0.046925">
        <ele>2399.9</ele>
        <time>2019-08-10T12:02:55Z</time>
      </trkpt>
      <trkpt lat="42.661358" lon="-0.046830">
        <ele>2399.4</ele>
        <time>2019-08-10T12:03:07Z</time>
      </trkpt>
      <trkpt lat="42.661380" lon="-0.046729">
        <ele>2398.8</ele>
        <time>2019-08-10T12:03:19Z</time>
      </trkpt>
      <trkpt lat="42.661297" lon="-0.046634">
        <ele>2399.8</ele>
        <time>2019-08-10T12:03:40Z</time>
      </trkpt>
      <trkpt lat="42.661263" lon="-0.046529">
        <ele>2400.1</ele>
        <time>2019-08-10T12:03:51Z</time>
      </trkpt>
      <trkpt lat="42.661264" lon="-0.046398">
        <ele>2400.5</ele>
        <time>2019-08-10T12:04:03Z</time>
      </trkpt>
      <trkpt lat="42.661306" lon="-0.046276">
        <ele>2400.5</ele>
        <time>2019-08-10T12:04:18Z</time>
      </trkpt>
      <trkpt lat="42.661369" lon="-0.046184">
        <ele>2399.5</ele>
        <time>2019-08-10T12:04:30Z</time>
      </trkpt>
      <trkpt lat="42.661421" lon="-0.046069">
        <ele>2398.5</ele>
        <time>2019-08-10T12:04:43Z</time>
      </trkpt>
      <trkpt lat="42.661486" lon="-0.045975">
        <ele>2398.0</ele>
        <time>2019-08-10T12:04:55Z</time>
      </trkpt>
      <trkpt lat="42.661569" lon="-0.045880">
        <ele>2396.5</ele>
        <time>2019-08-10T12:05:10Z</time>
      </trkpt>
      <trkpt lat="42.661644" lon="-0.045779">
        <ele>2395.8</ele>
        <time>2019-08-10T12:05:23Z</time>
      </trkpt>
      <trkpt lat="42.661713" lon="-0.045673">
        <ele>2395.0</ele>
        <time>2019-08-10T12:05:36Z</time>
      </trkpt>
      <trkpt lat="42.661780" lon="-0.045576">
        <ele>2394.2</ele>
        <time>2019-08-10T12:05:48Z</time>
      </trkpt>
      <trkpt lat="42.661819" lon="-0.045481">
        <ele>2393.7</ele>
        <time>2019-08-10T12:06:03Z</time>
      </trkpt>
      <trkpt lat="42.661868" lon="-0.045409">
        <ele>2393.3</ele>
        <time>2019-08-10T12:06:20Z</time>
      </trkpt>
      <trkpt lat="42.661950" lon="-0.045347">
        <ele>2392.5</ele>
        <time>2019-08-10T12:06:32Z</time>
      </trkpt>
      <trkpt lat="42.662008" lon="-0.045245">
        <ele>2392.5</ele>
        <time>2019-08-10T12:06:43Z</time>
      </trkpt>
      <trkpt lat="42.662107" lon="-0.045272">
        <ele>2392.9</ele>
        <time>2019-08-10T12:07:08Z</time>
      </trkpt>
      <trkpt lat="42.662208" lon="-0.045232">
        <ele>2393.3</ele>
        <time>2019-08-10T12:07:22Z</time>
      </trkpt>
      <trkpt lat="42.662286" lon="-0.045150">
        <ele>2391.9</ele>
        <time>2019-08-10T12:07:37Z</time>
      </trkpt>
      <trkpt lat="42.662353" lon="-0.045021">
        <ele>2391.2</ele>
        <time>2019-08-10T12:07:50Z</time>
      </trkpt>
      <trkpt lat="42.662387" lon="-0.044865">
        <ele>2390.7</ele>
        <time>2019-08-10T12:08:03Z</time>
      </trkpt>
      <trkpt lat="42.662415" lon="-0.044750">
        <ele>2390.2</ele>
        <time>2019-08-10T12:08:13Z</time>
      </trkpt>
      <trkpt lat="42.662439" lon="-0.044637">
        <ele>2388.4</ele>
        <time>2019-08-10T12:12:41Z</time>
      </trkpt>
      <trkpt lat="42.662470" lon="-0.044650">
        <ele>2387.3</ele>
        <time>2019-08-10T12:14:22Z</time>
      </trkpt>
      <trkpt lat="42.662568" lon="-0.044651">
        <ele>2386.8</ele>
        <time>2019-08-10T12:14:54Z</time>
      </trkpt>
      <trkpt lat="42.662653" lon="-0.044620">
        <ele>2386.8</ele>
        <time>2019-08-10T12:15:11Z</time>
      </trkpt>
      <trkpt lat="42.662718" lon="-0.044701">
        <ele>2388.1</ele>
        <time>2019-08-10T12:15:33Z</time>
      </trkpt>
      <trkpt lat="42.662788" lon="-0.044787">
        <ele>2386.9</ele>
        <time>2019-08-10T12:15:47Z</time>
      </trkpt>
      <trkpt lat="42.662863" lon="-0.044881">
        <ele>2386.5</ele>
        <time>2019-08-10T12:16:01Z</time>
      </trkpt>
      <trkpt lat="42.662904" lon="-0.044857">
        <ele>2384.8</ele>
        <time>2019-08-10T12:16:22Z</time>
      </trkpt>
      <trkpt lat="42.662973" lon="-0.044922">
        <ele>2383.6</ele>
        <time>2019-08-10T12:16:40Z</time>
      </trkpt>
      <trkpt lat="42.663065" lon="-0.044957">
        <ele>2383.8</ele>
        <time>2019-08-10T12:16:53Z</time>
      </trkpt>
      <trkpt lat="42.663167" lon="-0.044964">
        <ele>2384.0</ele>
        <time>2019-08-10T12:17:03Z</time>
      </trkpt>
      <trkpt lat="42.663258" lon="-0.044978">
        <ele>2384.9</ele>
        <time>2019-08-10T12:17:14Z</time>
      </trkpt>
      <trkpt lat="42.663333" lon="-0.045025">
        <ele>2385.3</ele>
        <time>2019-08-10T12:17:27Z</time>
      </trkpt>
      <trkpt lat="42.663427" lon="-0.045029">
        <ele>2384.6</ele>
        <time>2019-08-10T12:17:40Z</time>
      </trkpt>
      <trkpt lat="42.663507" lon="-0.045100">
        <ele>2383.9</ele>
        <time>2019-08-10T12:17:53Z</time>
      </trkpt>
      <trkpt lat="42.663577" lon="-0.045184">
        <ele>2384.3</ele>
        <time>2019-08-10T12:18:05Z</time>
      </trkpt>
      <trkpt lat="42.663642" lon="-0.045299">
        <ele>2384.2</ele>
        <time>2019-08-10T12:18:19Z</time>
      </trkpt>
      <trkpt lat="42.663706" lon="-0.045405">
        <ele>2383.7</ele>
        <time>2019-08-10T12:18:31Z</time>
      </trkpt>
      <trkpt lat="42.663775" lon="-0.045496">
        <ele>2383.7</ele>
        <time>2019-08-10T12:18:43Z</time>
      </trkpt>
      <trkpt lat="42.663863" lon="-0.045586">
        <ele>2383.3</ele>
        <time>2019-08-10T12:18:57Z</time>
      </trkpt>
      <trkpt lat="42.663931" lon="-0.045685">
        <ele>2382.9</ele>
        <time>2019-08-10T12:19:10Z</time>
      </trkpt>
      <trkpt lat="42.663989" lon="-0.045784">
        <ele>2382.4</ele>
        <time>2019-08-10T12:19:21Z</time>
      </trkpt>
      <trkpt lat="42.664036" lon="-0.045900">
        <ele>2382.1</ele>
        <time>2019-08-10T12:19:33Z</time>
      </trkpt>
      <trkpt lat="42.664129" lon="-0.045948">
        <ele>2381.5</ele>
        <time>2019-08-10T12:19:46Z</time>
      </trkpt>
      <trkpt lat="42.664187" lon="-0.046045">
        <ele>2380.3</ele>
        <time>2019-08-10T12:19:58Z</time>
      </trkpt>
      <trkpt lat="42.664293" lon="-0.046087">
        <ele>2379.0</ele>
        <time>2019-08-10T12:20:32Z</time>
      </trkpt>
      <trkpt lat="42.664386" lon="-0.046073">
        <ele>2376.1</ele>
        <time>2019-08-10T12:20:47Z</time>
      </trkpt>
      <trkpt lat="42.664440" lon="-0.046113">
        <ele>2375.1</ele>
        <time>2019-08-10T12:21:02Z</time>
      </trkpt>
      <trkpt lat="42.664519" lon="-0.046097">
        <ele>2373.6</ele>
        <time>2019-08-10T12:21:17Z</time>
      </trkpt>
      <trkpt lat="42.664594" lon="-0.046058">
        <ele>2372.8</ele>
        <time>2019-08-10T12:21:31Z</time>
      </trkpt>
      <trkpt lat="42.664681" lon="-0.046132">
        <ele>2371.6</ele>
        <time>2019-08-10T12:21:43Z</time>
      </trkpt>
      <trkpt lat="42.664731" lon="-0.046215">
        <ele>2371.3</ele>
        <time>2019-08-10T12:21:56Z</time>
      </trkpt>
      <trkpt lat="42.664811" lon="-0.046157">
        <ele>2370.8</ele>
        <time>2019-08-10T12:22:07Z</time>
      </trkpt>
      <trkpt lat="42.664888" lon="-0.046074">
        <ele>2370.5</ele>
        <time>2019-08-10T12:22:21Z</time>
      </trkpt>
      <trkpt lat="42.664980" lon="-0.046045">
        <ele>2368.3</ele>
        <time>2019-08-10T12:22:32Z</time>
      </trkpt>
      <trkpt lat="42.665056" lon="-0.045988">
        <ele>2366.5</ele>
        <time>2019-08-10T12:22:43Z</time>
      </trkpt>
      <trkpt lat="42.665121" lon="-0.045897">
        <ele>2364.6</ele>
        <time>2019-08-10T12:22:55Z</time>
      </trkpt>
      <trkpt lat="42.665179" lon="-0.045813">
        <ele>2363.1</ele>
        <time>2019-08-10T12:24:30Z</time>
      </trkpt>
      <trkpt lat="42.665271" lon="-0.045828">
        <ele>2361.6</ele>
        <time>2019-08-10T12:24:40Z</time>
      </trkpt>
      <trkpt lat="42.665370" lon="-0.045853">
        <ele>2360.5</ele>
        <time>2019-08-10T12:24:52Z</time>
      </trkpt>
      <trkpt lat="42.665472" lon="-0.045887">
        <ele>2358.6</ele>
        <time>2019-08-10T12:25:06Z</time>
      </trkpt>
      <trkpt lat="42.665559" lon="-0.045952">
        <ele>2357.8</ele>
        <time>2019-08-10T12:25:20Z</time>
      </trkpt>
      <trkpt lat="42.665663" lon="-0.045890">
        <ele>2359.6</ele>
        <time>2019-08-10T12:25:32Z</time>
      </trkpt>
      <trkpt lat="42.665762" lon="-0.045908">
        <ele>2359.1</ele>
        <time>2019-08-10T12:25:44Z</time>
      </trkpt>
      <trkpt lat="42.665868" lon="-0.045919">
        <ele>2358.3</ele>
        <time>2019-08-10T12:25:55Z</time>
      </trkpt>
      <trkpt lat="42.665970" lon="-0.045912">
        <ele>2357.5</ele>
        <time>2019-08-10T12:26:06Z</time>
      </trkpt>
      <trkpt lat="42.666060" lon="-0.045902">
        <ele>2356.0</ele>
        <time>2019-08-10T12:26:17Z</time>
      </trkpt>
      <trkpt lat="42.666147" lon="-0.045837">
        <ele>2353.2</ele>
        <time>2019-08-10T12:26:28Z</time>
      </trkpt>
      <trkpt lat="42.666228" lon="-0.045756">
        <ele>2350.3</ele>
        <time>2019-08-10T12:26:40Z</time>
      </trkpt>
      <trkpt lat="42.666301" lon="-0.045659">
        <ele>2348.2</ele>
        <time>2019-08-10T12:26:52Z</time>
      </trkpt>
      <trkpt lat="42.666394" lon="-0.045641">
        <ele>2346.5</ele>
        <time>2019-08-10T12:27:02Z</time>
      </trkpt>
      <trkpt lat="42.666472" lon="-0.045589">
        <ele>2344.7</ele>
        <time>2019-08-10T12:27:13Z</time>
      </trkpt>
      <trkpt lat="42.666562" lon="-0.045600">
        <ele>2343.3</ele>
        <time>2019-08-10T12:27:23Z</time>
      </trkpt>
      <trkpt lat="42.666646" lon="-0.045610">
        <ele>2342.3</ele>
        <time>2019-08-10T12:27:33Z</time>
      </trkpt>
      <trkpt lat="42.666728" lon="-0.045651">
        <ele>2341.5</ele>
        <time>2019-08-10T12:27:44Z</time>
      </trkpt>
      <trkpt lat="42.666826" lon="-0.045723">
        <ele>2341.4</ele>
        <time>2019-08-10T12:27:56Z</time>
      </trkpt>
      <trkpt lat="42.666905" lon="-0.045813">
        <ele>2341.4</ele>
        <time>2019-08-10T12:28:07Z</time>
      </trkpt>
      <trkpt lat="42.666987" lon="-0.045898">
        <ele>2342.0</ele>
        <time>2019-08-10T12:28:18Z</time>
      </trkpt>
      <trkpt lat="42.667060" lon="-0.045986">
        <ele>2342.3</ele>
        <time>2019-08-10T12:28:30Z</time>
      </trkpt>
      <trkpt lat="42.667171" lon="-0.045992">
        <ele>2344.9</ele>
        <time>2019-08-10T12:28:46Z</time>
      </trkpt>
      <trkpt lat="42.667216" lon="-0.046090">
        <ele>2346.6</ele>
        <time>2019-08-10T12:28:58Z</time>
      </trkpt>
      <trkpt lat="42.667258" lon="-0.046204">
        <ele>2347.0</ele>
        <time>2019-08-10T12:29:09Z</time>
      </trkpt>
      <trkpt lat="42.667281" lon="-0.046331">
        <ele>2347.8</ele>
        <time>2019-08-10T12:29:19Z</time>
      </trkpt>
      <trkpt lat="42.667324" lon="-0.046432">
        <ele>2348.4</ele>
        <time>2019-08-10T12:29:28Z</time>
      </trkpt>
      <trkpt lat="42.667384" lon="-0.046535">
        <ele>2348.6</ele>
        <time>2019-08-10T12:29:38Z</time>
      </trkpt>
      <trkpt lat="42.667437" lon="-0.046641">
        <ele>2348.4</ele>
        <time>2019-08-10T12:29:48Z</time>
      </trkpt>
      <trkpt lat="42.667525" lon="-0.046704">
        <ele>2348.1</ele>
        <time>2019-08-10T12:29:59Z</time>
      </trkpt>
      <trkpt lat="42.667568" lon="-0.046816">
        <ele>2348.2</ele>
        <time>2019-08-10T12:30:12Z</time>
      </trkpt>
      <trkpt lat="42.667640" lon="-0.046907">
        <ele>2348.7</ele>
        <time>2019-08-10T12:30:24Z</time>
      </trkpt>
      <trkpt lat="42.667715" lon="-0.046988">
        <ele>2349.4</ele>
        <time>2019-08-10T12:30:40Z</time>
      </trkpt>
      <trkpt lat="42.667797" lon="-0.047060">
        <ele>2351.7</ele>
        <time>2019-08-10T12:31:00Z</time>
      </trkpt>
      <trkpt lat="42.667918" lon="-0.047028">
        <ele>2352.9</ele>
        <time>2019-08-10T12:31:21Z</time>
      </trkpt>
      <trkpt lat="42.667961" lon="-0.046922">
        <ele>2354.3</ele>
        <time>2019-08-10T12:31:43Z</time>
      </trkpt>
      <trkpt lat="42.668030" lon="-0.046893">
        <ele>2356.3</ele>
        <time>2019-08-10T12:32:00Z</time>
      </trkpt>
      <trkpt lat="42.668092" lon="-0.046915">
        <ele>2357.8</ele>
        <time>2019-08-10T12:33:28Z</time>
      </trkpt>
      <trkpt lat="42.668177" lon="-0.047003">
        <ele>2357.5</ele>
        <time>2019-08-10T12:33:41Z</time>
      </trkpt>
      <trkpt lat="42.668262" lon="-0.047041">
        <ele>2355.7</ele>
        <time>2019-08-10T12:33:53Z</time>
      </trkpt>
      <trkpt lat="42.668331" lon="-0.047112">
        <ele>2354.1</ele>
        <time>2019-08-10T12:34:04Z</time>
      </trkpt>
      <trkpt lat="42.668426" lon="-0.047130">
        <ele>2352.3</ele>
        <time>2019-08-10T12:34:16Z</time>
      </trkpt>
      <trkpt lat="42.668521" lon="-0.047138">
        <ele>2350.5</ele>
        <time>2019-08-10T12:34:29Z</time>
      </trkpt>
      <trkpt lat="42.668591" lon="-0.047097">
        <ele>2348.4</ele>
        <time>2019-08-10T12:34:46Z</time>
      </trkpt>
      <trkpt lat="42.668692" lon="-0.047038">
        <ele>2344.4</ele>
        <time>2019-08-10T12:35:10Z</time>
      </trkpt>
      <trkpt lat="42.668792" lon="-0.047055">
        <ele>2342.7</ele>
        <time>2019-08-10T12:35:23Z</time>
      </trkpt>
      <trkpt lat="42.668876" lon="-0.047106">
        <ele>2341.3</ele>
        <time>2019-08-10T12:35:35Z</time>
      </trkpt>
      <trkpt lat="42.668970" lon="-0.047080">
        <ele>2339.5</ele>
        <time>2019-08-10T12:35:49Z</time>
      </trkpt>
      <trkpt lat="42.669071" lon="-0.047081">
        <ele>2337.0</ele>
        <time>2019-08-10T12:36:02Z</time>
      </trkpt>
      <trkpt lat="42.669159" lon="-0.047055">
        <ele>2335.0</ele>
        <time>2019-08-10T12:36:13Z</time>
      </trkpt>
      <trkpt lat="42.669244" lon="-0.047037">
        <ele>2333.1</ele>
        <time>2019-08-10T12:36:25Z</time>
      </trkpt>
      <trkpt lat="42.669303" lon="-0.046940">
        <ele>2330.6</ele>
        <time>2019-08-10T12:36:36Z</time>
      </trkpt>
      <trkpt lat="42.669337" lon="-0.046839">
        <ele>2329.0</ele>
        <time>2019-08-10T12:36:47Z</time>
      </trkpt>
      <trkpt lat="42.669417" lon="-0.046805">
        <ele>2329.0</ele>
        <time>2019-08-10T12:37:01Z</time>
      </trkpt>
      <trkpt lat="42.669513" lon="-0.046801">
        <ele>2329.3</ele>
        <time>2019-08-10T12:37:14Z</time>
      </trkpt>
      <trkpt lat="42.669580" lon="-0.046902">
        <ele>2329.6</ele>
        <time>2019-08-10T12:37:26Z</time>
      </trkpt>
      <trkpt lat="42.669588" lon="-0.047018">
        <ele>2330.1</ele>
        <time>2019-08-10T12:37:37Z</time>
      </trkpt>
      <trkpt lat="42.669627" lon="-0.047132">
        <ele>2330.2</ele>
        <time>2019-08-10T12:37:48Z</time>
      </trkpt>
      <trkpt lat="42.669665" lon="-0.047255">
        <ele>2329.7</ele>
        <time>2019-08-10T12:37:59Z</time>
      </trkpt>
      <trkpt lat="42.669705" lon="-0.047375">
        <ele>2329.4</ele>
        <time>2019-08-10T12:38:11Z</time>
      </trkpt>
      <trkpt lat="42.669728" lon="-0.047507">
        <ele>2330.1</ele>
        <time>2019-08-10T12:38:22Z</time>
      </trkpt>
      <trkpt lat="42.669768" lon="-0.047614">
        <ele>2331.0</ele>
        <time>2019-08-10T12:38:33Z</time>
      </trkpt>
      <trkpt lat="42.669821" lon="-0.047731">
        <ele>2332.1</ele>
        <time>2019-08-10T12:38:45Z</time>
      </trkpt>
      <trkpt lat="42.669852" lon="-0.047854">
        <ele>2333.0</ele>
        <time>2019-08-10T12:38:56Z</time>
      </trkpt>
      <trkpt lat="42.669905" lon="-0.047961">
        <ele>2333.3</ele>
        <time>2019-08-10T12:39:06Z</time>
      </trkpt>
      <trkpt lat="42.669955" lon="-0.048073">
        <ele>2333.0</ele>
        <time>2019-08-10T12:39:16Z</time>
      </trkpt>
      <trkpt lat="42.670004" lon="-0.048181">
        <ele>2332.9</ele>
        <time>2019-08-10T12:39:26Z</time>
      </trkpt>
      <trkpt lat="42.670085" lon="-0.048235">
        <ele>2332.6</ele>
        <time>2019-08-10T12:39:39Z</time>
      </trkpt>
      <trkpt lat="42.670167" lon="-0.048263">
        <ele>2332.6</ele>
        <time>2019-08-10T12:39:52Z</time>
      </trkpt>
      <trkpt lat="42.670240" lon="-0.048361">
        <ele>2331.4</ele>
        <time>2019-08-10T12:40:04Z</time>
      </trkpt>
      <trkpt lat="42.670332" lon="-0.048393">
        <ele>2330.0</ele>
        <time>2019-08-10T12:40:13Z</time>
      </trkpt>
      <trkpt lat="42.670410" lon="-0.048431">
        <ele>2330.4</ele>
        <time>2019-08-10T12:40:28Z</time>
      </trkpt>
      <trkpt lat="42.670495" lon="-0.048421">
        <ele>2328.4</ele>
        <time>2019-08-10T12:41:19Z</time>
      </trkpt>
      <trkpt lat="42.670566" lon="-0.048359">
        <ele>2327.6</ele>
        <time>2019-08-10T12:41:38Z</time>
      </trkpt>
      <trkpt lat="42.670648" lon="-0.048409">
        <ele>2327.1</ele>
        <time>2019-08-10T12:41:52Z</time>
      </trkpt>
      <trkpt lat="42.670743" lon="-0.048410">
        <ele>2326.7</ele>
        <time>2019-08-10T12:42:02Z</time>
      </trkpt>
      <trkpt lat="42.670827" lon="-0.048348">
        <ele>2326.6</ele>
        <time>2019-08-10T12:42:12Z</time>
      </trkpt>
      <trkpt lat="42.670908" lon="-0.048283">
        <ele>2326.1</ele>
        <time>2019-08-10T12:42:28Z</time>
      </trkpt>
      <trkpt lat="42.670977" lon="-0.048206">
        <ele>2326.0</ele>
        <time>2019-08-10T12:42:41Z</time>
      </trkpt>
      <trkpt lat="42.671061" lon="-0.048134">
        <ele>2325.1</ele>
        <time>2019-08-10T12:42:53Z</time>
      </trkpt>
      <trkpt lat="42.671138" lon="-0.048072">
        <ele>2324.3</ele>
        <time>2019-08-10T12:43:04Z</time>
      </trkpt>
      <trkpt lat="42.671169" lon="-0.047963">
        <ele>2322.7</ele>
        <time>2019-08-10T12:43:29Z</time>
      </trkpt>
      <trkpt lat="42.671201" lon="-0.047833">
        <ele>2322.6</ele>
        <time>2019-08-10T12:43:39Z</time>
      </trkpt>
      <trkpt lat="42.671245" lon="-0.047708">
        <ele>2322.3</ele>
        <time>2019-08-10T12:43:49Z</time>
      </trkpt>
      <trkpt lat="42.671286" lon="-0.047593">
        <ele>2322.0</ele>
        <time>2019-08-10T12:43:59Z</time>
      </trkpt>
      <trkpt lat="42.671325" lon="-0.047485">
        <ele>2320.4</ele>
        <time>2019-08-10T12:44:11Z</time>
      </trkpt>
      <trkpt lat="42.671383" lon="-0.047383">
        <ele>2319.1</ele>
        <time>2019-08-10T12:44:20Z</time>
      </trkpt>
      <trkpt lat="42.671409" lon="-0.047251">
        <ele>2319.5</ele>
        <time>2019-08-10T12:44:30Z</time>
      </trkpt>
      <trkpt lat="42.671404" lon="-0.047132">
        <ele>2319.1</ele>
        <time>2019-08-10T12:44:42Z</time>
      </trkpt>
      <trkpt lat="42.671440" lon="-0.047016">
        <ele>2318.8</ele>
        <time>2019-08-10T12:44:52Z</time>
      </trkpt>
      <trkpt lat="42.671509" lon="-0.046921">
        <ele>2318.0</ele>
        <time>2019-08-10T12:45:01Z</time>
      </trkpt>
      <trkpt lat="42.671538" lon="-0.046805">
        <ele>2317.2</ele>
        <time>2019-08-10T12:45:10Z</time>
      </trkpt>
      <trkpt lat="42.671534" lon="-0.046669">
        <ele>2317.0</ele>
        <time>2019-08-10T12:45:19Z</time>
      </trkpt>
      <trkpt lat="42.671526" lon="-0.046526">
        <ele>2316.9</ele>
        <time>2019-08-10T12:45:28Z</time>
      </trkpt>
      <trkpt lat="42.671527" lon="-0.046393">
        <ele>2316.5</ele>
        <time>2019-08-10T12:45:38Z</time>
      </trkpt>
      <trkpt lat="42.671506" lon="-0.046264">
        <ele>2315.9</ele>
        <time>2019-08-10T12:45:50Z</time>
      </trkpt>
      <trkpt lat="42.671495" lon="-0.046134">
        <ele>2315.2</ele>
        <time>2019-08-10T12:46:01Z</time>
      </trkpt>
      <trkpt lat="42.671520" lon="-0.046014">
        <ele>2314.9</ele>
        <time>2019-08-10T12:46:12Z</time>
      </trkpt>
      <trkpt lat="42.671579" lon="-0.045905">
        <ele>2314.6</ele>
        <time>2019-08-10T12:46:22Z</time>
      </trkpt>
      <trkpt lat="42.671596" lon="-0.045784">
        <ele>2315.8</ele>
        <time>2019-08-10T12:46:49Z</time>
      </trkpt>
      <trkpt lat="42.671537" lon="-0.045676">
        <ele>2315.8</ele>
        <time>2019-08-10T12:47:19Z</time>
      </trkpt>
      <trkpt lat="42.671455" lon="-0.045633">
        <ele>2315.7</ele>
        <time>2019-08-10T12:47:30Z</time>
      </trkpt>
      <trkpt lat="42.671397" lon="-0.045548">
        <ele>2314.5</ele>
        <time>2019-08-10T12:47:39Z</time>
      </trkpt>
      <trkpt lat="42.671388" lon="-0.045435">
        <ele>2313.9</ele>
        <time>2019-08-10T12:47:48Z</time>
      </trkpt>
      <trkpt lat="42.671368" lon="-0.045308">
        <ele>2313.2</ele>
        <time>2019-08-10T12:48:05Z</time>
      </trkpt>
      <trkpt lat="42.671361" lon="-0.045187">
        <ele>2313.0</ele>
        <time>2019-08-10T12:48:14Z</time>
      </trkpt>
      <trkpt lat="42.671321" lon="-0.045061">
        <ele>2312.1</ele>
        <time>2019-08-10T12:48:23Z</time>
      </trkpt>
      <trkpt lat="42.671289" lon="-0.044943">
        <ele>2311.8</ele>
        <time>2019-08-10T12:48:31Z</time>
      </trkpt>
      <trkpt lat="42.671278" lon="-0.044814">
        <ele>2311.9</ele>
        <time>2019-08-10T12:48:40Z</time>
      </trkpt>
      <trkpt lat="42.671281" lon="-0.044691">
        <ele>2311.8</ele>
        <time>2019-08-10T12:48:48Z</time>
      </trkpt>
      <trkpt lat="42.671300" lon="-0.044573">
        <ele>2311.7</ele>
        <time>2019-08-10T12:48:57Z</time>
      </trkpt>
      <trkpt lat="42.671294" lon="-0.044440">
        <ele>2311.5</ele>
        <time>2019-08-10T12:49:07Z</time>
      </trkpt>
      <trkpt lat="42.671314" lon="-0.044310">
        <ele>2312.0</ele>
        <time>2019-08-10T12:49:17Z</time>
      </trkpt>
      <trkpt lat="42.671326" lon="-0.044181">
        <ele>2313.9</ele>
        <time>2019-08-10T12:49:30Z</time>
      </trkpt>
      <trkpt lat="42.671303" lon="-0.044042">
        <ele>2313.9</ele>
        <time>2019-08-10T12:49:42Z</time>
      </trkpt>
      <trkpt lat="42.671315" lon="-0.043925">
        <ele>2314.1</ele>
        <time>2019-08-10T12:49:52Z</time>
      </trkpt>
      <trkpt lat="42.671310" lon="-0.043794">
        <ele>2314.3</ele>
        <time>2019-08-10T12:50:01Z</time>
      </trkpt>
      <trkpt lat="42.671283" lon="-0.043648">
        <ele>2313.7</ele>
        <time>2019-08-10T12:50:11Z</time>
      </trkpt>
      <trkpt lat="42.671260" lon="-0.043528">
        <ele>2313.1</ele>
        <time>2019-08-10T12:50:19Z</time>
      </trkpt>
      <trkpt lat="42.671282" lon="-0.043411">
        <ele>2313.1</ele>
        <time>2019-08-10T12:50:28Z</time>
      </trkpt>
      <trkpt lat="42.671279" lon="-0.043294">
        <ele>2312.6</ele>
        <time>2019-08-10T12:50:37Z</time>
      </trkpt>
      <trkpt lat="42.671250" lon="-0.043171">
        <ele>2311.9</ele>
        <time>2019-08-10T12:50:46Z</time>
      </trkpt>
      <trkpt lat="42.671254" lon="-0.043051">
        <ele>2311.4</ele>
        <time>2019-08-10T12:50:56Z</time>
      </trkpt>
      <trkpt lat="42.671249" lon="-0.042916">
        <ele>2310.6</ele>
        <time>2019-08-10T12:51:05Z</time>
      </trkpt>
      <trkpt lat="42.671228" lon="-0.042784">
        <ele>2310.3</ele>
        <time>2019-08-10T12:51:14Z</time>
      </trkpt>
      <trkpt lat="42.671199" lon="-0.042676">
        <ele>2310.2</ele>
        <time>2019-08-10T12:51:22Z</time>
      </trkpt>
      <trkpt lat="42.671189" lon="-0.042569">
        <ele>2310.1</ele>
        <time>2019-08-10T12:51:33Z</time>
      </trkpt>
      <trkpt lat="42.671160" lon="-0.042481">
        <ele>2307.9</ele>
        <time>2019-08-10T12:52:00Z</time>
      </trkpt>
      <trkpt lat="42.671177" lon="-0.042368">
        <ele>2307.1</ele>
        <time>2019-08-10T12:52:11Z</time>
      </trkpt>
      <trkpt lat="42.671172" lon="-0.042257">
        <ele>2307.7</ele>
        <time>2019-08-10T12:52:23Z</time>
      </trkpt>
      <trkpt lat="42.671109" lon="-0.042133">
        <ele>2309.2</ele>
        <time>2019-08-10T12:52:36Z</time>
      </trkpt>
      <trkpt lat="42.671088" lon="-0.042008">
        <ele>2311.0</ele>
        <time>2019-08-10T12:52:48Z</time>
      </trkpt>
      <trkpt lat="42.671029" lon="-0.041890">
        <ele>2311.9</ele>
        <time>2019-08-10T12:53:00Z</time>
      </trkpt>
      <trkpt lat="42.670973" lon="-0.041795">
        <ele>2313.1</ele>
        <time>2019-08-10T12:53:10Z</time>
      </trkpt>
      <trkpt lat="42.670946" lon="-0.041678">
        <ele>2313.9</ele>
        <time>2019-08-10T12:53:21Z</time>
      </trkpt>
      <trkpt lat="42.670918" lon="-0.041562">
        <ele>2313.4</ele>
        <time>2019-08-10T12:53:33Z</time>
      </trkpt>
      <trkpt lat="42.670977" lon="-0.041496">
        <ele>2311.8</ele>
        <time>2019-08-10T12:53:52Z</time>
      </trkpt>
      <trkpt lat="42.671036" lon="-0.041394">
        <ele>2312.7</ele>
        <time>2019-08-10T12:54:06Z</time>
      </trkpt>
      <trkpt lat="42.671099" lon="-0.041286">
        <ele>2314.3</ele>
        <time>2019-08-10T12:54:20Z</time>
      </trkpt>
      <trkpt lat="42.671180" lon="-0.041308">
        <ele>2315.8</ele>
        <time>2019-08-10T12:54:37Z</time>
      </trkpt>
      <trkpt lat="42.671280" lon="-0.041328">
        <ele>2319.7</ele>
        <time>2019-08-10T12:55:08Z</time>
      </trkpt>
      <trkpt lat="42.671313" lon="-0.041191">
        <ele>2321.6</ele>
        <time>2019-08-10T12:55:22Z</time>
      </trkpt>
      <trkpt lat="42.671428" lon="-0.041136">
        <ele>2325.8</ele>
        <time>2019-08-10T12:55:54Z</time>
      </trkpt>
      <trkpt lat="42.671495" lon="-0.041167">
        <ele>2328.6</ele>
        <time>2019-08-10T12:56:28Z</time>
      </trkpt>
      <trkpt lat="42.671574" lon="-0.041260">
        <ele>2328.7</ele>
        <time>2019-08-10T12:57:36Z</time>
      </trkpt>
      <trkpt lat="42.671654" lon="-0.041307">
        <ele>2329.6</ele>
        <time>2019-08-10T12:57:46Z</time>
      </trkpt>
      <trkpt lat="42.671742" lon="-0.041332">
        <ele>2330.2</ele>
        <time>2019-08-10T12:57:55Z</time>
      </trkpt>
      <trkpt lat="42.671838" lon="-0.041351">
        <ele>2330.6</ele>
        <time>2019-08-10T12:58:06Z</time>
      </trkpt>
      <trkpt lat="42.671926" lon="-0.041373">
        <ele>2331.8</ele>
        <time>2019-08-10T12:58:19Z</time>
      </trkpt>
      <trkpt lat="42.672016" lon="-0.041368">
        <ele>2331.4</ele>
        <time>2019-08-10T12:58:36Z</time>
      </trkpt>
      <trkpt lat="42.672095" lon="-0.041379">
        <ele>2331.7</ele>
        <time>2019-08-10T12:58:52Z</time>
      </trkpt>
      <trkpt lat="42.672191" lon="-0.041420">
        <ele>2333.3</ele>
        <time>2019-08-10T12:59:10Z</time>
      </trkpt>
      <trkpt lat="42.672296" lon="-0.041454">
        <ele>2334.5</ele>
        <time>2019-08-10T12:59:24Z</time>
      </trkpt>
      <trkpt lat="42.672383" lon="-0.041468">
        <ele>2335.7</ele>
        <time>2019-08-10T12:59:39Z</time>
      </trkpt>
      <trkpt lat="42.672465" lon="-0.041543">
        <ele>2339.6</ele>
        <time>2019-08-10T12:59:57Z</time>
      </trkpt>
      <trkpt lat="42.672558" lon="-0.041593">
        <ele>2340.4</ele>
        <time>2019-08-10T13:00:10Z</time>
      </trkpt>
      <trkpt lat="42.672635" lon="-0.041656">
        <ele>2343.2</ele>
        <time>2019-08-10T13:00:26Z</time>
      </trkpt>
      <trkpt lat="42.672729" lon="-0.041688">
        <ele>2345.1</ele>
        <time>2019-08-10T13:00:39Z</time>
      </trkpt>
      <trkpt lat="42.672807" lon="-0.041766">
        <ele>2346.6</ele>
        <time>2019-08-10T13:00:52Z</time>
      </trkpt>
      <trkpt lat="42.672911" lon="-0.041792">
        <ele>2347.2</ele>
        <time>2019-08-10T13:01:06Z</time>
      </trkpt>
      <trkpt lat="42.673016" lon="-0.041840">
        <ele>2350.8</ele>
        <time>2019-08-10T13:01:22Z</time>
      </trkpt>
      <trkpt lat="42.673105" lon="-0.041868">
        <ele>2351.4</ele>
        <time>2019-08-10T13:01:34Z</time>
      </trkpt>
      <trkpt lat="42.673203" lon="-0.041828">
        <ele>2351.0</ele>
        <time>2019-08-10T13:01:45Z</time>
      </trkpt>
      <trkpt lat="42.673291" lon="-0.041807">
        <ele>2350.9</ele>
        <time>2019-08-10T13:01:58Z</time>
      </trkpt>
      <trkpt lat="42.673396" lon="-0.041772">
        <ele>2350.9</ele>
        <time>2019-08-10T13:02:17Z</time>
      </trkpt>
      <trkpt lat="42.673495" lon="-0.041743">
        <ele>2350.9</ele>
        <time>2019-08-10T13:02:27Z</time>
      </trkpt>
      <trkpt lat="42.673591" lon="-0.041711">
        <ele>2351.4</ele>
        <time>2019-08-10T13:02:37Z</time>
      </trkpt>
      <trkpt lat="42.673675" lon="-0.041651">
        <ele>2351.9</ele>
        <time>2019-08-10T13:02:46Z</time>
      </trkpt>
      <trkpt lat="42.673768" lon="-0.041614">
        <ele>2351.4</ele>
        <time>2019-08-10T13:02:56Z</time>
      </trkpt>
      <trkpt lat="42.673842" lon="-0.041608">
        <ele>2351.4</ele>
        <time>2019-08-10T13:03:10Z</time>
      </trkpt>
      <trkpt lat="42.673933" lon="-0.041559">
        <ele>2351.6</ele>
        <time>2019-08-10T13:03:21Z</time>
      </trkpt>
      <trkpt lat="42.673994" lon="-0.041479">
        <ele>2351.7</ele>
        <time>2019-08-10T13:03:29Z</time>
      </trkpt>
      <trkpt lat="42.674085" lon="-0.041431">
        <ele>2351.6</ele>
        <time>2019-08-10T13:03:52Z</time>
      </trkpt>
      <trkpt lat="42.674176" lon="-0.041398">
        <ele>2351.3</ele>
        <time>2019-08-10T13:04:01Z</time>
      </trkpt>
      <trkpt lat="42.674268" lon="-0.041356">
        <ele>2351.4</ele>
        <time>2019-08-10T13:04:10Z</time>
      </trkpt>
      <trkpt lat="42.674353" lon="-0.041296">
        <ele>2351.4</ele>
        <time>2019-08-10T13:04:19Z</time>
      </trkpt>
      <trkpt lat="42.674452" lon="-0.041258">
        <ele>2351.4</ele>
        <time>2019-08-10T13:04:27Z</time>
      </trkpt>
      <trkpt lat="42.674540" lon="-0.041210">
        <ele>2351.4</ele>
        <time>2019-08-10T13:04:35Z</time>
      </trkpt>
      <trkpt lat="42.674628" lon="-0.041172">
        <ele>2351.2</ele>
        <time>2019-08-10T13:04:46Z</time>
      </trkpt>
      <trkpt lat="42.674720" lon="-0.041139">
        <ele>2351.3</ele>
        <time>2019-08-10T13:04:59Z</time>
      </trkpt>
      <trkpt lat="42.674815" lon="-0.041121">
        <ele>2351.3</ele>
        <time>2019-08-10T13:05:08Z</time>
      </trkpt>
      <trkpt lat="42.674915" lon="-0.041093">
        <ele>2351.4</ele>
        <time>2019-08-10T13:05:17Z</time>
      </trkpt>
      <trkpt lat="42.675014" lon="-0.041064">
        <ele>2351.3</ele>
        <time>2019-08-10T13:05:26Z</time>
      </trkpt>
      <trkpt lat="42.675115" lon="-0.041046">
        <ele>2351.4</ele>
        <time>2019-08-10T13:05:34Z</time>
      </trkpt>
      <trkpt lat="42.675202" lon="-0.041015">
        <ele>2351.7</ele>
        <time>2019-08-10T13:05:42Z</time>
      </trkpt>
      <trkpt lat="42.675288" lon="-0.040998">
        <ele>2351.4</ele>
        <time>2019-08-10T13:05:51Z</time>
      </trkpt>
      <trkpt lat="42.675384" lon="-0.040973">
        <ele>2351.7</ele>
        <time>2019-08-10T13:06:00Z</time>
      </trkpt>
      <trkpt lat="42.675471" lon="-0.040944">
        <ele>2351.8</ele>
        <time>2019-08-10T13:06:08Z</time>
      </trkpt>
      <trkpt lat="42.675573" lon="-0.040930">
        <ele>2351.9</ele>
        <time>2019-08-10T13:06:17Z</time>
      </trkpt>
      <trkpt lat="42.675668" lon="-0.040910">
        <ele>2351.9</ele>
        <time>2019-08-10T13:06:26Z</time>
      </trkpt>
      <trkpt lat="42.675761" lon="-0.040896">
        <ele>2352.0</ele>
        <time>2019-08-10T13:06:34Z</time>
      </trkpt>
      <trkpt lat="42.675860" lon="-0.040886">
        <ele>2352.2</ele>
        <time>2019-08-10T13:06:43Z</time>
      </trkpt>
      <trkpt lat="42.675952" lon="-0.040858">
        <ele>2352.6</ele>
        <time>2019-08-10T13:06:51Z</time>
      </trkpt>
      <trkpt lat="42.676052" lon="-0.040832">
        <ele>2352.7</ele>
        <time>2019-08-10T13:07:00Z</time>
      </trkpt>
      <trkpt lat="42.676144" lon="-0.040802">
        <ele>2353.1</ele>
        <time>2019-08-10T13:07:09Z</time>
      </trkpt>
      <trkpt lat="42.676244" lon="-0.040764">
        <ele>2353.4</ele>
        <time>2019-08-10T13:07:18Z</time>
      </trkpt>
      <trkpt lat="42.676335" lon="-0.040736">
        <ele>2353.6</ele>
        <time>2019-08-10T13:07:25Z</time>
      </trkpt>
      <trkpt lat="42.676429" lon="-0.040693">
        <ele>2353.8</ele>
        <time>2019-08-10T13:07:33Z</time>
      </trkpt>
      <trkpt lat="42.676525" lon="-0.040652">
        <ele>2353.9</ele>
        <time>2019-08-10T13:07:41Z</time>
      </trkpt>
      <trkpt lat="42.676617" lon="-0.040619">
        <ele>2354.2</ele>
        <time>2019-08-10T13:07:49Z</time>
      </trkpt>
      <trkpt lat="42.676702" lon="-0.040603">
        <ele>2354.7</ele>
        <time>2019-08-10T13:07:57Z</time>
      </trkpt>
      <trkpt lat="42.676797" lon="-0.040576">
        <ele>2355.0</ele>
        <time>2019-08-10T13:08:05Z</time>
      </trkpt>
      <trkpt lat="42.676881" lon="-0.040552">
        <ele>2355.2</ele>
        <time>2019-08-10T13:08:13Z</time>
      </trkpt>
      <trkpt lat="42.676966" lon="-0.040507">
        <ele>2355.5</ele>
        <time>2019-08-10T13:08:21Z</time>
      </trkpt>
      <trkpt lat="42.677058" lon="-0.040475">
        <ele>2355.7</ele>
        <time>2019-08-10T13:08:29Z</time>
      </trkpt>
      <trkpt lat="42.677150" lon="-0.040437">
        <ele>2355.8</ele>
        <time>2019-08-10T13:08:37Z</time>
      </trkpt>
      <trkpt lat="42.677246" lon="-0.040429">
        <ele>2355.8</ele>
        <time>2019-08-10T13:08:46Z</time>
      </trkpt>
      <trkpt lat="42.677338" lon="-0.040417">
        <ele>2355.9</ele>
        <time>2019-08-10T13:08:55Z</time>
      </trkpt>
      <trkpt lat="42.677425" lon="-0.040382">
        <ele>2356.3</ele>
        <time>2019-08-10T13:09:03Z</time>
      </trkpt>
      <trkpt lat="42.677519" lon="-0.040362">
        <ele>2356.5</ele>
        <time>2019-08-10T13:09:12Z</time>
      </trkpt>
      <trkpt lat="42.677607" lon="-0.040354">
        <ele>2356.4</ele>
        <time>2019-08-10T13:09:21Z</time>
      </trkpt>
      <trkpt lat="42.677699" lon="-0.040322">
        <ele>2357.1</ele>
        <time>2019-08-10T13:09:30Z</time>
      </trkpt>
      <trkpt lat="42.677793" lon="-0.040286">
        <ele>2357.0</ele>
        <time>2019-08-10T13:09:43Z</time>
      </trkpt>
      <trkpt lat="42.677882" lon="-0.040204">
        <ele>2358.6</ele>
        <time>2019-08-10T13:09:59Z</time>
      </trkpt>
      <trkpt lat="42.677965" lon="-0.040163">
        <ele>2362.4</ele>
        <time>2019-08-10T13:10:17Z</time>
      </trkpt>
      <trkpt lat="42.678047" lon="-0.040158">
        <ele>2367.0</ele>
        <time>2019-08-10T13:10:36Z</time>
      </trkpt>
      <trkpt lat="42.678117" lon="-0.040114">
        <ele>2369.9</ele>
        <time>2019-08-10T13:10:57Z</time>
      </trkpt>
      <trkpt lat="42.678178" lon="-0.039991">
        <ele>2375.7</ele>
        <time>2019-08-10T13:11:31Z</time>
      </trkpt>
      <trkpt lat="42.678251" lon="-0.039931">
        <ele>2378.8</ele>
        <time>2019-08-10T13:11:49Z</time>
      </trkpt>
      <trkpt lat="42.678327" lon="-0.039876">
        <ele>2385.5</ele>
        <time>2019-08-10T13:12:33Z</time>
      </trkpt>
      <trkpt lat="42.678347" lon="-0.039900">
        <ele>2389.9</ele>
        <time>2019-08-10T13:13:14Z</time>
      </trkpt>
      <trkpt lat="42.678377" lon="-0.039877">
        <ele>2393.3</ele>
        <time>2019-08-10T13:13:50Z</time>
      </trkpt>
      <trkpt lat="42.678402" lon="-0.039863">
        <ele>2398.4</ele>
        <time>2019-08-10T13:15:02Z</time>
      </trkpt>
      <trkpt lat="42.678426" lon="-0.039875">
        <ele>2401.1</ele>
        <time>2019-08-10T13:16:31Z</time>
      </trkpt>
      <trkpt lat="42.678486" lon="-0.039930">
        <ele>2404.0</ele>
        <time>2019-08-10T13:16:55Z</time>
      </trkpt>
      <trkpt lat="42.678592" lon="-0.039934">
        <ele>2406.2</ele>
        <time>2019-08-10T13:17:12Z</time>
      </trkpt>
      <trkpt lat="42.678677" lon="-0.039854">
        <ele>2406.6</ele>
        <time>2019-08-10T13:17:24Z</time>
      </trkpt>
      <trkpt lat="42.678746" lon="-0.039848">
        <ele>2405.9</ele>
        <time>2019-08-10T13:17:40Z</time>
      </trkpt>
      <trkpt lat="42.678799" lon="-0.039736">
        <ele>2405.0</ele>
        <time>2019-08-10T13:17:55Z</time>
      </trkpt>
      <trkpt lat="42.678895" lon="-0.039697">
        <ele>2404.1</ele>
        <time>2019-08-10T13:18:05Z</time>
      </trkpt>
      <trkpt lat="42.678982" lon="-0.039665">
        <ele>2403.8</ele>
        <time>2019-08-10T13:18:15Z</time>
      </trkpt>
      <trkpt lat="42.679058" lon="-0.039617">
        <ele>2403.5</ele>
        <time>2019-08-10T13:18:25Z</time>
      </trkpt>
      <trkpt lat="42.679144" lon="-0.039550">
        <ele>2403.5</ele>
        <time>2019-08-10T13:18:38Z</time>
      </trkpt>
      <trkpt lat="42.679242" lon="-0.039496">
        <ele>2403.2</ele>
        <time>2019-08-10T13:18:52Z</time>
      </trkpt>
      <trkpt lat="42.679317" lon="-0.039426">
        <ele>2402.8</ele>
        <time>2019-08-10T13:19:01Z</time>
      </trkpt>
      <trkpt lat="42.679395" lon="-0.039358">
        <ele>2402.7</ele>
        <time>2019-08-10T13:19:09Z</time>
      </trkpt>
      <trkpt lat="42.679477" lon="-0.039285">
        <ele>2402.6</ele>
        <time>2019-08-10T13:19:17Z</time>
      </trkpt>
      <trkpt lat="42.679556" lon="-0.039226">
        <ele>2402.6</ele>
        <time>2019-08-10T13:19:25Z</time>
      </trkpt>
      <trkpt lat="42.679650" lon="-0.039186">
        <ele>2402.6</ele>
        <time>2019-08-10T13:19:39Z</time>
      </trkpt>
      <trkpt lat="42.679733" lon="-0.039118">
        <ele>2402.6</ele>
        <time>2019-08-10T13:19:48Z</time>
      </trkpt>
      <trkpt lat="42.679822" lon="-0.039054">
        <ele>2402.9</ele>
        <time>2019-08-10T13:19:56Z</time>
      </trkpt>
      <trkpt lat="42.679916" lon="-0.038982">
        <ele>2403.0</ele>
        <time>2019-08-10T13:20:05Z</time>
      </trkpt>
      <trkpt lat="42.679999" lon="-0.038916">
        <ele>2403.2</ele>
        <time>2019-08-10T13:20:14Z</time>
      </trkpt>
      <trkpt lat="42.680100" lon="-0.038861">
        <ele>2403.8</ele>
        <time>2019-08-10T13:20:24Z</time>
      </trkpt>
      <trkpt lat="42.680168" lon="-0.038784">
        <ele>2404.2</ele>
        <time>2019-08-10T13:20:33Z</time>
      </trkpt>
      <trkpt lat="42.680228" lon="-0.038713">
        <ele>2405.5</ele>
        <time>2019-08-10T13:20:44Z</time>
      </trkpt>
      <trkpt lat="42.680281" lon="-0.038587">
        <ele>2406.5</ele>
        <time>2019-08-10T13:20:56Z</time>
      </trkpt>
      <trkpt lat="42.680330" lon="-0.038576">
        <ele>2407.7</ele>
        <time>2019-08-10T13:22:38Z</time>
      </trkpt>
      <trkpt lat="42.680419" lon="-0.038485">
        <ele>2408.9</ele>
        <time>2019-08-10T13:22:49Z</time>
      </trkpt>
      <trkpt lat="42.680505" lon="-0.038404">
        <ele>2409.8</ele>
        <time>2019-08-10T13:23:00Z</time>
      </trkpt>
      <trkpt lat="42.680588" lon="-0.038323">
        <ele>2410.7</ele>
        <time>2019-08-10T13:23:10Z</time>
      </trkpt>
      <trkpt lat="42.680666" lon="-0.038257">
        <ele>2411.4</ele>
        <time>2019-08-10T13:23:20Z</time>
      </trkpt>
      <trkpt lat="42.680743" lon="-0.038170">
        <ele>2412.2</ele>
        <time>2019-08-10T13:23:31Z</time>
      </trkpt>
      <trkpt lat="42.680817" lon="-0.038092">
        <ele>2412.3</ele>
        <time>2019-08-10T13:23:40Z</time>
      </trkpt>
      <trkpt lat="42.680880" lon="-0.037995">
        <ele>2412.9</ele>
        <time>2019-08-10T13:23:52Z</time>
      </trkpt>
      <trkpt lat="42.680934" lon="-0.037894">
        <ele>2414.2</ele>
        <time>2019-08-10T13:24:03Z</time>
      </trkpt>
      <trkpt lat="42.680994" lon="-0.037795">
        <ele>2415.0</ele>
        <time>2019-08-10T13:24:14Z</time>
      </trkpt>
      <trkpt lat="42.681053" lon="-0.037693">
        <ele>2416.2</ele>
        <time>2019-08-10T13:24:27Z</time>
      </trkpt>
      <trkpt lat="42.681105" lon="-0.037607">
        <ele>2417.1</ele>
        <time>2019-08-10T13:24:42Z</time>
      </trkpt>
      <trkpt lat="42.681180" lon="-0.037501">
        <ele>2419.6</ele>
        <time>2019-08-10T13:24:59Z</time>
      </trkpt>
      <trkpt lat="42.681247" lon="-0.037401">
        <ele>2422.0</ele>
        <time>2019-08-10T13:25:12Z</time>
      </trkpt>
      <trkpt lat="42.681292" lon="-0.037295">
        <ele>2423.7</ele>
        <time>2019-08-10T13:25:28Z</time>
      </trkpt>
      <trkpt lat="42.681327" lon="-0.037202">
        <ele>2426.2</ele>
        <time>2019-08-10T13:25:43Z</time>
      </trkpt>
      <trkpt lat="42.681364" lon="-0.037097">
        <ele>2429.2</ele>
        <time>2019-08-10T13:26:02Z</time>
      </trkpt>
      <trkpt lat="42.681421" lon="-0.037026">
        <ele>2433.1</ele>
        <time>2019-08-10T13:26:23Z</time>
      </trkpt>
      <trkpt lat="42.681481" lon="-0.036962">
        <ele>2437.9</ele>
        <time>2019-08-10T13:26:51Z</time>
      </trkpt>
      <trkpt lat="42.681505" lon="-0.036854">
        <ele>2441.8</ele>
        <time>2019-08-10T13:27:12Z</time>
      </trkpt>
      <trkpt lat="42.681564" lon="-0.036792">
        <ele>2444.8</ele>
        <time>2019-08-10T13:27:33Z</time>
      </trkpt>
      <trkpt lat="42.681645" lon="-0.036734">
        <ele>2447.1</ele>
        <time>2019-08-10T13:27:48Z</time>
      </trkpt>
      <trkpt lat="42.681697" lon="-0.036632">
        <ele>2448.1</ele>
        <time>2019-08-10T13:28:01Z</time>
      </trkpt>
      <trkpt lat="42.681777" lon="-0.036597">
        <ele>2450.9</ele>
        <time>2019-08-10T13:28:19Z</time>
      </trkpt>
      <trkpt lat="42.681842" lon="-0.036551">
        <ele>2454.6</ele>
        <time>2019-08-10T13:28:37Z</time>
      </trkpt>
      <trkpt lat="42.681892" lon="-0.036451">
        <ele>2455.8</ele>
        <time>2019-08-10T13:28:53Z</time>
      </trkpt>
      <trkpt lat="42.681932" lon="-0.036356">
        <ele>2456.9</ele>
        <time>2019-08-10T13:29:09Z</time>
      </trkpt>
      <trkpt lat="42.681970" lon="-0.036225">
        <ele>2457.3</ele>
        <time>2019-08-10T13:29:21Z</time>
      </trkpt>
      <trkpt lat="42.682000" lon="-0.036073">
        <ele>2457.7</ele>
        <time>2019-08-10T13:29:34Z</time>
      </trkpt>
      <trkpt lat="42.682017" lon="-0.035926">
        <ele>2458.5</ele>
        <time>2019-08-10T13:29:48Z</time>
      </trkpt>
      <trkpt lat="42.682011" lon="-0.035795">
        <ele>2459.0</ele>
        <time>2019-08-10T13:30:00Z</time>
      </trkpt>
      <trkpt lat="42.682013" lon="-0.035667">
        <ele>2459.1</ele>
        <time>2019-08-10T13:30:12Z</time>
      </trkpt>
      <trkpt lat="42.681994" lon="-0.035515">
        <ele>2460.3</ele>
        <time>2019-08-10T13:30:24Z</time>
      </trkpt>
      <trkpt lat="42.681997" lon="-0.035372">
        <ele>2461.6</ele>
        <time>2019-08-10T13:30:37Z</time>
      </trkpt>
      <trkpt lat="42.681978" lon="-0.035227">
        <ele>2463.1</ele>
        <time>2019-08-10T13:30:50Z</time>
      </trkpt>
      <trkpt lat="42.681993" lon="-0.035081">
        <ele>2464.9</ele>
        <time>2019-08-10T13:31:06Z</time>
      </trkpt>
      <trkpt lat="42.682019" lon="-0.034971">
        <ele>2467.7</ele>
        <time>2019-08-10T13:31:21Z</time>
      </trkpt>
      <trkpt lat="42.681955" lon="-0.034864">
        <ele>2469.3</ele>
        <time>2019-08-10T13:31:33Z</time>
      </trkpt>
      <trkpt lat="42.681967" lon="-0.034753">
        <ele>2470.8</ele>
        <time>2019-08-10T13:31:44Z</time>
      </trkpt>
      <trkpt lat="42.681992" lon="-0.034627">
        <ele>2472.7</ele>
        <time>2019-08-10T13:31:59Z</time>
      </trkpt>
      <trkpt lat="42.681976" lon="-0.034513">
        <ele>2476.0</ele>
        <time>2019-08-10T13:32:15Z</time>
      </trkpt>
      <trkpt lat="42.681974" lon="-0.034394">
        <ele>2479.2</ele>
        <time>2019-08-10T13:32:34Z</time>
      </trkpt>
      <trkpt lat="42.681961" lon="-0.034279">
        <ele>2482.8</ele>
        <time>2019-08-10T13:32:54Z</time>
      </trkpt>
      <trkpt lat="42.681951" lon="-0.034146">
        <ele>2486.4</ele>
        <time>2019-08-10T13:33:14Z</time>
      </trkpt>
      <trkpt lat="42.681899" lon="-0.034045">
        <ele>2489.7</ele>
        <time>2019-08-10T13:33:31Z</time>
      </trkpt>
      <trkpt lat="42.681889" lon="-0.033926">
        <ele>2493.3</ele>
        <time>2019-08-10T13:33:49Z</time>
      </trkpt>
      <trkpt lat="42.681997" lon="-0.033829">
        <ele>2503.5</ele>
        <time>2019-08-10T13:34:57Z</time>
      </trkpt>
      <trkpt lat="42.682076" lon="-0.033793">
        <ele>2507.6</ele>
        <time>2019-08-10T13:35:28Z</time>
      </trkpt>
      <trkpt lat="42.682147" lon="-0.033747">
        <ele>2505.5</ele>
        <time>2019-08-10T13:35:48Z</time>
      </trkpt>
      <trkpt lat="42.682196" lon="-0.033702">
        <ele>2502.2</ele>
        <time>2019-08-10T13:36:07Z</time>
      </trkpt>
      <trkpt lat="42.682271" lon="-0.033723">
        <ele>2498.5</ele>
        <time>2019-08-10T13:37:03Z</time>
      </trkpt>
      <trkpt lat="42.682373" lon="-0.033744">
        <ele>2496.7</ele>
        <time>2019-08-10T13:37:19Z</time>
      </trkpt>
      <trkpt lat="42.682466" lon="-0.033709">
        <ele>2496.9</ele>
        <time>2019-08-10T13:37:36Z</time>
      </trkpt>
      <trkpt lat="42.682549" lon="-0.033635">
        <ele>2500.0</ele>
        <time>2019-08-10T13:37:55Z</time>
      </trkpt>
      <trkpt lat="42.682594" lon="-0.033557">
        <ele>2507.1</ele>
        <time>2019-08-10T13:38:40Z</time>
      </trkpt>
      <trkpt lat="42.682674" lon="-0.033598">
        <ele>2513.0</ele>
        <time>2019-08-10T13:39:15Z</time>
      </trkpt>
      <trkpt lat="42.682738" lon="-0.033601">
        <ele>2548.5</ele>
        <time>2019-08-10T13:39:31Z</time>
      </trkpt>
      <trkpt lat="42.682828" lon="-0.033605">
        <ele>2551.4</ele>
        <time>2019-08-10T13:39:55Z</time>
      </trkpt>
      <trkpt lat="42.682871" lon="-0.033698">
        <ele>2552.4</ele>
        <time>2019-08-10T13:40:09Z</time>
      </trkpt>
      <trkpt lat="42.683068" lon="-0.033707">
        <ele>2558.9</ele>
        <time>2019-08-10T13:40:26Z</time>
      </trkpt>
      <trkpt lat="42.683197" lon="-0.033841">
        <ele>2563.0</ele>
        <time>2019-08-10T13:40:44Z</time>
      </trkpt>
      <trkpt lat="42.683287" lon="-0.033954">
        <ele>2566.2</ele>
        <time>2019-08-10T13:41:01Z</time>
      </trkpt>
      <trkpt lat="42.683426" lon="-0.034012">
        <ele>2571.3</ele>
        <time>2019-08-10T13:41:15Z</time>
      </trkpt>
      <trkpt lat="42.683546" lon="-0.034077">
        <ele>2576.1</ele>
        <time>2019-08-10T13:41:36Z</time>
      </trkpt>
      <trkpt lat="42.683775" lon="-0.034088">
        <ele>2585.1</ele>
        <time>2019-08-10T13:42:41Z</time>
      </trkpt>
      <trkpt lat="42.683881" lon="-0.034053">
        <ele>2588.8</ele>
        <time>2019-08-10T13:42:57Z</time>
      </trkpt>
      <trkpt lat="42.683952" lon="-0.034176">
        <ele>2593.5</ele>
        <time>2019-08-10T13:43:12Z</time>
      </trkpt>
      <trkpt lat="42.684140" lon="-0.034156">
        <ele>2600.9</ele>
        <time>2019-08-10T13:45:22Z</time>
      </trkpt>
      <trkpt lat="42.684308" lon="-0.034159">
        <ele>2606.3</ele>
        <time>2019-08-10T13:45:36Z</time>
      </trkpt>
      <trkpt lat="42.684418" lon="-0.034068">
        <ele>2607.2</ele>
        <time>2019-08-10T13:45:52Z</time>
      </trkpt>
      <trkpt lat="42.684450" lon="-0.033912">
        <ele>2603.8</ele>
        <time>2019-08-10T13:53:52Z</time>
      </trkpt>
      <trkpt lat="42.684604" lon="-0.033754">
        <ele>2603.4</ele>
        <time>2019-08-10T13:54:12Z</time>
      </trkpt>
      <trkpt lat="42.684729" lon="-0.033520">
        <ele>2599.2</ele>
        <time>2019-08-10T13:54:28Z</time>
      </trkpt>
      <trkpt lat="42.684916" lon="-0.033469">
        <ele>2578.4</ele>
        <time>2019-08-10T13:54:55Z</time>
      </trkpt>
      <trkpt lat="42.685009" lon="-0.033538">
        <ele>2579.2</ele>
        <time>2019-08-10T13:55:12Z</time>
      </trkpt>
      <trkpt lat="42.684988" lon="-0.033670">
        <ele>2579.4</ele>
        <time>2019-08-10T13:55:27Z</time>
      </trkpt>
      <trkpt lat="42.685083" lon="-0.033671">
        <ele>2582.1</ele>
        <time>2019-08-10T13:55:46Z</time>
      </trkpt>
      <trkpt lat="42.685138" lon="-0.033596">
        <ele>2585.2</ele>
        <time>2019-08-10T13:57:39Z</time>
      </trkpt>
      <trkpt lat="42.685232" lon="-0.033572">
        <ele>2590.1</ele>
        <time>2019-08-10T13:58:07Z</time>
      </trkpt>
      <trkpt lat="42.685318" lon="-0.033546">
        <ele>2593.0</ele>
        <time>2019-08-10T13:58:25Z</time>
      </trkpt>
      <trkpt lat="42.685406" lon="-0.033561">
        <ele>2595.6</ele>
        <time>2019-08-10T13:58:46Z</time>
      </trkpt>
      <trkpt lat="42.685493" lon="-0.033586">
        <ele>2597.5</ele>
        <time>2019-08-10T13:59:02Z</time>
      </trkpt>
      <trkpt lat="42.685593" lon="-0.033614">
        <ele>2598.6</ele>
        <time>2019-08-10T13:59:17Z</time>
      </trkpt>
      <trkpt lat="42.685683" lon="-0.033657">
        <ele>2601.4</ele>
        <time>2019-08-10T13:59:36Z</time>
      </trkpt>
      <trkpt lat="42.685790" lon="-0.033650">
        <ele>2602.9</ele>
        <time>2019-08-10T13:59:49Z</time>
      </trkpt>
      <trkpt lat="42.685889" lon="-0.033666">
        <ele>2604.1</ele>
        <time>2019-08-10T14:00:05Z</time>
      </trkpt>
      <trkpt lat="42.685981" lon="-0.033635">
        <ele>2606.7</ele>
        <time>2019-08-10T14:01:55Z</time>
      </trkpt>
      <trkpt lat="42.686080" lon="-0.033660">
        <ele>2607.1</ele>
        <time>2019-08-10T14:02:11Z</time>
      </trkpt>
      <trkpt lat="42.686169" lon="-0.033704">
        <ele>2608.3</ele>
        <time>2019-08-10T14:02:25Z</time>
      </trkpt>
      <trkpt lat="42.686261" lon="-0.033721">
        <ele>2609.1</ele>
        <time>2019-08-10T14:02:38Z</time>
      </trkpt>
      <trkpt lat="42.686350" lon="-0.033774">
        <ele>2610.9</ele>
        <time>2019-08-10T14:02:57Z</time>
      </trkpt>
      <trkpt lat="42.686391" lon="-0.033877">
        <ele>2612.3</ele>
        <time>2019-08-10T14:03:12Z</time>
      </trkpt>
      <trkpt lat="42.686470" lon="-0.033912">
        <ele>2613.9</ele>
        <time>2019-08-10T14:03:29Z</time>
      </trkpt>
      <trkpt lat="42.686542" lon="-0.033895">
        <ele>2613.4</ele>
        <time>2019-08-10T14:03:50Z</time>
      </trkpt>
      <trkpt lat="42.686609" lon="-0.033954">
        <ele>2616.1</ele>
        <time>2019-08-10T14:04:09Z</time>
      </trkpt>
      <trkpt lat="42.686632" lon="-0.034058">
        <ele>2618.7</ele>
        <time>2019-08-10T14:04:30Z</time>
      </trkpt>
      <trkpt lat="42.686703" lon="-0.034099">
        <ele>2622.3</ele>
        <time>2019-08-10T14:04:51Z</time>
      </trkpt>
      <trkpt lat="42.686777" lon="-0.034052">
        <ele>2625.3</ele>
        <time>2019-08-10T14:05:11Z</time>
      </trkpt>
      <trkpt lat="42.686834" lon="-0.033985">
        <ele>2628.1</ele>
        <time>2019-08-10T14:05:32Z</time>
      </trkpt>
      <trkpt lat="42.686916" lon="-0.033957">
        <ele>2629.4</ele>
        <time>2019-08-10T14:05:48Z</time>
      </trkpt>
      <trkpt lat="42.687004" lon="-0.033991">
        <ele>2633.1</ele>
        <time>2019-08-10T14:06:17Z</time>
      </trkpt>
      <trkpt lat="42.687062" lon="-0.034059">
        <ele>2634.6</ele>
        <time>2019-08-10T14:07:00Z</time>
      </trkpt>
      <trkpt lat="42.687153" lon="-0.034085">
        <ele>2637.1</ele>
        <time>2019-08-10T14:07:17Z</time>
      </trkpt>
      <trkpt lat="42.687246" lon="-0.034101">
        <ele>2639.0</ele>
        <time>2019-08-10T14:07:32Z</time>
      </trkpt>
      <trkpt lat="42.687326" lon="-0.034170">
        <ele>2640.5</ele>
        <time>2019-08-10T14:07:48Z</time>
      </trkpt>
      <trkpt lat="42.687400" lon="-0.034197">
        <ele>2641.2</ele>
        <time>2019-08-10T14:08:55Z</time>
      </trkpt>
      <trkpt lat="42.687494" lon="-0.034212">
        <ele>2641.1</ele>
        <time>2019-08-10T14:09:08Z</time>
      </trkpt>
      <trkpt lat="42.687574" lon="-0.034251">
        <ele>2643.5</ele>
        <time>2019-08-10T14:09:25Z</time>
      </trkpt>
      <trkpt lat="42.687680" lon="-0.034262">
        <ele>2645.7</ele>
        <time>2019-08-10T14:09:42Z</time>
      </trkpt>
      <trkpt lat="42.687751" lon="-0.034320">
        <ele>2648.5</ele>
        <time>2019-08-10T14:10:04Z</time>
      </trkpt>
      <trkpt lat="42.687827" lon="-0.034271">
        <ele>2651.3</ele>
        <time>2019-08-10T14:10:24Z</time>
      </trkpt>
      <trkpt lat="42.687880" lon="-0.034277">
        <ele>2654.1</ele>
        <time>2019-08-10T14:10:45Z</time>
      </trkpt>
      <trkpt lat="42.687890" lon="-0.034397">
        <ele>2656.9</ele>
        <time>2019-08-10T14:11:07Z</time>
      </trkpt>
      <trkpt lat="42.687980" lon="-0.034369">
        <ele>2660.4</ele>
        <time>2019-08-10T14:11:31Z</time>
      </trkpt>
      <trkpt lat="42.688043" lon="-0.034369">
        <ele>2663.2</ele>
        <time>2019-08-10T14:11:50Z</time>
      </trkpt>
      <trkpt lat="42.688122" lon="-0.034378">
        <ele>2666.2</ele>
        <time>2019-08-10T14:12:10Z</time>
      </trkpt>
      <trkpt lat="42.688203" lon="-0.034349">
        <ele>2668.9</ele>
        <time>2019-08-10T14:12:35Z</time>
      </trkpt>
      <trkpt lat="42.688275" lon="-0.034380">
        <ele>2671.3</ele>
        <time>2019-08-10T14:12:54Z</time>
      </trkpt>
      <trkpt lat="42.688318" lon="-0.034466">
        <ele>2674.5</ele>
        <time>2019-08-10T14:13:14Z</time>
      </trkpt>
      <trkpt lat="42.688392" lon="-0.034544">
        <ele>2676.5</ele>
        <time>2019-08-10T14:13:31Z</time>
      </trkpt>
      <trkpt lat="42.688490" lon="-0.034548">
        <ele>2678.8</ele>
        <time>2019-08-10T14:13:52Z</time>
      </trkpt>
      <trkpt lat="42.688576" lon="-0.034569">
        <ele>2681.5</ele>
        <time>2019-08-10T14:14:14Z</time>
      </trkpt>
      <trkpt lat="42.688654" lon="-0.034574">
        <ele>2684.7</ele>
        <time>2019-08-10T14:14:35Z</time>
      </trkpt>
      <trkpt lat="42.688674" lon="-0.034668">
        <ele>2687.2</ele>
        <time>2019-08-10T14:14:58Z</time>
      </trkpt>
      <trkpt lat="42.688747" lon="-0.034696">
        <ele>2690.6</ele>
        <time>2019-08-10T14:15:22Z</time>
      </trkpt>
      <trkpt lat="42.688845" lon="-0.034742">
        <ele>2694.6</ele>
        <time>2019-08-10T14:15:46Z</time>
      </trkpt>
      <trkpt lat="42.688903" lon="-0.034830">
        <ele>2697.3</ele>
        <time>2019-08-10T14:16:06Z</time>
      </trkpt>
      <trkpt lat="42.688960" lon="-0.034923">
        <ele>2699.7</ele>
        <time>2019-08-10T14:16:24Z</time>
      </trkpt>
      <trkpt lat="42.688988" lon="-0.035056">
        <ele>2702.2</ele>
        <time>2019-08-10T14:16:44Z</time>
      </trkpt>
      <trkpt lat="42.689053" lon="-0.035171">
        <ele>2704.2</ele>
        <time>2019-08-10T14:17:00Z</time>
      </trkpt>
      <trkpt lat="42.689099" lon="-0.035324">
        <ele>2706.1</ele>
        <time>2019-08-10T14:17:16Z</time>
      </trkpt>
      <trkpt lat="42.689143" lon="-0.035450">
        <ele>2707.6</ele>
        <time>2019-08-10T14:17:32Z</time>
      </trkpt>
      <trkpt lat="42.689192" lon="-0.035578">
        <ele>2708.9</ele>
        <time>2019-08-10T14:17:48Z</time>
      </trkpt>
      <trkpt lat="42.689267" lon="-0.035637">
        <ele>2709.5</ele>
        <time>2019-08-10T14:19:18Z</time>
      </trkpt>
      <trkpt lat="42.689362" lon="-0.035648">
        <ele>2711.6</ele>
        <time>2019-08-10T14:19:34Z</time>
      </trkpt>
      <trkpt lat="42.689408" lon="-0.035710">
        <ele>2714.2</ele>
        <time>2019-08-10T14:19:52Z</time>
      </trkpt>
      <trkpt lat="42.689487" lon="-0.035762">
        <ele>2717.0</ele>
        <time>2019-08-10T14:20:11Z</time>
      </trkpt>
      <trkpt lat="42.689585" lon="-0.035724">
        <ele>2720.5</ele>
        <time>2019-08-10T14:20:33Z</time>
      </trkpt>
      <trkpt lat="42.689659" lon="-0.035758">
        <ele>2724.7</ele>
        <time>2019-08-10T14:20:58Z</time>
      </trkpt>
      <trkpt lat="42.689728" lon="-0.035793">
        <ele>2726.2</ele>
        <time>2019-08-10T14:21:47Z</time>
      </trkpt>
      <trkpt lat="42.689792" lon="-0.035833">
        <ele>2730.4</ele>
        <time>2019-08-10T14:22:46Z</time>
      </trkpt>
      <trkpt lat="42.689888" lon="-0.035829">
        <ele>2733.9</ele>
        <time>2019-08-10T14:23:02Z</time>
      </trkpt>
      <trkpt lat="42.689970" lon="-0.035843">
        <ele>2738.4</ele>
        <time>2019-08-10T14:23:23Z</time>
      </trkpt>
      <trkpt lat="42.690041" lon="-0.035901">
        <ele>2744.5</ele>
        <time>2019-08-10T14:23:42Z</time>
      </trkpt>
      <trkpt lat="42.690109" lon="-0.035804">
        <ele>2747.6</ele>
        <time>2019-08-10T14:24:04Z</time>
      </trkpt>
      <trkpt lat="42.690179" lon="-0.035720">
        <ele>2751.2</ele>
        <time>2019-08-10T14:24:32Z</time>
      </trkpt>
      <trkpt lat="42.690248" lon="-0.035643">
        <ele>2754.6</ele>
        <time>2019-08-10T14:24:55Z</time>
      </trkpt>
      <trkpt lat="42.690306" lon="-0.035540">
        <ele>2756.0</ele>
        <time>2019-08-10T14:25:14Z</time>
      </trkpt>
      <trkpt lat="42.690368" lon="-0.035442">
        <ele>2758.6</ele>
        <time>2019-08-10T14:25:37Z</time>
      </trkpt>
      <trkpt lat="42.690416" lon="-0.035309">
        <ele>2761.9</ele>
        <time>2019-08-10T14:25:55Z</time>
      </trkpt>
      <trkpt lat="42.690467" lon="-0.035205">
        <ele>2764.5</ele>
        <time>2019-08-10T14:26:31Z</time>
      </trkpt>
      <trkpt lat="42.690550" lon="-0.035132">
        <ele>2767.3</ele>
        <time>2019-08-10T14:26:52Z</time>
      </trkpt>
      <trkpt lat="42.690613" lon="-0.035039">
        <ele>2769.8</ele>
        <time>2019-08-10T14:27:10Z</time>
      </trkpt>
      <trkpt lat="42.690658" lon="-0.034942">
        <ele>2772.5</ele>
        <time>2019-08-10T14:27:38Z</time>
      </trkpt>
      <trkpt lat="42.690697" lon="-0.034848">
        <ele>2775.0</ele>
        <time>2019-08-10T14:27:58Z</time>
      </trkpt>
      <trkpt lat="42.690778" lon="-0.034871">
        <ele>2778.3</ele>
        <time>2019-08-10T14:28:23Z</time>
      </trkpt>
      <trkpt lat="42.690850" lon="-0.034851">
        <ele>2781.2</ele>
        <time>2019-08-10T14:28:46Z</time>
      </trkpt>
      <trkpt lat="42.690912" lon="-0.034747">
        <ele>2785.0</ele>
        <time>2019-08-10T14:29:11Z</time>
      </trkpt>
      <trkpt lat="42.690940" lon="-0.034619">
        <ele>2786.9</ele>
        <time>2019-08-10T14:29:33Z</time>
      </trkpt>
      <trkpt lat="42.691012" lon="-0.034617">
        <ele>2790.8</ele>
        <time>2019-08-10T14:30:01Z</time>
      </trkpt>
      <trkpt lat="42.691088" lon="-0.034615">
        <ele>2795.1</ele>
        <time>2019-08-10T14:30:25Z</time>
      </trkpt>
      <trkpt lat="42.691119" lon="-0.034569">
        <ele>2797.4</ele>
        <time>2019-08-10T14:31:10Z</time>
      </trkpt>
      <trkpt lat="42.691077" lon="-0.034343">
        <ele>2802.2</ele>
        <time>2019-08-10T14:31:32Z</time>
      </trkpt>
      <trkpt lat="42.691023" lon="-0.034225">
        <ele>2804.5</ele>
        <time>2019-08-10T14:31:49Z</time>
      </trkpt>
      <trkpt lat="42.691059" lon="-0.034160">
        <ele>2800.6</ele>
        <time>2019-08-10T14:33:52Z</time>
      </trkpt>
      <trkpt lat="42.691024" lon="-0.034096">
        <ele>2798.6</ele>
        <time>2019-08-10T14:35:13Z</time>
      </trkpt>
      <trkpt lat="42.691081" lon="-0.034013">
        <ele>2803.4</ele>
        <time>2019-08-10T14:45:05Z</time>
      </trkpt>
      <trkpt lat="42.691147" lon="-0.034051">
        <ele>2797.2</ele>
        <time>2019-08-10T14:46:23Z</time>
      </trkpt>
      <trkpt lat="42.691176" lon="-0.034041">
        <ele>2788.0</ele>
        <time>2019-08-10T14:48:15Z</time>
      </trkpt>
      <trkpt lat="42.691233" lon="-0.034143">
        <ele>2785.4</ele>
        <time>2019-08-10T14:48:33Z</time>
      </trkpt>
      <trkpt lat="42.691327" lon="-0.034164">
        <ele>2782.6</ele>
        <time>2019-08-10T14:48:45Z</time>
      </trkpt>
      <trkpt lat="42.691397" lon="-0.034246">
        <ele>2778.2</ele>
        <time>2019-08-10T14:49:11Z</time>
      </trkpt>
      <trkpt lat="42.691456" lon="-0.034307">
        <ele>2775.7</ele>
        <time>2019-08-10T14:49:26Z</time>
      </trkpt>
      <trkpt lat="42.691536" lon="-0.034347">
        <ele>2772.6</ele>
        <time>2019-08-10T14:49:42Z</time>
      </trkpt>
      <trkpt lat="42.691580" lon="-0.034427">
        <ele>2769.2</ele>
        <time>2019-08-10T14:49:56Z</time>
      </trkpt>
      <trkpt lat="42.691597" lon="-0.034542">
        <ele>2764.6</ele>
        <time>2019-08-10T14:50:26Z</time>
      </trkpt>
      <trkpt lat="42.691660" lon="-0.034649">
        <ele>2760.7</ele>
        <time>2019-08-10T14:50:45Z</time>
      </trkpt>
      <trkpt lat="42.691733" lon="-0.034741">
        <ele>2759.1</ele>
        <time>2019-08-10T14:50:58Z</time>
      </trkpt>
      <trkpt lat="42.691799" lon="-0.034830">
        <ele>2756.4</ele>
        <time>2019-08-10T14:51:14Z</time>
      </trkpt>
      <trkpt lat="42.691879" lon="-0.034908">
        <ele>2752.0</ele>
        <time>2019-08-10T14:51:31Z</time>
      </trkpt>
      <trkpt lat="42.691948" lon="-0.034992">
        <ele>2749.8</ele>
        <time>2019-08-10T14:51:43Z</time>
      </trkpt>
      <trkpt lat="42.692033" lon="-0.035047">
        <ele>2749.1</ele>
        <time>2019-08-10T14:51:50Z</time>
      </trkpt>
      <trkpt lat="42.692109" lon="-0.035078">
        <ele>2746.6</ele>
        <time>2019-08-10T14:52:00Z</time>
      </trkpt>
      <trkpt lat="42.692199" lon="-0.035103">
        <ele>2744.5</ele>
        <time>2019-08-10T14:52:11Z</time>
      </trkpt>
      <trkpt lat="42.692221" lon="-0.035179">
        <ele>2743.3</ele>
        <time>2019-08-10T14:52:30Z</time>
      </trkpt>
      <trkpt lat="42.692333" lon="-0.035166">
        <ele>2741.6</ele>
        <time>2019-08-10T14:53:11Z</time>
      </trkpt>
      <trkpt lat="42.692383" lon="-0.035096">
        <ele>2739.2</ele>
        <time>2019-08-10T14:53:38Z</time>
      </trkpt>
      <trkpt lat="42.692447" lon="-0.034993">
        <ele>2737.9</ele>
        <time>2019-08-10T14:53:51Z</time>
      </trkpt>
      <trkpt lat="42.692505" lon="-0.034916">
        <ele>2736.4</ele>
        <time>2019-08-10T14:54:06Z</time>
      </trkpt>
      <trkpt lat="42.692556" lon="-0.034794">
        <ele>2735.8</ele>
        <time>2019-08-10T14:54:20Z</time>
      </trkpt>
      <trkpt lat="42.692636" lon="-0.034712">
        <ele>2735.8</ele>
        <time>2019-08-10T14:54:37Z</time>
      </trkpt>
      <trkpt lat="42.692680" lon="-0.034601">
        <ele>2735.8</ele>
        <time>2019-08-10T14:55:13Z</time>
      </trkpt>
      <trkpt lat="42.692738" lon="-0.034534">
        <ele>2735.5</ele>
        <time>2019-08-10T14:55:24Z</time>
      </trkpt>
      <trkpt lat="42.692779" lon="-0.034440">
        <ele>2736.4</ele>
        <time>2019-08-10T14:55:52Z</time>
      </trkpt>
      <trkpt lat="42.692787" lon="-0.034448">
        <ele>2735.9</ele>
        <time>2019-08-10T14:56:51Z</time>
      </trkpt>
      <trkpt lat="42.692865" lon="-0.034366">
        <ele>2734.5</ele>
        <time>2019-08-10T14:57:02Z</time>
      </trkpt>
      <trkpt lat="42.692941" lon="-0.034396">
        <ele>2732.8</ele>
        <time>2019-08-10T14:57:16Z</time>
      </trkpt>
      <trkpt lat="42.692984" lon="-0.034275">
        <ele>2731.9</ele>
        <time>2019-08-10T14:57:26Z</time>
      </trkpt>
      <trkpt lat="42.693039" lon="-0.034204">
        <ele>2730.1</ele>
        <time>2019-08-10T14:58:08Z</time>
      </trkpt>
      <trkpt lat="42.693090" lon="-0.034158">
        <ele>2727.5</ele>
        <time>2019-08-10T14:58:29Z</time>
      </trkpt>
      <trkpt lat="42.693155" lon="-0.034153">
        <ele>2724.4</ele>
        <time>2019-08-10T14:58:47Z</time>
      </trkpt>
      <trkpt lat="42.693228" lon="-0.034213">
        <ele>2721.3</ele>
        <time>2019-08-10T14:59:03Z</time>
      </trkpt>
      <trkpt lat="42.693288" lon="-0.034301">
        <ele>2718.3</ele>
        <time>2019-08-10T14:59:16Z</time>
      </trkpt>
      <trkpt lat="42.693350" lon="-0.034379">
        <ele>2716.0</ele>
        <time>2019-08-10T14:59:27Z</time>
      </trkpt>
      <trkpt lat="42.693417" lon="-0.034457">
        <ele>2712.7</ele>
        <time>2019-08-10T14:59:40Z</time>
      </trkpt>
      <trkpt lat="42.693482" lon="-0.034530">
        <ele>2708.7</ele>
        <time>2019-08-10T14:59:54Z</time>
      </trkpt>
      <trkpt lat="42.693541" lon="-0.034621">
        <ele>2704.8</ele>
        <time>2019-08-10T15:00:10Z</time>
      </trkpt>
      <trkpt lat="42.693600" lon="-0.034727">
        <ele>2700.4</ele>
        <time>2019-08-10T15:00:25Z</time>
      </trkpt>
      <trkpt lat="42.693653" lon="-0.034817">
        <ele>2696.9</ele>
        <time>2019-08-10T15:00:37Z</time>
      </trkpt>
      <trkpt lat="42.693729" lon="-0.034861">
        <ele>2693.8</ele>
        <time>2019-08-10T15:00:50Z</time>
      </trkpt>
      <trkpt lat="42.693795" lon="-0.034928">
        <ele>2690.2</ele>
        <time>2019-08-10T15:01:05Z</time>
      </trkpt>
      <trkpt lat="42.693831" lon="-0.034865">
        <ele>2687.5</ele>
        <time>2019-08-10T15:01:19Z</time>
      </trkpt>
      <trkpt lat="42.693879" lon="-0.034805">
        <ele>2683.3</ele>
        <time>2019-08-10T15:01:36Z</time>
      </trkpt>
      <trkpt lat="42.693930" lon="-0.034688">
        <ele>2680.2</ele>
        <time>2019-08-10T15:01:46Z</time>
      </trkpt>
      <trkpt lat="42.693957" lon="-0.034569">
        <ele>2675.2</ele>
        <time>2019-08-10T15:01:55Z</time>
      </trkpt>
      <trkpt lat="42.694003" lon="-0.034466">
        <ele>2670.0</ele>
        <time>2019-08-10T15:02:04Z</time>
      </trkpt>
      <trkpt lat="42.694065" lon="-0.034380">
        <ele>2664.9</ele>
        <time>2019-08-10T15:02:15Z</time>
      </trkpt>
      <trkpt lat="42.694160" lon="-0.034394">
        <ele>2660.3</ele>
        <time>2019-08-10T15:02:27Z</time>
      </trkpt>
      <trkpt lat="42.694262" lon="-0.034417">
        <ele>2654.9</ele>
        <time>2019-08-10T15:02:36Z</time>
      </trkpt>
      <trkpt lat="42.694326" lon="-0.034385">
        <ele>2649.7</ele>
        <time>2019-08-10T15:02:45Z</time>
      </trkpt>
      <trkpt lat="42.694407" lon="-0.034352">
        <ele>2644.3</ele>
        <time>2019-08-10T15:02:58Z</time>
      </trkpt>
      <trkpt lat="42.694504" lon="-0.034378">
        <ele>2638.7</ele>
        <time>2019-08-10T15:03:13Z</time>
      </trkpt>
      <trkpt lat="42.694561" lon="-0.034413">
        <ele>2632.7</ele>
        <time>2019-08-10T15:03:26Z</time>
      </trkpt>
      <trkpt lat="42.694665" lon="-0.034378">
        <ele>2628.8</ele>
        <time>2019-08-10T15:03:36Z</time>
      </trkpt>
      <trkpt lat="42.694757" lon="-0.034349">
        <ele>2626.8</ele>
        <time>2019-08-10T15:03:42Z</time>
      </trkpt>
      <trkpt lat="42.694854" lon="-0.034295">
        <ele>2624.1</ele>
        <time>2019-08-10T15:03:48Z</time>
      </trkpt>
      <trkpt lat="42.694934" lon="-0.034207">
        <ele>2619.8</ele>
        <time>2019-08-10T15:03:55Z</time>
      </trkpt>
      <trkpt lat="42.695013" lon="-0.034137">
        <ele>2616.7</ele>
        <time>2019-08-10T15:04:02Z</time>
      </trkpt>
      <trkpt lat="42.695087" lon="-0.034053">
        <ele>2613.4</ele>
        <time>2019-08-10T15:04:10Z</time>
      </trkpt>
      <trkpt lat="42.695135" lon="-0.033959">
        <ele>2610.8</ele>
        <time>2019-08-10T15:04:17Z</time>
      </trkpt>
      <trkpt lat="42.695209" lon="-0.033881">
        <ele>2607.9</ele>
        <time>2019-08-10T15:04:25Z</time>
      </trkpt>
      <trkpt lat="42.695268" lon="-0.033787">
        <ele>2604.9</ele>
        <time>2019-08-10T15:04:38Z</time>
      </trkpt>
      <trkpt lat="42.695332" lon="-0.033680">
        <ele>2603.2</ele>
        <time>2019-08-10T15:04:57Z</time>
      </trkpt>
      <trkpt lat="42.695392" lon="-0.033631">
        <ele>2600.8</ele>
        <time>2019-08-10T15:05:08Z</time>
      </trkpt>
      <trkpt lat="42.695489" lon="-0.033642">
        <ele>2599.1</ele>
        <time>2019-08-10T15:05:17Z</time>
      </trkpt>
      <trkpt lat="42.695537" lon="-0.033597">
        <ele>2594.6</ele>
        <time>2019-08-10T15:11:01Z</time>
      </trkpt>
      <trkpt lat="42.695613" lon="-0.033594">
        <ele>2594.9</ele>
        <time>2019-08-10T15:11:19Z</time>
      </trkpt>
      <trkpt lat="42.695691" lon="-0.033629">
        <ele>2594.3</ele>
        <time>2019-08-10T15:11:33Z</time>
      </trkpt>
      <trkpt lat="42.695761" lon="-0.033552">
        <ele>2592.4</ele>
        <time>2019-08-10T15:11:45Z</time>
      </trkpt>
      <trkpt lat="42.695838" lon="-0.033467">
        <ele>2591.8</ele>
        <time>2019-08-10T15:11:58Z</time>
      </trkpt>
      <trkpt lat="42.695956" lon="-0.033467">
        <ele>2591.9</ele>
        <time>2019-08-10T15:12:17Z</time>
      </trkpt>
      <trkpt lat="42.696049" lon="-0.033487">
        <ele>2590.1</ele>
        <time>2019-08-10T15:12:34Z</time>
      </trkpt>
      <trkpt lat="42.696134" lon="-0.033542">
        <ele>2588.4</ele>
        <time>2019-08-10T15:12:45Z</time>
      </trkpt>
      <trkpt lat="42.696210" lon="-0.033541">
        <ele>2586.8</ele>
        <time>2019-08-10T15:13:08Z</time>
      </trkpt>
      <trkpt lat="42.696292" lon="-0.033608">
        <ele>2587.2</ele>
        <time>2019-08-10T15:13:21Z</time>
      </trkpt>
      <trkpt lat="42.696376" lon="-0.033653">
        <ele>2586.9</ele>
        <time>2019-08-10T15:13:34Z</time>
      </trkpt>
      <trkpt lat="42.696449" lon="-0.033728">
        <ele>2585.4</ele>
        <time>2019-08-10T15:13:44Z</time>
      </trkpt>
      <trkpt lat="42.696515" lon="-0.033808">
        <ele>2583.7</ele>
        <time>2019-08-10T15:13:55Z</time>
      </trkpt>
      <trkpt lat="42.696593" lon="-0.033883">
        <ele>2582.6</ele>
        <time>2019-08-10T15:14:08Z</time>
      </trkpt>
      <trkpt lat="42.696644" lon="-0.033990">
        <ele>2581.7</ele>
        <time>2019-08-10T15:14:19Z</time>
      </trkpt>
      <trkpt lat="42.696639" lon="-0.034147">
        <ele>2582.5</ele>
        <time>2019-08-10T15:14:33Z</time>
      </trkpt>
      <trkpt lat="42.696717" lon="-0.034241">
        <ele>2584.4</ele>
        <time>2019-08-10T15:14:47Z</time>
      </trkpt>
      <trkpt lat="42.696805" lon="-0.034343">
        <ele>2584.2</ele>
        <time>2019-08-10T15:15:01Z</time>
      </trkpt>
      <trkpt lat="42.696828" lon="-0.034469">
        <ele>2587.0</ele>
        <time>2019-08-10T15:15:17Z</time>
      </trkpt>
      <trkpt lat="42.696807" lon="-0.034564">
        <ele>2590.1</ele>
        <time>2019-08-10T15:15:36Z</time>
      </trkpt>
      <trkpt lat="42.696816" lon="-0.034685">
        <ele>2592.7</ele>
        <time>2019-08-10T15:15:53Z</time>
      </trkpt>
      <trkpt lat="42.696908" lon="-0.034748">
        <ele>2594.1</ele>
        <time>2019-08-10T15:16:06Z</time>
      </trkpt>
      <trkpt lat="42.697021" lon="-0.034752">
        <ele>2594.9</ele>
        <time>2019-08-10T15:16:20Z</time>
      </trkpt>
      <trkpt lat="42.697085" lon="-0.034792">
        <ele>2594.0</ele>
        <time>2019-08-10T15:16:49Z</time>
      </trkpt>
      <trkpt lat="42.697175" lon="-0.034863">
        <ele>2593.9</ele>
        <time>2019-08-10T15:17:01Z</time>
      </trkpt>
      <trkpt lat="42.697263" lon="-0.034874">
        <ele>2593.3</ele>
        <time>2019-08-10T15:17:36Z</time>
      </trkpt>
      <trkpt lat="42.697359" lon="-0.034914">
        <ele>2592.7</ele>
        <time>2019-08-10T15:17:58Z</time>
      </trkpt>
      <trkpt lat="42.697346" lon="-0.034999">
        <ele>2590.2</ele>
        <time>2019-08-10T15:18:19Z</time>
      </trkpt>
      <trkpt lat="42.697385" lon="-0.035089">
        <ele>2585.9</ele>
        <time>2019-08-10T15:18:39Z</time>
      </trkpt>
      <trkpt lat="42.697411" lon="-0.035165">
        <ele>2581.4</ele>
        <time>2019-08-10T15:19:01Z</time>
      </trkpt>
      <trkpt lat="42.697455" lon="-0.035255">
        <ele>2579.0</ele>
        <time>2019-08-10T15:19:20Z</time>
      </trkpt>
      <trkpt lat="42.697404" lon="-0.035287">
        <ele>2576.5</ele>
        <time>2019-08-10T15:19:39Z</time>
      </trkpt>
      <trkpt lat="42.697378" lon="-0.035352">
        <ele>2573.1</ele>
        <time>2019-08-10T15:19:58Z</time>
      </trkpt>
      <trkpt lat="42.697430" lon="-0.035456">
        <ele>2570.2</ele>
        <time>2019-08-10T15:20:14Z</time>
      </trkpt>
      <trkpt lat="42.697471" lon="-0.035570">
        <ele>2566.2</ele>
        <time>2019-08-10T15:20:31Z</time>
      </trkpt>
      <trkpt lat="42.697549" lon="-0.035647">
        <ele>2563.2</ele>
        <time>2019-08-10T15:20:50Z</time>
      </trkpt>
      <trkpt lat="42.697634" lon="-0.035678">
        <ele>2560.1</ele>
        <time>2019-08-10T15:21:05Z</time>
      </trkpt>
      <trkpt lat="42.697721" lon="-0.035731">
        <ele>2556.8</ele>
        <time>2019-08-10T15:21:20Z</time>
      </trkpt>
      <trkpt lat="42.697755" lon="-0.035855">
        <ele>2555.3</ele>
        <time>2019-08-10T15:21:32Z</time>
      </trkpt>
      <trkpt lat="42.697825" lon="-0.035910">
        <ele>2553.1</ele>
        <time>2019-08-10T15:21:45Z</time>
      </trkpt>
      <trkpt lat="42.697872" lon="-0.035893">
        <ele>2550.7</ele>
        <time>2019-08-10T15:22:00Z</time>
      </trkpt>
      <trkpt lat="42.697932" lon="-0.035956">
        <ele>2548.0</ele>
        <time>2019-08-10T15:22:15Z</time>
      </trkpt>
      <trkpt lat="42.697978" lon="-0.036012">
        <ele>2543.9</ele>
        <time>2019-08-10T15:22:36Z</time>
      </trkpt>
      <trkpt lat="42.698039" lon="-0.036098">
        <ele>2541.4</ele>
        <time>2019-08-10T15:22:51Z</time>
      </trkpt>
      <trkpt lat="42.698114" lon="-0.036181">
        <ele>2538.9</ele>
        <time>2019-08-10T15:23:07Z</time>
      </trkpt>
      <trkpt lat="42.698159" lon="-0.036277">
        <ele>2537.1</ele>
        <time>2019-08-10T15:23:21Z</time>
      </trkpt>
      <trkpt lat="42.698250" lon="-0.036209">
        <ele>2535.1</ele>
        <time>2019-08-10T15:23:41Z</time>
      </trkpt>
      <trkpt lat="42.698338" lon="-0.036180">
        <ele>2533.8</ele>
        <time>2019-08-10T15:23:54Z</time>
      </trkpt>
      <trkpt lat="42.698407" lon="-0.036157">
        <ele>2531.5</ele>
        <time>2019-08-10T15:24:11Z</time>
      </trkpt>
      <trkpt lat="42.698485" lon="-0.036101">
        <ele>2529.8</ele>
        <time>2019-08-10T15:24:26Z</time>
      </trkpt>
      <trkpt lat="42.698546" lon="-0.036010">
        <ele>2528.5</ele>
        <time>2019-08-10T15:24:43Z</time>
      </trkpt>
      <trkpt lat="42.698624" lon="-0.036049">
        <ele>2525.5</ele>
        <time>2019-08-10T15:25:07Z</time>
      </trkpt>
      <trkpt lat="42.698664" lon="-0.036083">
        <ele>2521.4</ele>
        <time>2019-08-10T15:25:26Z</time>
      </trkpt>
      <trkpt lat="42.698692" lon="-0.036175">
        <ele>2518.4</ele>
        <time>2019-08-10T15:25:45Z</time>
      </trkpt>
      <trkpt lat="42.698721" lon="-0.036192">
        <ele>2514.8</ele>
        <time>2019-08-10T15:26:08Z</time>
      </trkpt>
      <trkpt lat="42.698843" lon="-0.036171">
        <ele>2512.7</ele>
        <time>2019-08-10T15:26:24Z</time>
      </trkpt>
      <trkpt lat="42.698903" lon="-0.036215">
        <ele>2509.0</ele>
        <time>2019-08-10T15:26:41Z</time>
      </trkpt>
      <trkpt lat="42.698961" lon="-0.036325">
        <ele>2501.2</ele>
        <time>2019-08-10T15:27:12Z</time>
      </trkpt>
      <trkpt lat="42.698976" lon="-0.036427">
        <ele>2497.8</ele>
        <time>2019-08-10T15:27:28Z</time>
      </trkpt>
      <trkpt lat="42.699004" lon="-0.036520">
        <ele>2493.9</ele>
        <time>2019-08-10T15:27:43Z</time>
      </trkpt>
      <trkpt lat="42.699018" lon="-0.036563">
        <ele>2490.0</ele>
        <time>2019-08-10T15:28:00Z</time>
      </trkpt>
      <trkpt lat="42.699104" lon="-0.036532">
        <ele>2487.4</ele>
        <time>2019-08-10T15:28:18Z</time>
      </trkpt>
      <trkpt lat="42.699119" lon="-0.036618">
        <ele>2484.3</ele>
        <time>2019-08-10T15:28:32Z</time>
      </trkpt>
      <trkpt lat="42.699180" lon="-0.036715">
        <ele>2477.7</ele>
        <time>2019-08-10T15:29:06Z</time>
      </trkpt>
      <trkpt lat="42.699179" lon="-0.036852">
        <ele>2475.6</ele>
        <time>2019-08-10T15:29:21Z</time>
      </trkpt>
      <trkpt lat="42.699246" lon="-0.036842">
        <ele>2473.8</ele>
        <time>2019-08-10T15:29:38Z</time>
      </trkpt>
      <trkpt lat="42.699269" lon="-0.036745">
        <ele>2471.8</ele>
        <time>2019-08-10T15:29:55Z</time>
      </trkpt>
      <trkpt lat="42.699350" lon="-0.036788">
        <ele>2467.7</ele>
        <time>2019-08-10T15:31:29Z</time>
      </trkpt>
      <trkpt lat="42.699309" lon="-0.036922">
        <ele>2466.0</ele>
        <time>2019-08-10T15:31:47Z</time>
      </trkpt>
      <trkpt lat="42.699292" lon="-0.037073">
        <ele>2465.6</ele>
        <time>2019-08-10T15:32:02Z</time>
      </trkpt>
      <trkpt lat="42.699369" lon="-0.037153">
        <ele>2463.0</ele>
        <time>2019-08-10T15:32:23Z</time>
      </trkpt>
      <trkpt lat="42.699372" lon="-0.037262">
        <ele>2460.8</ele>
        <time>2019-08-10T15:32:48Z</time>
      </trkpt>
      <trkpt lat="42.699314" lon="-0.037262">
        <ele>2460.8</ele>
        <time>2019-08-10T15:33:37Z</time>
      </trkpt>
      <trkpt lat="42.699324" lon="-0.037364">
        <ele>2460.8</ele>
        <time>2019-08-10T15:34:24Z</time>
      </trkpt>
      <trkpt lat="42.699416" lon="-0.037380">
        <ele>2458.5</ele>
        <time>2019-08-10T15:34:38Z</time>
      </trkpt>
      <trkpt lat="42.699448" lon="-0.037453">
        <ele>2454.4</ele>
        <time>2019-08-10T15:35:06Z</time>
      </trkpt>
      <trkpt lat="42.699442" lon="-0.037565">
        <ele>2453.6</ele>
        <time>2019-08-10T15:35:35Z</time>
      </trkpt>
      <trkpt lat="42.699481" lon="-0.037679">
        <ele>2451.5</ele>
        <time>2019-08-10T15:35:48Z</time>
      </trkpt>
      <trkpt lat="42.699545" lon="-0.037754">
        <ele>2450.0</ele>
        <time>2019-08-10T15:36:01Z</time>
      </trkpt>
      <trkpt lat="42.699622" lon="-0.037827">
        <ele>2448.1</ele>
        <time>2019-08-10T15:36:14Z</time>
      </trkpt>
      <trkpt lat="42.699678" lon="-0.037901">
        <ele>2445.1</ele>
        <time>2019-08-10T15:36:32Z</time>
      </trkpt>
      <trkpt lat="42.699766" lon="-0.037946">
        <ele>2444.0</ele>
        <time>2019-08-10T15:36:45Z</time>
      </trkpt>
      <trkpt lat="42.699834" lon="-0.038032">
        <ele>2442.5</ele>
        <time>2019-08-10T15:36:56Z</time>
      </trkpt>
      <trkpt lat="42.699912" lon="-0.038125">
        <ele>2441.4</ele>
        <time>2019-08-10T15:37:08Z</time>
      </trkpt>
      <trkpt lat="42.699988" lon="-0.038208">
        <ele>2438.5</ele>
        <time>2019-08-10T15:37:21Z</time>
      </trkpt>
      <trkpt lat="42.700032" lon="-0.038174">
        <ele>2436.1</ele>
        <time>2019-08-10T15:37:35Z</time>
      </trkpt>
      <trkpt lat="42.700055" lon="-0.038043">
        <ele>2433.6</ele>
        <time>2019-08-10T15:37:47Z</time>
      </trkpt>
      <trkpt lat="42.700045" lon="-0.037918">
        <ele>2430.8</ele>
        <time>2019-08-10T15:37:59Z</time>
      </trkpt>
      <trkpt lat="42.700117" lon="-0.037898">
        <ele>2427.4</ele>
        <time>2019-08-10T15:38:27Z</time>
      </trkpt>
      <trkpt lat="42.700195" lon="-0.037982">
        <ele>2425.4</ele>
        <time>2019-08-10T15:38:39Z</time>
      </trkpt>
      <trkpt lat="42.700261" lon="-0.038082">
        <ele>2424.8</ele>
        <time>2019-08-10T15:38:51Z</time>
      </trkpt>
      <trkpt lat="42.700341" lon="-0.038156">
        <ele>2422.8</ele>
        <time>2019-08-10T15:39:07Z</time>
      </trkpt>
      <trkpt lat="42.700404" lon="-0.038245">
        <ele>2420.2</ele>
        <time>2019-08-10T15:39:22Z</time>
      </trkpt>
      <trkpt lat="42.700468" lon="-0.038287">
        <ele>2415.9</ele>
        <time>2019-08-10T15:39:39Z</time>
      </trkpt>
      <trkpt lat="42.700491" lon="-0.038416">
        <ele>2411.6</ele>
        <time>2019-08-10T15:39:56Z</time>
      </trkpt>
      <trkpt lat="42.700517" lon="-0.038547">
        <ele>2406.9</ele>
        <time>2019-08-10T15:40:10Z</time>
      </trkpt>
      <trkpt lat="42.700502" lon="-0.038675">
        <ele>2403.6</ele>
        <time>2019-08-10T15:40:24Z</time>
      </trkpt>
      <trkpt lat="42.700521" lon="-0.038796">
        <ele>2400.6</ele>
        <time>2019-08-10T15:40:38Z</time>
      </trkpt>
      <trkpt lat="42.700528" lon="-0.038935">
        <ele>2397.5</ele>
        <time>2019-08-10T15:40:55Z</time>
      </trkpt>
      <trkpt lat="42.700509" lon="-0.039049">
        <ele>2394.3</ele>
        <time>2019-08-10T15:41:08Z</time>
      </trkpt>
      <trkpt lat="42.700536" lon="-0.039169">
        <ele>2392.3</ele>
        <time>2019-08-10T15:41:19Z</time>
      </trkpt>
      <trkpt lat="42.700566" lon="-0.039298">
        <ele>2391.3</ele>
        <time>2019-08-10T15:41:30Z</time>
      </trkpt>
      <trkpt lat="42.700550" lon="-0.039422">
        <ele>2391.4</ele>
        <time>2019-08-10T15:41:39Z</time>
      </trkpt>
      <trkpt lat="42.700591" lon="-0.039538">
        <ele>2391.1</ele>
        <time>2019-08-10T15:41:52Z</time>
      </trkpt>
      <trkpt lat="42.700600" lon="-0.039659">
        <ele>2390.3</ele>
        <time>2019-08-10T15:42:03Z</time>
      </trkpt>
      <trkpt lat="42.700640" lon="-0.039779">
        <ele>2389.6</ele>
        <time>2019-08-10T15:42:15Z</time>
      </trkpt>
      <trkpt lat="42.700665" lon="-0.039901">
        <ele>2390.3</ele>
        <time>2019-08-10T15:42:28Z</time>
      </trkpt>
      <trkpt lat="42.700723" lon="-0.040027">
        <ele>2389.6</ele>
        <time>2019-08-10T15:42:44Z</time>
      </trkpt>
      <trkpt lat="42.700763" lon="-0.040140">
        <ele>2389.5</ele>
        <time>2019-08-10T15:42:59Z</time>
      </trkpt>
      <trkpt lat="42.700785" lon="-0.040259">
        <ele>2388.5</ele>
        <time>2019-08-10T15:43:13Z</time>
      </trkpt>
      <trkpt lat="42.700821" lon="-0.040380">
        <ele>2387.2</ele>
        <time>2019-08-10T15:43:27Z</time>
      </trkpt>
      <trkpt lat="42.700810" lon="-0.040502">
        <ele>2386.4</ele>
        <time>2019-08-10T15:43:37Z</time>
      </trkpt>
      <trkpt lat="42.700787" lon="-0.040621">
        <ele>2385.8</ele>
        <time>2019-08-10T15:43:51Z</time>
      </trkpt>
      <trkpt lat="42.700768" lon="-0.040766">
        <ele>2385.7</ele>
        <time>2019-08-10T15:44:06Z</time>
      </trkpt>
      <trkpt lat="42.700788" lon="-0.040915">
        <ele>2385.1</ele>
        <time>2019-08-10T15:44:22Z</time>
      </trkpt>
      <trkpt lat="42.700773" lon="-0.041069">
        <ele>2385.0</ele>
        <time>2019-08-10T15:44:34Z</time>
      </trkpt>
      <trkpt lat="42.700738" lon="-0.041184">
        <ele>2385.9</ele>
        <time>2019-08-10T15:44:46Z</time>
      </trkpt>
      <trkpt lat="42.700712" lon="-0.041331">
        <ele>2386.5</ele>
        <time>2019-08-10T15:44:58Z</time>
      </trkpt>
      <trkpt lat="42.700699" lon="-0.041456">
        <ele>2385.6</ele>
        <time>2019-08-10T15:45:30Z</time>
      </trkpt>
      <trkpt lat="42.700683" lon="-0.041575">
        <ele>2386.2</ele>
        <time>2019-08-10T15:45:41Z</time>
      </trkpt>
      <trkpt lat="42.700676" lon="-0.041715">
        <ele>2385.7</ele>
        <time>2019-08-10T15:45:52Z</time>
      </trkpt>
      <trkpt lat="42.700685" lon="-0.041840">
        <ele>2385.4</ele>
        <time>2019-08-10T15:46:02Z</time>
      </trkpt>
      <trkpt lat="42.700672" lon="-0.041996">
        <ele>2385.3</ele>
        <time>2019-08-10T15:46:13Z</time>
      </trkpt>
      <trkpt lat="42.700668" lon="-0.042135">
        <ele>2385.0</ele>
        <time>2019-08-10T15:46:25Z</time>
      </trkpt>
      <trkpt lat="42.700667" lon="-0.042274">
        <ele>2384.7</ele>
        <time>2019-08-10T15:46:35Z</time>
      </trkpt>
      <trkpt lat="42.700697" lon="-0.042408">
        <ele>2384.5</ele>
        <time>2019-08-10T15:46:45Z</time>
      </trkpt>
      <trkpt lat="42.700720" lon="-0.042529">
        <ele>2384.6</ele>
        <time>2019-08-10T15:46:58Z</time>
      </trkpt>
      <trkpt lat="42.700786" lon="-0.042630">
        <ele>2384.7</ele>
        <time>2019-08-10T15:47:08Z</time>
      </trkpt>
      <trkpt lat="42.700858" lon="-0.042737">
        <ele>2384.8</ele>
        <time>2019-08-10T15:47:18Z</time>
      </trkpt>
      <trkpt lat="42.700890" lon="-0.042865">
        <ele>2386.0</ele>
        <time>2019-08-10T15:47:28Z</time>
      </trkpt>
      <trkpt lat="42.700919" lon="-0.043002">
        <ele>2387.6</ele>
        <time>2019-08-10T15:47:39Z</time>
      </trkpt>
      <trkpt lat="42.700942" lon="-0.043128">
        <ele>2388.1</ele>
        <time>2019-08-10T15:47:49Z</time>
      </trkpt>
      <trkpt lat="42.700984" lon="-0.043239">
        <ele>2387.5</ele>
        <time>2019-08-10T15:47:58Z</time>
      </trkpt>
      <trkpt lat="42.701012" lon="-0.043354">
        <ele>2387.0</ele>
        <time>2019-08-10T15:48:09Z</time>
      </trkpt>
      <trkpt lat="42.701026" lon="-0.043484">
        <ele>2387.1</ele>
        <time>2019-08-10T15:48:24Z</time>
      </trkpt>
      <trkpt lat="42.701038" lon="-0.043623">
        <ele>2387.4</ele>
        <time>2019-08-10T15:48:35Z</time>
      </trkpt>
      <trkpt lat="42.701076" lon="-0.043745">
        <ele>2387.5</ele>
        <time>2019-08-10T15:48:44Z</time>
      </trkpt>
      <trkpt lat="42.701117" lon="-0.043857">
        <ele>2387.7</ele>
        <time>2019-08-10T15:48:52Z</time>
      </trkpt>
      <trkpt lat="42.701165" lon="-0.043990">
        <ele>2387.2</ele>
        <time>2019-08-10T15:49:01Z</time>
      </trkpt>
      <trkpt lat="42.701192" lon="-0.044103">
        <ele>2387.2</ele>
        <time>2019-08-10T15:49:09Z</time>
      </trkpt>
      <trkpt lat="42.701224" lon="-0.044216">
        <ele>2387.3</ele>
        <time>2019-08-10T15:49:17Z</time>
      </trkpt>
      <trkpt lat="42.701264" lon="-0.044320">
        <ele>2387.6</ele>
        <time>2019-08-10T15:49:25Z</time>
      </trkpt>
      <trkpt lat="42.701276" lon="-0.044447">
        <ele>2388.0</ele>
        <time>2019-08-10T15:49:34Z</time>
      </trkpt>
      <trkpt lat="42.701305" lon="-0.044581">
        <ele>2387.3</ele>
        <time>2019-08-10T15:49:44Z</time>
      </trkpt>
      <trkpt lat="42.701336" lon="-0.044711">
        <ele>2386.6</ele>
        <time>2019-08-10T15:49:55Z</time>
      </trkpt>
      <trkpt lat="42.701322" lon="-0.044835">
        <ele>2385.6</ele>
        <time>2019-08-10T15:50:06Z</time>
      </trkpt>
      <trkpt lat="42.701306" lon="-0.044971">
        <ele>2384.4</ele>
        <time>2019-08-10T15:50:18Z</time>
      </trkpt>
      <trkpt lat="42.701317" lon="-0.045097">
        <ele>2384.3</ele>
        <time>2019-08-10T15:50:26Z</time>
      </trkpt>
      <trkpt lat="42.701328" lon="-0.045224">
        <ele>2382.1</ele>
        <time>2019-08-10T15:50:36Z</time>
      </trkpt>
      <trkpt lat="42.701349" lon="-0.045353">
        <ele>2381.4</ele>
        <time>2019-08-10T15:50:48Z</time>
      </trkpt>
      <trkpt lat="42.701358" lon="-0.045487">
        <ele>2380.7</ele>
        <time>2019-08-10T15:50:59Z</time>
      </trkpt>
      <trkpt lat="42.701395" lon="-0.045609">
        <ele>2379.6</ele>
        <time>2019-08-10T15:51:11Z</time>
      </trkpt>
      <trkpt lat="42.701462" lon="-0.045700">
        <ele>2378.6</ele>
        <time>2019-08-10T15:51:26Z</time>
      </trkpt>
      <trkpt lat="42.701481" lon="-0.045824">
        <ele>2378.2</ele>
        <time>2019-08-10T15:51:37Z</time>
      </trkpt>
      <trkpt lat="42.701450" lon="-0.045946">
        <ele>2378.0</ele>
        <time>2019-08-10T15:51:47Z</time>
      </trkpt>
      <trkpt lat="42.701428" lon="-0.046098">
        <ele>2376.6</ele>
        <time>2019-08-10T15:52:00Z</time>
      </trkpt>
      <trkpt lat="42.701446" lon="-0.046247">
        <ele>2375.3</ele>
        <time>2019-08-10T15:52:12Z</time>
      </trkpt>
      <trkpt lat="42.701451" lon="-0.046391">
        <ele>2375.5</ele>
        <time>2019-08-10T15:52:25Z</time>
      </trkpt>
      <trkpt lat="42.701468" lon="-0.046522">
        <ele>2373.8</ele>
        <time>2019-08-10T15:52:36Z</time>
      </trkpt>
      <trkpt lat="42.701506" lon="-0.046649">
        <ele>2371.4</ele>
        <time>2019-08-10T15:52:50Z</time>
      </trkpt>
      <trkpt lat="42.701544" lon="-0.046767">
        <ele>2368.7</ele>
        <time>2019-08-10T15:53:00Z</time>
      </trkpt>
      <trkpt lat="42.701578" lon="-0.046876">
        <ele>2367.4</ele>
        <time>2019-08-10T15:53:12Z</time>
      </trkpt>
      <trkpt lat="42.701624" lon="-0.046999">
        <ele>2365.5</ele>
        <time>2019-08-10T15:53:23Z</time>
      </trkpt>
      <trkpt lat="42.701631" lon="-0.047131">
        <ele>2365.1</ele>
        <time>2019-08-10T15:53:35Z</time>
      </trkpt>
      <trkpt lat="42.701667" lon="-0.047226">
        <ele>2364.1</ele>
        <time>2019-08-10T15:53:46Z</time>
      </trkpt>
      <trkpt lat="42.701727" lon="-0.047329">
        <ele>2362.3</ele>
        <time>2019-08-10T15:53:56Z</time>
      </trkpt>
      <trkpt lat="42.701775" lon="-0.047432">
        <ele>2361.4</ele>
        <time>2019-08-10T15:54:05Z</time>
      </trkpt>
      <trkpt lat="42.701810" lon="-0.047547">
        <ele>2361.6</ele>
        <time>2019-08-10T15:54:15Z</time>
      </trkpt>
      <trkpt lat="42.701874" lon="-0.047610">
        <ele>2361.0</ele>
        <time>2019-08-10T15:54:23Z</time>
      </trkpt>
      <trkpt lat="42.701969" lon="-0.047658">
        <ele>2359.6</ele>
        <time>2019-08-10T15:54:32Z</time>
      </trkpt>
      <trkpt lat="42.702028" lon="-0.047748">
        <ele>2359.1</ele>
        <time>2019-08-10T15:54:41Z</time>
      </trkpt>
      <trkpt lat="42.702056" lon="-0.047862">
        <ele>2357.8</ele>
        <time>2019-08-10T15:54:51Z</time>
      </trkpt>
      <trkpt lat="42.702061" lon="-0.047986">
        <ele>2356.9</ele>
        <time>2019-08-10T15:54:59Z</time>
      </trkpt>
      <trkpt lat="42.702047" lon="-0.048116">
        <ele>2356.3</ele>
        <time>2019-08-10T15:55:07Z</time>
      </trkpt>
      <trkpt lat="42.702024" lon="-0.048241">
        <ele>2356.1</ele>
        <time>2019-08-10T15:55:16Z</time>
      </trkpt>
      <trkpt lat="42.701986" lon="-0.048352">
        <ele>2355.3</ele>
        <time>2019-08-10T15:55:25Z</time>
      </trkpt>
      <trkpt lat="42.701943" lon="-0.048476">
        <ele>2354.6</ele>
        <time>2019-08-10T15:55:34Z</time>
      </trkpt>
      <trkpt lat="42.702003" lon="-0.048591">
        <ele>2354.8</ele>
        <time>2019-08-10T15:55:42Z</time>
      </trkpt>
      <trkpt lat="42.702060" lon="-0.048689">
        <ele>2354.7</ele>
        <time>2019-08-10T15:55:50Z</time>
      </trkpt>
      <trkpt lat="42.702039" lon="-0.048817">
        <ele>2354.9</ele>
        <time>2019-08-10T15:56:00Z</time>
      </trkpt>
      <trkpt lat="42.702035" lon="-0.048930">
        <ele>2352.5</ele>
        <time>2019-08-10T15:56:14Z</time>
      </trkpt>
      <trkpt lat="42.702043" lon="-0.049052">
        <ele>2351.2</ele>
        <time>2019-08-10T15:56:25Z</time>
      </trkpt>
      <trkpt lat="42.702033" lon="-0.049171">
        <ele>2349.9</ele>
        <time>2019-08-10T15:56:37Z</time>
      </trkpt>
      <trkpt lat="42.702006" lon="-0.049298">
        <ele>2346.7</ele>
        <time>2019-08-10T15:56:50Z</time>
      </trkpt>
      <trkpt lat="42.702012" lon="-0.049415">
        <ele>2344.6</ele>
        <time>2019-08-10T15:57:00Z</time>
      </trkpt>
      <trkpt lat="42.702030" lon="-0.049537">
        <ele>2343.4</ele>
        <time>2019-08-10T15:57:12Z</time>
      </trkpt>
      <trkpt lat="42.702093" lon="-0.049616">
        <ele>2341.2</ele>
        <time>2019-08-10T15:57:23Z</time>
      </trkpt>
      <trkpt lat="42.702090" lon="-0.049735">
        <ele>2339.1</ele>
        <time>2019-08-10T15:57:33Z</time>
      </trkpt>
      <trkpt lat="42.702090" lon="-0.049855">
        <ele>2337.4</ele>
        <time>2019-08-10T15:57:45Z</time>
      </trkpt>
      <trkpt lat="42.702085" lon="-0.049990">
        <ele>2335.1</ele>
        <time>2019-08-10T15:57:55Z</time>
      </trkpt>
      <trkpt lat="42.702043" lon="-0.050070">
        <ele>2334.3</ele>
        <time>2019-08-10T15:58:04Z</time>
      </trkpt>
      <trkpt lat="42.702073" lon="-0.050201">
        <ele>2334.2</ele>
        <time>2019-08-10T15:58:14Z</time>
      </trkpt>
      <trkpt lat="42.702141" lon="-0.050294">
        <ele>2332.4</ele>
        <time>2019-08-10T15:58:27Z</time>
      </trkpt>
      <trkpt lat="42.702171" lon="-0.050423">
        <ele>2331.2</ele>
        <time>2019-08-10T15:58:36Z</time>
      </trkpt>
      <trkpt lat="42.702214" lon="-0.050536">
        <ele>2330.1</ele>
        <time>2019-08-10T15:58:45Z</time>
      </trkpt>
      <trkpt lat="42.702258" lon="-0.050641">
        <ele>2327.5</ele>
        <time>2019-08-10T15:58:53Z</time>
      </trkpt>
      <trkpt lat="42.702288" lon="-0.050753">
        <ele>2326.0</ele>
        <time>2019-08-10T15:59:01Z</time>
      </trkpt>
      <trkpt lat="42.702254" lon="-0.050859">
        <ele>2324.7</ele>
        <time>2019-08-10T15:59:10Z</time>
      </trkpt>
      <trkpt lat="42.702197" lon="-0.050968">
        <ele>2324.1</ele>
        <time>2019-08-10T15:59:19Z</time>
      </trkpt>
      <trkpt lat="42.702220" lon="-0.051087">
        <ele>2324.1</ele>
        <time>2019-08-10T15:59:27Z</time>
      </trkpt>
      <trkpt lat="42.702239" lon="-0.051220">
        <ele>2324.7</ele>
        <time>2019-08-10T15:59:36Z</time>
      </trkpt>
      <trkpt lat="42.702264" lon="-0.051338">
        <ele>2324.4</ele>
        <time>2019-08-10T15:59:45Z</time>
      </trkpt>
      <trkpt lat="42.702267" lon="-0.051467">
        <ele>2323.4</ele>
        <time>2019-08-10T15:59:55Z</time>
      </trkpt>
      <trkpt lat="42.702306" lon="-0.051581">
        <ele>2322.2</ele>
        <time>2019-08-10T16:00:05Z</time>
      </trkpt>
      <trkpt lat="42.702379" lon="-0.051662">
        <ele>2321.1</ele>
        <time>2019-08-10T16:00:15Z</time>
      </trkpt>
      <trkpt lat="42.702435" lon="-0.051774">
        <ele>2319.9</ele>
        <time>2019-08-10T16:00:24Z</time>
      </trkpt>
      <trkpt lat="42.702435" lon="-0.051910">
        <ele>2319.6</ele>
        <time>2019-08-10T16:00:35Z</time>
      </trkpt>
      <trkpt lat="42.702449" lon="-0.052034">
        <ele>2319.7</ele>
        <time>2019-08-10T16:00:43Z</time>
      </trkpt>
      <trkpt lat="42.702416" lon="-0.052160">
        <ele>2319.3</ele>
        <time>2019-08-10T16:00:53Z</time>
      </trkpt>
      <trkpt lat="42.702406" lon="-0.052275">
        <ele>2317.8</ele>
        <time>2019-08-10T16:01:02Z</time>
      </trkpt>
      <trkpt lat="42.702409" lon="-0.052408">
        <ele>2317.1</ele>
        <time>2019-08-10T16:01:13Z</time>
      </trkpt>
      <trkpt lat="42.702395" lon="-0.052532">
        <ele>2316.5</ele>
        <time>2019-08-10T16:01:22Z</time>
      </trkpt>
      <trkpt lat="42.702385" lon="-0.052658">
        <ele>2315.8</ele>
        <time>2019-08-10T16:01:32Z</time>
      </trkpt>
      <trkpt lat="42.702390" lon="-0.052782">
        <ele>2315.8</ele>
        <time>2019-08-10T16:01:41Z</time>
      </trkpt>
      <trkpt lat="42.702368" lon="-0.052918">
        <ele>2316.2</ele>
        <time>2019-08-10T16:01:51Z</time>
      </trkpt>
      <trkpt lat="42.702358" lon="-0.053055">
        <ele>2317.0</ele>
        <time>2019-08-10T16:02:00Z</time>
      </trkpt>
      <trkpt lat="42.702348" lon="-0.053181">
        <ele>2317.5</ele>
        <time>2019-08-10T16:02:08Z</time>
      </trkpt>
      <trkpt lat="42.702363" lon="-0.053315">
        <ele>2317.7</ele>
        <time>2019-08-10T16:02:16Z</time>
      </trkpt>
      <trkpt lat="42.702362" lon="-0.053434">
        <ele>2318.4</ele>
        <time>2019-08-10T16:02:24Z</time>
      </trkpt>
      <trkpt lat="42.702353" lon="-0.053568">
        <ele>2319.2</ele>
        <time>2019-08-10T16:02:33Z</time>
      </trkpt>
      <trkpt lat="42.702325" lon="-0.053680">
        <ele>2320.1</ele>
        <time>2019-08-10T16:02:41Z</time>
      </trkpt>
      <trkpt lat="42.702321" lon="-0.053820">
        <ele>2320.7</ele>
        <time>2019-08-10T16:02:50Z</time>
      </trkpt>
      <trkpt lat="42.702337" lon="-0.053947">
        <ele>2320.5</ele>
        <time>2019-08-10T16:02:57Z</time>
      </trkpt>
      <trkpt lat="42.702332" lon="-0.054079">
        <ele>2320.0</ele>
        <time>2019-08-10T16:03:03Z</time>
      </trkpt>
      <trkpt lat="42.702300" lon="-0.054193">
        <ele>2319.3</ele>
        <time>2019-08-10T16:03:10Z</time>
      </trkpt>
      <trkpt lat="42.702246" lon="-0.054300">
        <ele>2319.0</ele>
        <time>2019-08-10T16:03:18Z</time>
      </trkpt>
      <trkpt lat="42.702230" lon="-0.054439">
        <ele>2318.4</ele>
        <time>2019-08-10T16:03:27Z</time>
      </trkpt>
      <trkpt lat="42.702171" lon="-0.054542">
        <ele>2317.9</ele>
        <time>2019-08-10T16:03:36Z</time>
      </trkpt>
      <trkpt lat="42.702155" lon="-0.054675">
        <ele>2317.9</ele>
        <time>2019-08-10T16:03:46Z</time>
      </trkpt>
      <trkpt lat="42.702207" lon="-0.054796">
        <ele>2318.4</ele>
        <time>2019-08-10T16:03:55Z</time>
      </trkpt>
      <trkpt lat="42.702243" lon="-0.054928">
        <ele>2318.5</ele>
        <time>2019-08-10T16:04:04Z</time>
      </trkpt>
      <trkpt lat="42.702256" lon="-0.055066">
        <ele>2317.9</ele>
        <time>2019-08-10T16:04:13Z</time>
      </trkpt>
      <trkpt lat="42.702256" lon="-0.055197">
        <ele>2317.8</ele>
        <time>2019-08-10T16:04:22Z</time>
      </trkpt>
      <trkpt lat="42.702234" lon="-0.055329">
        <ele>2317.9</ele>
        <time>2019-08-10T16:04:31Z</time>
      </trkpt>
      <trkpt lat="42.702260" lon="-0.055466">
        <ele>2318.3</ele>
        <time>2019-08-10T16:04:41Z</time>
      </trkpt>
      <trkpt lat="42.702216" lon="-0.055574">
        <ele>2319.1</ele>
        <time>2019-08-10T16:04:50Z</time>
      </trkpt>
      <trkpt lat="42.702202" lon="-0.055691">
        <ele>2319.1</ele>
        <time>2019-08-10T16:04:59Z</time>
      </trkpt>
      <trkpt lat="42.702266" lon="-0.055802">
        <ele>2319.3</ele>
        <time>2019-08-10T16:05:07Z</time>
      </trkpt>
      <trkpt lat="42.702312" lon="-0.055921">
        <ele>2319.8</ele>
        <time>2019-08-10T16:05:15Z</time>
      </trkpt>
      <trkpt lat="42.702381" lon="-0.056014">
        <ele>2318.8</ele>
        <time>2019-08-10T16:05:23Z</time>
      </trkpt>
      <trkpt lat="42.702449" lon="-0.056108">
        <ele>2318.2</ele>
        <time>2019-08-10T16:05:32Z</time>
      </trkpt>
      <trkpt lat="42.702534" lon="-0.056183">
        <ele>2318.8</ele>
        <time>2019-08-10T16:05:40Z</time>
      </trkpt>
      <trkpt lat="42.702579" lon="-0.056305">
        <ele>2320.0</ele>
        <time>2019-08-10T16:05:48Z</time>
      </trkpt>
      <trkpt lat="42.702578" lon="-0.056430">
        <ele>2320.4</ele>
        <time>2019-08-10T16:05:56Z</time>
      </trkpt>
      <trkpt lat="42.702535" lon="-0.056548">
        <ele>2320.8</ele>
        <time>2019-08-10T16:06:05Z</time>
      </trkpt>
      <trkpt lat="42.702535" lon="-0.056675">
        <ele>2321.2</ele>
        <time>2019-08-10T16:06:15Z</time>
      </trkpt>
      <trkpt lat="42.702573" lon="-0.056805">
        <ele>2321.4</ele>
        <time>2019-08-10T16:06:24Z</time>
      </trkpt>
      <trkpt lat="42.702606" lon="-0.056925">
        <ele>2321.3</ele>
        <time>2019-08-10T16:06:33Z</time>
      </trkpt>
      <trkpt lat="42.702660" lon="-0.057048">
        <ele>2321.3</ele>
        <time>2019-08-10T16:06:43Z</time>
      </trkpt>
      <trkpt lat="42.702615" lon="-0.057158">
        <ele>2321.1</ele>
        <time>2019-08-10T16:06:52Z</time>
      </trkpt>
      <trkpt lat="42.702644" lon="-0.057280">
        <ele>2321.0</ele>
        <time>2019-08-10T16:07:02Z</time>
      </trkpt>
      <trkpt lat="42.702681" lon="-0.057408">
        <ele>2320.1</ele>
        <time>2019-08-10T16:07:11Z</time>
      </trkpt>
      <trkpt lat="42.702692" lon="-0.057528">
        <ele>2320.5</ele>
        <time>2019-08-10T16:07:20Z</time>
      </trkpt>
      <trkpt lat="42.702727" lon="-0.057662">
        <ele>2322.1</ele>
        <time>2019-08-10T16:07:30Z</time>
      </trkpt>
      <trkpt lat="42.702715" lon="-0.057785">
        <ele>2322.5</ele>
        <time>2019-08-10T16:07:40Z</time>
      </trkpt>
      <trkpt lat="42.702742" lon="-0.057909">
        <ele>2322.4</ele>
        <time>2019-08-10T16:07:49Z</time>
      </trkpt>
      <trkpt lat="42.702748" lon="-0.058043">
        <ele>2323.0</ele>
        <time>2019-08-10T16:07:58Z</time>
      </trkpt>
      <trkpt lat="42.702750" lon="-0.058170">
        <ele>2323.1</ele>
        <time>2019-08-10T16:08:06Z</time>
      </trkpt>
      <trkpt lat="42.702780" lon="-0.058291">
        <ele>2322.5</ele>
        <time>2019-08-10T16:08:14Z</time>
      </trkpt>
      <trkpt lat="42.702798" lon="-0.058413">
        <ele>2322.4</ele>
        <time>2019-08-10T16:08:23Z</time>
      </trkpt>
      <trkpt lat="42.702792" lon="-0.058545">
        <ele>2323.0</ele>
        <time>2019-08-10T16:08:32Z</time>
      </trkpt>
      <trkpt lat="42.702822" lon="-0.058670">
        <ele>2323.4</ele>
        <time>2019-08-10T16:08:41Z</time>
      </trkpt>
      <trkpt lat="42.702891" lon="-0.058758">
        <ele>2323.4</ele>
        <time>2019-08-10T16:08:49Z</time>
      </trkpt>
      <trkpt lat="42.702954" lon="-0.058870">
        <ele>2323.6</ele>
        <time>2019-08-10T16:08:57Z</time>
      </trkpt>
      <trkpt lat="42.702955" lon="-0.058993">
        <ele>2325.3</ele>
        <time>2019-08-10T16:09:06Z</time>
      </trkpt>
      <trkpt lat="42.702948" lon="-0.059119">
        <ele>2326.8</ele>
        <time>2019-08-10T16:09:16Z</time>
      </trkpt>
      <trkpt lat="42.702972" lon="-0.059256">
        <ele>2326.9</ele>
        <time>2019-08-10T16:09:25Z</time>
      </trkpt>
      <trkpt lat="42.702993" lon="-0.059365">
        <ele>2325.7</ele>
        <time>2019-08-10T16:09:33Z</time>
      </trkpt>
      <trkpt lat="42.703048" lon="-0.059465">
        <ele>2327.3</ele>
        <time>2019-08-10T16:09:41Z</time>
      </trkpt>
      <trkpt lat="42.703065" lon="-0.059574">
        <ele>2329.7</ele>
        <time>2019-08-10T16:09:49Z</time>
      </trkpt>
      <trkpt lat="42.703085" lon="-0.059693">
        <ele>2328.7</ele>
        <time>2019-08-10T16:09:57Z</time>
      </trkpt>
      <trkpt lat="42.703108" lon="-0.059812">
        <ele>2328.2</ele>
        <time>2019-08-10T16:10:05Z</time>
      </trkpt>
      <trkpt lat="42.703142" lon="-0.059925">
        <ele>2328.7</ele>
        <time>2019-08-10T16:10:13Z</time>
      </trkpt>
      <trkpt lat="42.703167" lon="-0.060055">
        <ele>2330.4</ele>
        <time>2019-08-10T16:10:22Z</time>
      </trkpt>
      <trkpt lat="42.703173" lon="-0.060182">
        <ele>2331.4</ele>
        <time>2019-08-10T16:10:31Z</time>
      </trkpt>
      <trkpt lat="42.703156" lon="-0.060301">
        <ele>2331.4</ele>
        <time>2019-08-10T16:10:39Z</time>
      </trkpt>
      <trkpt lat="42.703148" lon="-0.060419">
        <ele>2329.2</ele>
        <time>2019-08-10T16:10:47Z</time>
      </trkpt>
      <trkpt lat="42.703192" lon="-0.060527">
        <ele>2327.4</ele>
        <time>2019-08-10T16:10:55Z</time>
      </trkpt>
      <trkpt lat="42.703212" lon="-0.060668">
        <ele>2326.8</ele>
        <time>2019-08-10T16:11:04Z</time>
      </trkpt>
      <trkpt lat="42.703232" lon="-0.060794">
        <ele>2326.6</ele>
        <time>2019-08-10T16:11:12Z</time>
      </trkpt>
      <trkpt lat="42.703264" lon="-0.060908">
        <ele>2326.2</ele>
        <time>2019-08-10T16:11:20Z</time>
      </trkpt>
      <trkpt lat="42.703233" lon="-0.061029">
        <ele>2326.3</ele>
        <time>2019-08-10T16:11:29Z</time>
      </trkpt>
      <trkpt lat="42.703231" lon="-0.061150">
        <ele>2325.9</ele>
        <time>2019-08-10T16:11:37Z</time>
      </trkpt>
      <trkpt lat="42.703233" lon="-0.061283">
        <ele>2324.2</ele>
        <time>2019-08-10T16:11:46Z</time>
      </trkpt>
      <trkpt lat="42.703232" lon="-0.061416">
        <ele>2322.1</ele>
        <time>2019-08-10T16:11:56Z</time>
      </trkpt>
      <trkpt lat="42.703249" lon="-0.061544">
        <ele>2320.7</ele>
        <time>2019-08-10T16:12:04Z</time>
      </trkpt>
      <trkpt lat="42.703276" lon="-0.061675">
        <ele>2318.8</ele>
        <time>2019-08-10T16:12:13Z</time>
      </trkpt>
      <trkpt lat="42.703292" lon="-0.061808">
        <ele>2317.2</ele>
        <time>2019-08-10T16:12:22Z</time>
      </trkpt>
      <trkpt lat="42.703347" lon="-0.061922">
        <ele>2314.3</ele>
        <time>2019-08-10T16:12:31Z</time>
      </trkpt>
      <trkpt lat="42.703410" lon="-0.062013">
        <ele>2313.8</ele>
        <time>2019-08-10T16:12:40Z</time>
      </trkpt>
      <trkpt lat="42.703461" lon="-0.062128">
        <ele>2312.1</ele>
        <time>2019-08-10T16:12:47Z</time>
      </trkpt>
      <trkpt lat="42.703471" lon="-0.062258">
        <ele>2313.1</ele>
        <time>2019-08-10T16:12:55Z</time>
      </trkpt>
      <trkpt lat="42.703481" lon="-0.062395">
        <ele>2311.5</ele>
        <time>2019-08-10T16:13:04Z</time>
      </trkpt>
      <trkpt lat="42.703495" lon="-0.062526">
        <ele>2310.7</ele>
        <time>2019-08-10T16:13:13Z</time>
      </trkpt>
      <trkpt lat="42.703499" lon="-0.062665">
        <ele>2308.4</ele>
        <time>2019-08-10T16:13:23Z</time>
      </trkpt>
      <trkpt lat="42.703501" lon="-0.062788">
        <ele>2307.4</ele>
        <time>2019-08-10T16:13:31Z</time>
      </trkpt>
      <trkpt lat="42.703509" lon="-0.062921">
        <ele>2304.2</ele>
        <time>2019-08-10T16:13:41Z</time>
      </trkpt>
      <trkpt lat="42.703491" lon="-0.063061">
        <ele>2301.2</ele>
        <time>2019-08-10T16:13:51Z</time>
      </trkpt>
      <trkpt lat="42.703495" lon="-0.063203">
        <ele>2298.6</ele>
        <time>2019-08-10T16:14:00Z</time>
      </trkpt>
      <trkpt lat="42.703520" lon="-0.063328">
        <ele>2296.2</ele>
        <time>2019-08-10T16:14:08Z</time>
      </trkpt>
      <trkpt lat="42.703562" lon="-0.063426">
        <ele>2293.9</ele>
        <time>2019-08-10T16:14:16Z</time>
      </trkpt>
      <trkpt lat="42.703584" lon="-0.063560">
        <ele>2292.1</ele>
        <time>2019-08-10T16:14:25Z</time>
      </trkpt>
      <trkpt lat="42.703633" lon="-0.063679">
        <ele>2290.1</ele>
        <time>2019-08-10T16:14:33Z</time>
      </trkpt>
      <trkpt lat="42.703671" lon="-0.063796">
        <ele>2288.1</ele>
        <time>2019-08-10T16:14:42Z</time>
      </trkpt>
      <trkpt lat="42.703683" lon="-0.063889">
        <ele>2287.1</ele>
        <time>2019-08-10T16:14:53Z</time>
      </trkpt>
      <trkpt lat="42.703753" lon="-0.063973">
        <ele>2282.5</ele>
        <time>2019-08-10T16:15:03Z</time>
      </trkpt>
      <trkpt lat="42.703815" lon="-0.063929">
        <ele>2279.4</ele>
        <time>2019-08-10T16:15:15Z</time>
      </trkpt>
      <trkpt lat="42.703864" lon="-0.063866">
        <ele>2276.7</ele>
        <time>2019-08-10T16:15:50Z</time>
      </trkpt>
      <trkpt lat="42.703909" lon="-0.063794">
        <ele>2277.1</ele>
        <time>2019-08-10T16:16:17Z</time>
      </trkpt>
      <trkpt lat="42.703987" lon="-0.063731">
        <ele>2275.1</ele>
        <time>2019-08-10T16:16:28Z</time>
      </trkpt>
      <trkpt lat="42.704064" lon="-0.063669">
        <ele>2273.2</ele>
        <time>2019-08-10T16:16:37Z</time>
      </trkpt>
      <trkpt lat="42.704155" lon="-0.063622">
        <ele>2272.0</ele>
        <time>2019-08-10T16:16:46Z</time>
      </trkpt>
      <trkpt lat="42.704246" lon="-0.063580">
        <ele>2271.2</ele>
        <time>2019-08-10T16:16:54Z</time>
      </trkpt>
      <trkpt lat="42.704348" lon="-0.063551">
        <ele>2270.4</ele>
        <time>2019-08-10T16:17:03Z</time>
      </trkpt>
      <trkpt lat="42.704446" lon="-0.063550">
        <ele>2270.1</ele>
        <time>2019-08-10T16:17:12Z</time>
      </trkpt>
      <trkpt lat="42.704543" lon="-0.063529">
        <ele>2269.5</ele>
        <time>2019-08-10T16:17:21Z</time>
      </trkpt>
      <trkpt lat="42.704641" lon="-0.063493">
        <ele>2268.6</ele>
        <time>2019-08-10T16:17:30Z</time>
      </trkpt>
      <trkpt lat="42.704740" lon="-0.063470">
        <ele>2267.8</ele>
        <time>2019-08-10T16:17:40Z</time>
      </trkpt>
      <trkpt lat="42.704829" lon="-0.063436">
        <ele>2266.9</ele>
        <time>2019-08-10T16:17:49Z</time>
      </trkpt>
      <trkpt lat="42.704916" lon="-0.063386">
        <ele>2265.9</ele>
        <time>2019-08-10T16:17:58Z</time>
      </trkpt>
      <trkpt lat="42.705010" lon="-0.063343">
        <ele>2265.3</ele>
        <time>2019-08-10T16:18:07Z</time>
      </trkpt>
      <trkpt lat="42.705104" lon="-0.063320">
        <ele>2265.1</ele>
        <time>2019-08-10T16:18:16Z</time>
      </trkpt>
      <trkpt lat="42.705193" lon="-0.063294">
        <ele>2264.3</ele>
        <time>2019-08-10T16:18:25Z</time>
      </trkpt>
      <trkpt lat="42.705280" lon="-0.063248">
        <ele>2263.6</ele>
        <time>2019-08-10T16:18:34Z</time>
      </trkpt>
      <trkpt lat="42.705371" lon="-0.063209">
        <ele>2263.1</ele>
        <time>2019-08-10T16:18:43Z</time>
      </trkpt>
      <trkpt lat="42.705460" lon="-0.063166">
        <ele>2262.3</ele>
        <time>2019-08-10T16:18:52Z</time>
      </trkpt>
      <trkpt lat="42.705560" lon="-0.063137">
        <ele>2262.4</ele>
        <time>2019-08-10T16:19:02Z</time>
      </trkpt>
      <trkpt lat="42.705640" lon="-0.063067">
        <ele>2261.9</ele>
        <time>2019-08-10T16:19:10Z</time>
      </trkpt>
      <trkpt lat="42.705726" lon="-0.063000">
        <ele>2260.0</ele>
        <time>2019-08-10T16:19:19Z</time>
      </trkpt>
      <trkpt lat="42.705817" lon="-0.062967">
        <ele>2259.3</ele>
        <time>2019-08-10T16:19:28Z</time>
      </trkpt>
      <trkpt lat="42.705919" lon="-0.062932">
        <ele>2259.4</ele>
        <time>2019-08-10T16:19:37Z</time>
      </trkpt>
      <trkpt lat="42.705997" lon="-0.062862">
        <ele>2257.2</ele>
        <time>2019-08-10T16:19:46Z</time>
      </trkpt>
      <trkpt lat="42.706071" lon="-0.062799">
        <ele>2256.7</ele>
        <time>2019-08-10T16:19:54Z</time>
      </trkpt>
      <trkpt lat="42.706153" lon="-0.062729">
        <ele>2255.2</ele>
        <time>2019-08-10T16:20:03Z</time>
      </trkpt>
      <trkpt lat="42.706232" lon="-0.062641">
        <ele>2253.7</ele>
        <time>2019-08-10T16:20:12Z</time>
      </trkpt>
      <trkpt lat="42.706326" lon="-0.062585">
        <ele>2253.9</ele>
        <time>2019-08-10T16:20:21Z</time>
      </trkpt>
      <trkpt lat="42.706399" lon="-0.062507">
        <ele>2253.2</ele>
        <time>2019-08-10T16:20:30Z</time>
      </trkpt>
      <trkpt lat="42.706480" lon="-0.062423">
        <ele>2250.9</ele>
        <time>2019-08-10T16:20:42Z</time>
      </trkpt>
      <trkpt lat="42.706559" lon="-0.062348">
        <ele>2248.2</ele>
        <time>2019-08-10T16:20:51Z</time>
      </trkpt>
      <trkpt lat="42.706650" lon="-0.062302">
        <ele>2248.5</ele>
        <time>2019-08-10T16:20:58Z</time>
      </trkpt>
      <trkpt lat="42.706734" lon="-0.062238">
        <ele>2246.3</ele>
        <time>2019-08-10T16:21:06Z</time>
      </trkpt>
      <trkpt lat="42.706810" lon="-0.062169">
        <ele>2244.2</ele>
        <time>2019-08-10T16:21:14Z</time>
      </trkpt>
      <trkpt lat="42.706896" lon="-0.062107">
        <ele>2243.6</ele>
        <time>2019-08-10T16:21:22Z</time>
      </trkpt>
      <trkpt lat="42.706970" lon="-0.062026">
        <ele>2243.6</ele>
        <time>2019-08-10T16:21:30Z</time>
      </trkpt>
      <trkpt lat="42.707048" lon="-0.061951">
        <ele>2242.2</ele>
        <time>2019-08-10T16:21:38Z</time>
      </trkpt>
      <trkpt lat="42.707117" lon="-0.061858">
        <ele>2240.9</ele>
        <time>2019-08-10T16:21:46Z</time>
      </trkpt>
      <trkpt lat="42.707145" lon="-0.061737">
        <ele>2240.2</ele>
        <time>2019-08-10T16:21:54Z</time>
      </trkpt>
      <trkpt lat="42.707182" lon="-0.061623">
        <ele>2239.4</ele>
        <time>2019-08-10T16:22:02Z</time>
      </trkpt>
      <trkpt lat="42.707215" lon="-0.061495">
        <ele>2238.6</ele>
        <time>2019-08-10T16:22:11Z</time>
      </trkpt>
      <trkpt lat="42.707248" lon="-0.061376">
        <ele>2238.3</ele>
        <time>2019-08-10T16:22:19Z</time>
      </trkpt>
      <trkpt lat="42.707291" lon="-0.061263">
        <ele>2238.6</ele>
        <time>2019-08-10T16:22:27Z</time>
      </trkpt>
      <trkpt lat="42.707343" lon="-0.061153">
        <ele>2239.3</ele>
        <time>2019-08-10T16:22:36Z</time>
      </trkpt>
      <trkpt lat="42.707410" lon="-0.061058">
        <ele>2237.2</ele>
        <time>2019-08-10T16:22:45Z</time>
      </trkpt>
      <trkpt lat="42.707490" lon="-0.060983">
        <ele>2234.4</ele>
        <time>2019-08-10T16:22:54Z</time>
      </trkpt>
      <trkpt lat="42.707550" lon="-0.060889">
        <ele>2233.6</ele>
        <time>2019-08-10T16:23:03Z</time>
      </trkpt>
      <trkpt lat="42.707631" lon="-0.060824">
        <ele>2232.2</ele>
        <time>2019-08-10T16:23:11Z</time>
      </trkpt>
      <trkpt lat="42.707703" lon="-0.060742">
        <ele>2230.7</ele>
        <time>2019-08-10T16:23:19Z</time>
      </trkpt>
      <trkpt lat="42.707786" lon="-0.060653">
        <ele>2230.0</ele>
        <time>2019-08-10T16:23:28Z</time>
      </trkpt>
      <trkpt lat="42.707865" lon="-0.060575">
        <ele>2229.2</ele>
        <time>2019-08-10T16:23:37Z</time>
      </trkpt>
      <trkpt lat="42.707934" lon="-0.060491">
        <ele>2227.6</ele>
        <time>2019-08-10T16:23:45Z</time>
      </trkpt>
      <trkpt lat="42.707995" lon="-0.060406">
        <ele>2226.9</ele>
        <time>2019-08-10T16:23:53Z</time>
      </trkpt>
      <trkpt lat="42.708077" lon="-0.060313">
        <ele>2226.1</ele>
        <time>2019-08-10T16:24:02Z</time>
      </trkpt>
      <trkpt lat="42.708149" lon="-0.060231">
        <ele>2225.1</ele>
        <time>2019-08-10T16:24:11Z</time>
      </trkpt>
      <trkpt lat="42.708225" lon="-0.060143">
        <ele>2224.1</ele>
        <time>2019-08-10T16:24:20Z</time>
      </trkpt>
      <trkpt lat="42.708320" lon="-0.060091">
        <ele>2223.2</ele>
        <time>2019-08-10T16:24:29Z</time>
      </trkpt>
      <trkpt lat="42.708394" lon="-0.060015">
        <ele>2223.6</ele>
        <time>2019-08-10T16:24:38Z</time>
      </trkpt>
      <trkpt lat="42.708472" lon="-0.059946">
        <ele>2222.3</ele>
        <time>2019-08-10T16:24:46Z</time>
      </trkpt>
      <trkpt lat="42.708553" lon="-0.059879">
        <ele>2219.6</ele>
        <time>2019-08-10T16:25:02Z</time>
      </trkpt>
      <trkpt lat="42.708633" lon="-0.059804">
        <ele>2218.6</ele>
        <time>2019-08-10T16:25:14Z</time>
      </trkpt>
      <trkpt lat="42.708716" lon="-0.059714">
        <ele>2218.9</ele>
        <time>2019-08-10T16:25:26Z</time>
      </trkpt>
      <trkpt lat="42.708789" lon="-0.059620">
        <ele>2217.9</ele>
        <time>2019-08-10T16:25:35Z</time>
      </trkpt>
      <trkpt lat="42.708859" lon="-0.059521">
        <ele>2217.9</ele>
        <time>2019-08-10T16:25:43Z</time>
      </trkpt>
      <trkpt lat="42.708934" lon="-0.059429">
        <ele>2218.3</ele>
        <time>2019-08-10T16:25:51Z</time>
      </trkpt>
      <trkpt lat="42.709019" lon="-0.059329">
        <ele>2218.1</ele>
        <time>2019-08-10T16:25:59Z</time>
      </trkpt>
      <trkpt lat="42.709090" lon="-0.059259">
        <ele>2217.0</ele>
        <time>2019-08-10T16:26:08Z</time>
      </trkpt>
      <trkpt lat="42.709184" lon="-0.059228">
        <ele>2216.1</ele>
        <time>2019-08-10T16:26:17Z</time>
      </trkpt>
      <trkpt lat="42.709281" lon="-0.059191">
        <ele>2216.0</ele>
        <time>2019-08-10T16:26:25Z</time>
      </trkpt>
      <trkpt lat="42.709367" lon="-0.059126">
        <ele>2215.3</ele>
        <time>2019-08-10T16:26:33Z</time>
      </trkpt>
      <trkpt lat="42.709450" lon="-0.059035">
        <ele>2215.1</ele>
        <time>2019-08-10T16:26:42Z</time>
      </trkpt>
      <trkpt lat="42.709530" lon="-0.058946">
        <ele>2215.2</ele>
        <time>2019-08-10T16:26:50Z</time>
      </trkpt>
      <trkpt lat="42.709609" lon="-0.058876">
        <ele>2214.9</ele>
        <time>2019-08-10T16:26:57Z</time>
      </trkpt>
      <trkpt lat="42.709687" lon="-0.058807">
        <ele>2214.4</ele>
        <time>2019-08-10T16:27:05Z</time>
      </trkpt>
      <trkpt lat="42.709771" lon="-0.058733">
        <ele>2214.1</ele>
        <time>2019-08-10T16:27:13Z</time>
      </trkpt>
      <trkpt lat="42.709849" lon="-0.058650">
        <ele>2213.8</ele>
        <time>2019-08-10T16:27:21Z</time>
      </trkpt>
      <trkpt lat="42.709924" lon="-0.058581">
        <ele>2213.8</ele>
        <time>2019-08-10T16:27:28Z</time>
      </trkpt>
      <trkpt lat="42.709989" lon="-0.058499">
        <ele>2213.9</ele>
        <time>2019-08-10T16:27:35Z</time>
      </trkpt>
      <trkpt lat="42.710044" lon="-0.058391">
        <ele>2213.9</ele>
        <time>2019-08-10T16:27:43Z</time>
      </trkpt>
      <trkpt lat="42.710097" lon="-0.058288">
        <ele>2213.8</ele>
        <time>2019-08-10T16:27:51Z</time>
      </trkpt>
      <trkpt lat="42.710153" lon="-0.058172">
        <ele>2213.3</ele>
        <time>2019-08-10T16:27:59Z</time>
      </trkpt>
      <trkpt lat="42.710215" lon="-0.058076">
        <ele>2213.0</ele>
        <time>2019-08-10T16:28:07Z</time>
      </trkpt>
      <trkpt lat="42.710273" lon="-0.057985">
        <ele>2213.2</ele>
        <time>2019-08-10T16:28:15Z</time>
      </trkpt>
      <trkpt lat="42.710323" lon="-0.057888">
        <ele>2213.7</ele>
        <time>2019-08-10T16:28:23Z</time>
      </trkpt>
      <trkpt lat="42.710376" lon="-0.057786">
        <ele>2213.5</ele>
        <time>2019-08-10T16:28:31Z</time>
      </trkpt>
      <trkpt lat="42.710432" lon="-0.057688">
        <ele>2213.2</ele>
        <time>2019-08-10T16:28:39Z</time>
      </trkpt>
      <trkpt lat="42.710498" lon="-0.057573">
        <ele>2212.6</ele>
        <time>2019-08-10T16:28:48Z</time>
      </trkpt>
      <trkpt lat="42.710565" lon="-0.057474">
        <ele>2212.9</ele>
        <time>2019-08-10T16:28:56Z</time>
      </trkpt>
      <trkpt lat="42.710630" lon="-0.057379">
        <ele>2213.1</ele>
        <time>2019-08-10T16:29:04Z</time>
      </trkpt>
      <trkpt lat="42.710698" lon="-0.057285">
        <ele>2213.0</ele>
        <time>2019-08-10T16:29:12Z</time>
      </trkpt>
      <trkpt lat="42.710771" lon="-0.057198">
        <ele>2212.9</ele>
        <time>2019-08-10T16:29:20Z</time>
      </trkpt>
      <trkpt lat="42.710844" lon="-0.057124">
        <ele>2213.2</ele>
        <time>2019-08-10T16:29:27Z</time>
      </trkpt>
      <trkpt lat="42.710923" lon="-0.057030">
        <ele>2212.8</ele>
        <time>2019-08-10T16:29:35Z</time>
      </trkpt>
      <trkpt lat="42.710994" lon="-0.056951">
        <ele>2212.4</ele>
        <time>2019-08-10T16:29:42Z</time>
      </trkpt>
      <trkpt lat="42.711071" lon="-0.056863">
        <ele>2212.8</ele>
        <time>2019-08-10T16:29:50Z</time>
      </trkpt>
      <trkpt lat="42.711147" lon="-0.056781">
        <ele>2212.9</ele>
        <time>2019-08-10T16:29:58Z</time>
      </trkpt>
      <trkpt lat="42.711232" lon="-0.056710">
        <ele>2213.8</ele>
        <time>2019-08-10T16:30:06Z</time>
      </trkpt>
      <trkpt lat="42.711315" lon="-0.056672">
        <ele>2213.9</ele>
        <time>2019-08-10T16:30:15Z</time>
      </trkpt>
      <trkpt lat="42.711403" lon="-0.056625">
        <ele>2211.3</ele>
        <time>2019-08-10T16:30:26Z</time>
      </trkpt>
      <trkpt lat="42.711500" lon="-0.056556">
        <ele>2211.0</ele>
        <time>2019-08-10T16:30:33Z</time>
      </trkpt>
      <trkpt lat="42.711576" lon="-0.056458">
        <ele>2210.6</ele>
        <time>2019-08-10T16:30:41Z</time>
      </trkpt>
      <trkpt lat="42.711658" lon="-0.056371">
        <ele>2210.6</ele>
        <time>2019-08-10T16:30:48Z</time>
      </trkpt>
      <trkpt lat="42.711730" lon="-0.056288">
        <ele>2210.4</ele>
        <time>2019-08-10T16:30:56Z</time>
      </trkpt>
      <trkpt lat="42.711790" lon="-0.056190">
        <ele>2210.5</ele>
        <time>2019-08-10T16:31:03Z</time>
      </trkpt>
      <trkpt lat="42.711855" lon="-0.056109">
        <ele>2210.8</ele>
        <time>2019-08-10T16:31:10Z</time>
      </trkpt>
      <trkpt lat="42.711936" lon="-0.055986">
        <ele>2210.3</ele>
        <time>2019-08-10T16:31:21Z</time>
      </trkpt>
      <trkpt lat="42.712012" lon="-0.055878">
        <ele>2210.4</ele>
        <time>2019-08-10T16:31:30Z</time>
      </trkpt>
      <trkpt lat="42.712058" lon="-0.055751">
        <ele>2210.5</ele>
        <time>2019-08-10T16:31:38Z</time>
      </trkpt>
      <trkpt lat="42.712111" lon="-0.055603">
        <ele>2209.9</ele>
        <time>2019-08-10T16:31:47Z</time>
      </trkpt>
      <trkpt lat="42.712147" lon="-0.055465">
        <ele>2210.3</ele>
        <time>2019-08-10T16:31:55Z</time>
      </trkpt>
      <trkpt lat="42.712181" lon="-0.055331">
        <ele>2211.1</ele>
        <time>2019-08-10T16:32:03Z</time>
      </trkpt>
      <trkpt lat="42.712217" lon="-0.055201">
        <ele>2211.7</ele>
        <time>2019-08-10T16:32:11Z</time>
      </trkpt>
      <trkpt lat="42.712240" lon="-0.055080">
        <ele>2212.1</ele>
        <time>2019-08-10T16:32:18Z</time>
      </trkpt>
      <trkpt lat="42.712265" lon="-0.054941">
        <ele>2212.3</ele>
        <time>2019-08-10T16:32:26Z</time>
      </trkpt>
      <trkpt lat="42.712277" lon="-0.054825">
        <ele>2210.4</ele>
        <time>2019-08-10T16:32:33Z</time>
      </trkpt>
      <trkpt lat="42.712296" lon="-0.054691">
        <ele>2210.7</ele>
        <time>2019-08-10T16:32:42Z</time>
      </trkpt>
      <trkpt lat="42.712314" lon="-0.054566">
        <ele>2212.2</ele>
        <time>2019-08-10T16:32:50Z</time>
      </trkpt>
      <trkpt lat="42.712327" lon="-0.054463">
        <ele>2213.7</ele>
        <time>2019-08-10T16:33:03Z</time>
      </trkpt>
      <trkpt lat="42.712358" lon="-0.054346">
        <ele>2213.5</ele>
        <time>2019-08-10T16:33:15Z</time>
      </trkpt>
      <trkpt lat="42.712394" lon="-0.054218">
        <ele>2213.2</ele>
        <time>2019-08-10T16:33:24Z</time>
      </trkpt>
      <trkpt lat="42.712427" lon="-0.054093">
        <ele>2213.0</ele>
        <time>2019-08-10T16:33:32Z</time>
      </trkpt>
      <trkpt lat="42.712458" lon="-0.053972">
        <ele>2213.0</ele>
        <time>2019-08-10T16:33:40Z</time>
      </trkpt>
      <trkpt lat="42.712493" lon="-0.053857">
        <ele>2213.5</ele>
        <time>2019-08-10T16:33:48Z</time>
      </trkpt>
      <trkpt lat="42.712530" lon="-0.053749">
        <ele>2213.9</ele>
        <time>2019-08-10T16:33:56Z</time>
      </trkpt>
      <trkpt lat="42.712570" lon="-0.053629">
        <ele>2213.6</ele>
        <time>2019-08-10T16:34:04Z</time>
      </trkpt>
      <trkpt lat="42.712617" lon="-0.053511">
        <ele>2213.3</ele>
        <time>2019-08-10T16:34:12Z</time>
      </trkpt>
      <trkpt lat="42.712658" lon="-0.053398">
        <ele>2213.9</ele>
        <time>2019-08-10T16:34:20Z</time>
      </trkpt>
      <trkpt lat="42.712696" lon="-0.053277">
        <ele>2214.3</ele>
        <time>2019-08-10T16:34:29Z</time>
      </trkpt>
      <trkpt lat="42.712731" lon="-0.053158">
        <ele>2214.2</ele>
        <time>2019-08-10T16:34:37Z</time>
      </trkpt>
      <trkpt lat="42.712755" lon="-0.053023">
        <ele>2214.2</ele>
        <time>2019-08-10T16:34:45Z</time>
      </trkpt>
      <trkpt lat="42.712773" lon="-0.052903">
        <ele>2214.7</ele>
        <time>2019-08-10T16:34:52Z</time>
      </trkpt>
      <trkpt lat="42.712790" lon="-0.052772">
        <ele>2214.7</ele>
        <time>2019-08-10T16:35:00Z</time>
      </trkpt>
      <trkpt lat="42.712809" lon="-0.052644">
        <ele>2215.2</ele>
        <time>2019-08-10T16:35:08Z</time>
      </trkpt>
      <trkpt lat="42.712833" lon="-0.052513">
        <ele>2215.5</ele>
        <time>2019-08-10T16:35:16Z</time>
      </trkpt>
      <trkpt lat="42.712860" lon="-0.052385">
        <ele>2215.1</ele>
        <time>2019-08-10T16:35:24Z</time>
      </trkpt>
      <trkpt lat="42.712882" lon="-0.052256">
        <ele>2215.3</ele>
        <time>2019-08-10T16:35:32Z</time>
      </trkpt>
      <trkpt lat="42.712907" lon="-0.052133">
        <ele>2215.7</ele>
        <time>2019-08-10T16:35:40Z</time>
      </trkpt>
      <trkpt lat="42.712931" lon="-0.052012">
        <ele>2215.8</ele>
        <time>2019-08-10T16:35:48Z</time>
      </trkpt>
      <trkpt lat="42.712966" lon="-0.051885">
        <ele>2215.7</ele>
        <time>2019-08-10T16:35:56Z</time>
      </trkpt>
      <trkpt lat="42.713011" lon="-0.051766">
        <ele>2215.2</ele>
        <time>2019-08-10T16:36:04Z</time>
      </trkpt>
      <trkpt lat="42.713055" lon="-0.051647">
        <ele>2214.9</ele>
        <time>2019-08-10T16:36:12Z</time>
      </trkpt>
      <trkpt lat="42.713106" lon="-0.051536">
        <ele>2215.0</ele>
        <time>2019-08-10T16:36:20Z</time>
      </trkpt>
      <trkpt lat="42.713155" lon="-0.051422">
        <ele>2214.9</ele>
        <time>2019-08-10T16:36:28Z</time>
      </trkpt>
      <trkpt lat="42.713204" lon="-0.051310">
        <ele>2214.9</ele>
        <time>2019-08-10T16:36:36Z</time>
      </trkpt>
      <trkpt lat="42.713245" lon="-0.051192">
        <ele>2214.8</ele>
        <time>2019-08-10T16:36:45Z</time>
      </trkpt>
      <trkpt lat="42.713309" lon="-0.051097">
        <ele>2214.5</ele>
        <time>2019-08-10T16:36:53Z</time>
      </trkpt>
      <trkpt lat="42.713389" lon="-0.051026">
        <ele>2214.2</ele>
        <time>2019-08-10T16:37:01Z</time>
      </trkpt>
      <trkpt lat="42.713475" lon="-0.051004">
        <ele>2213.9</ele>
        <time>2019-08-10T16:37:09Z</time>
      </trkpt>
      <trkpt lat="42.713564" lon="-0.051009">
        <ele>2213.9</ele>
        <time>2019-08-10T16:37:18Z</time>
      </trkpt>
      <trkpt lat="42.713621" lon="-0.051016">
        <ele>2239.5</ele>
        <time>2019-08-10T16:37:44Z</time>
      </trkpt>
    </trkseg>
  </trk>
</gpx>

